[[{"header":{"parameterUnit":"m.s-1","parameterCategory":1,"la1":31.0,"la2":29.5877,"lo1":-88.7671,"lo2":-86.6584,"dx":0.0162,"dy":0.0185,"nx":115,"ny":88,"refTime":"2022-12-08T18:00:00:Z","depth":0,"parameterNumber":2,"parameterNumberName":"U-component_of_WINDS"},"data":[0.0,0.0,0.0,0.0,0.0,0.0,0.0,0.0,0.0,0.0,0.0,0.0,0.0,0.0,0.0,0.0,0.0,0.0,0.0,0.0,0.0,0.0,0.0,0.0,0.0,0.0,0.0,0.0,0.0,0.0,0.0,0.0,0.0,0.0,0.0,0.0,0.0,0.0,0.0,0.0,0.0,0.0,0.0,0.0,0.0,0.0,0.0,0.0,0.0,0.0,0.0,0.0,0.0,0.0,0.0,0.0,0.0,0.0,0.0,0.0,0.0,0.0,0.0,0.0,0.0,0.0,0.0,0.0,0.0,0.0,0.0,0.0,0.0,0.0,0.0,0.0,0.0,0.0,0.0,0.0,0.0,0.0,0.0,0.0,0.0,0.0,0.0,0.0,0.0,0.0,0.0,0.0,0.0,0.0,0.0,0.0,0.0,0.0,0.0,0.0,0.0,0.0,0.0,0.0,0.0,0.0,0.0,0.0,0.0,0.0,0.0,0.0,0.0,0.0,0.0,0.0,0.0,0.0,0.0,0.0,0.0,0.0,0.0,0.0,0.0,0.0,0.0,0.0,0.0,0.0,0.0,0.0,0.0,0.0,0.0,0.0,0.0,0.0,0.0,0.0,0.0,0.0,0.0,0.0,0.0,0.0,0.0,0.0,0.0,0.0,0.0,0.0,0.0,0.0,0.0,0.0,0.0,0.0,0.0,0.0,0.0,0.0,0.0,0.0,0.0,0.0,0.0,0.0,0.0,0.0,0.0,0.0,0.0,0.0,0.0,0.0,0.0,0.0,0.0,0.0,0.0,0.0,0.0,0.0,0.0,0.0,0.0,0.0,0.0,0.0,0.0,0.0,0.0,0.0,0.0,0.0,0.0,0.0,0.0,0.0,0.0,0.0,0.0,0.0,0.0,0.0,0.0,0.0,0.0,0.0,0.0,0.0,0.0,0.0,0.0,0.0,0.0,0.0,0.0,0.0,0.0,0.0,0.0,0.0,0.0,0.0,0.0,0.0,0.0,0.0,0.0,0.0,0.0,0.0,0.0,0.0,0.0,0.0,0.0,0.0,0.0,0.0,0.0,0.0,0.0,0.0,0.0,0.0,0.0,0.0,0.0,0.0,0.0,0.0,0.0,0.0,0.0,0.0,0.0,0.0,0.0,0.0,0.0,0.0,0.0,0.0,0.0,0.0,0.0,0.0,0.0,0.0,0.0,0.0,0.0,0.0,0.0,0.0,0.0,0.0,0.0,0.0,0.0,0.0,0.0,0.0,0.0,0.0,0.0,0.0,0.0,0.0,0.0,0.0,0.0,0.0,0.0,0.0,0.0,0.0,0.0,0.0,0.0,0.0,0.0,0.0,0.0,0.0,0.0,0.0,0.0,0.0,0.0,0.0,0.0,0.0,0.0,0.0,0.0,0.0,0.0,0.0,0.0,0.0,0.0,0.0,0.0,0.0,0.0,0.0,0.0,0.0,0.0,0.0,0.0,0.0,0.0,0.0,0.0,0.0,0.0,0.0,0.0,0.0,0.0,0.0,0.0,0.0,0.0,0.0,0.0,0.0,0.0,0.0,0.0,0.0,0.0,0.0,0.0,0.0,0.0,0.0,0.0,0.0,0.0,0.0,0.0,0.0,0.0,0.0,0.0,0.0,0.0,0.0,0.0,0.0,0.0,0.0,0.0,0.0,0.0,0.0,0.0,0.0,0.0,0.0,0.0,0.0,0.0,0.0,0.0,0.0,0.0,0.0,0.0,0.0,0.0,0.0,0.0,0.0,0.0,0.0,0.0,0.0,0.0,0.0,0.0,0.0,0.0,0.0,0.0,0.0,0.0,0.0,0.0,0.0,0.0,0.0,0.0,0.0,0.0,0.0,0.0,0.0,0.0,0.0,0.0,0.0,0.0,0.0,0.0,0.0,0.0,0.0,0.0,0.0,0.0,0.0,0.0,0.0,0.0,0.0,0.0,0.0,0.0,0.0,0.0,0.0,0.0,0.0,0.0,0.0,0.0,0.0,0.0,0.0,0.0,0.0,0.0,0.0,0.0,0.0,0.0,0.0,0.0,0.0,0.0,0.0,0.0,0.0,0.0,0.0,0.0,0.0,0.0,0.0,0.0,0.0,0.0,0.0,0.0,0.0,0.0,0.0,0.0,0.0,0.0,0.0,0.0,0.0,0.0,0.0,0.0,0.0,0.0,0.0,0.0,0.0,0.0,0.0,0.0,0.0,0.0,0.0,0.0,0.0,0.0,0.0,0.0,0.0,0.0,0.0,0.0,0.0,0.0,0.0,0.0,0.0,0.0,0.0,0.0,0.0,0.0,0.0,0.0,0.0,0.0,0.0,0.0,0.0,0.0,0.0,0.0,0.0,0.0,0.0,0.0,0.0,0.0,0.0,0.0,0.0,0.0,0.0,0.0,0.0,0.0,0.0,0.0,0.0,0.0,0.0,0.0,0.0,0.0,0.0,0.0,0.0,0.0,0.0,0.0,0.0,0.0,0.0,0.0,0.0,0.0,0.0,0.0,0.0,0.0,0.0,0.0,0.0,0.0,0.0,0.0,0.0,0.0,0.0,0.0,0.0,0.0,0.0,0.0,0.0,0.0,0.0,0.0,0.0,0.0,0.0,0.0,0.0,0.0,0.0,0.0,0.0,0.0,0.0,0.0,0.0,0.0,0.0,0.0,0.0,0.0,0.0,0.0,0.0,0.0,0.0,0.0,0.0,0.0,0.0,0.0,0.0,0.0,0.0,0.0,0.0,0.0,0.0,0.0,0.0,0.0,0.0,0.0,0.0,0.0,0.0,0.0,0.0,0.0,0.0,0.0,0.0,0.0,0.0,0.0,0.0,0.0,0.0,0.0,0.0,0.0,0.0,0.0,0.0,0.0,0.0,0.0,0.0,0.0,0.0,0.0,0.0,0.0,0.0,0.0,0.0,0.0,0.0,0.0,0.0,0.0,0.0,0.0,0.0,0.0,0.0,0.0,0.0,0.0,0.0,0.0,0.0,0.0,0.0,0.0,0.0,0.0,0.0,0.0,0.0,0.0,0.0,0.0,0.0,0.0,0.0,0.0,0.0,0.0,0.0,0.0,0.0,0.0,0.0,0.0,0.0,0.0,0.0,0.0,0.0,0.0,0.0,0.0,0.0,0.0,0.0,0.0,0.0,0.0,0.0,0.0,0.0,0.0,0.0,0.0,0.0,0.0,0.0,0.0,0.0,0.0,0.0,0.0,0.0,0.0,0.0,0.0,0.0,0.0,0.0,0.0,0.0,0.0,0.0,0.0,0.0,0.0,0.0,0.0,0.0,0.0,0.0,0.0,0.0,0.0,0.0,0.0,0.0,0.0,0.0,0.0,0.0,0.0,0.0,0.0,0.0,0.0,0.0,0.0,0.0,0.0,0.0,0.0,0.0,0.0,0.0,0.0,0.0,0.0,0.0,0.0,0.0,0.0,0.0,0.0,0.0,0.0,0.0,0.0,0.0,0.0,0.0,0.0,0.0,0.0,0.0,0.0,0.0,0.0,0.0,0.0,0.0,0.0,0.0,0.0,0.0,0.0,0.0,0.0,0.0,0.0,0.0,0.0,0.0,0.0,0.0,0.0,0.0,0.0,0.0,0.0,0.0,0.0,0.0,0.0,0.0,0.0,0.0,0.0,0.0,0.0,0.0,0.0,0.0,0.0,0.0,0.0,0.0,0.0,0.0,0.0,0.0,0.0,0.0,0.0,0.0,0.0,0.0,0.0,0.0,0.0,0.0,0.0,0.0,0.0,0.0,0.0,0.0,0.0,0.0,0.0,0.0,0.0,0.0,0.0,0.0,0.0,0.0,0.0,0.0,0.0,0.0,0.0,0.0,0.0,0.0,0.0,0.0,0.0,0.0,0.0,0.0,0.0,0.0,0.0,0.0,0.0,0.0,0.0,0.0,0.0,0.0,0.0,0.0,0.0,0.0,0.0,0.0,0.0,0.0,0.0,0.0,0.0,0.0,0.0,0.0,0.0,0.0,0.0,0.0,0.0,0.0,0.0,0.0,0.0,0.0,0.0,0.0,0.0,0.0,0.0,0.0,0.0,0.0,0.0,0.0,0.0,0.0,0.0,0.0,0.0,0.0,0.0,0.0,0.0,0.0,0.0,0.0,0.0,0.0,0.0,0.0,0.0,0.0,0.0,0.0,0.0,0.0,0.0,0.0,0.0,0.0,0.0,0.0,0.0,0.0,0.0,0.0,0.0,0.0,0.0,0.0,0.0,0.0,0.0,0.0,-1.4919,0.0,0.0,0.0,-1.3731,0.0,0.0,0.0,0.0,0.0,0.0,0.0,0.0,0.0,0.0,0.0,0.0,0.0,0.0,0.0,0.0,0.0,0.0,0.0,0.0,0.0,0.0,0.0,0.0,0.0,0.0,0.0,0.0,0.0,0.0,0.0,0.0,0.0,0.0,0.0,0.0,0.0,0.0,0.0,0.0,0.0,0.0,0.0,0.0,0.0,0.0,0.0,0.0,0.0,0.0,0.0,0.0,0.0,0.0,0.0,0.0,0.0,0.0,0.0,0.0,0.0,0.0,0.0,0.0,0.0,0.0,0.0,0.0,0.0,0.0,0.0,0.0,0.0,0.0,0.0,0.0,0.0,0.0,0.0,0.0,0.0,0.0,0.0,0.0,0.0,0.0,0.0,0.0,0.0,0.0,0.0,0.0,0.0,0.0,0.0,0.0,0.0,0.0,0.0,0.0,0.0,0.0,0.0,0.0,0.0,0.0,0.0,0.0,0.0,0.0,-1.4971,-1.4987,-1.5014,-1.4801,-1.4346,0.0,0.0,0.0,0.0,0.0,0.0,0.0,0.0,0.0,0.0,0.0,0.0,0.0,0.0,0.0,0.0,0.0,0.0,0.0,0.0,0.0,0.0,0.0,0.0,0.0,0.0,0.0,0.0,0.0,0.0,0.0,0.0,0.0,0.0,0.0,0.0,0.0,0.0,0.0,0.0,0.0,0.0,0.0,0.0,0.0,0.0,0.0,0.0,0.0,0.0,0.0,0.0,0.0,0.0,0.0,0.0,0.0,0.0,0.0,0.0,0.0,0.0,0.0,0.0,0.0,0.0,0.0,0.0,0.0,0.0,0.0,0.0,0.0,0.0,0.0,0.0,0.0,0.0,0.0,0.0,0.0,0.0,0.0,0.0,0.0,0.0,0.0,0.0,0.0,0.0,0.0,0.0,0.0,0.0,0.0,0.0,0.0,0.0,0.0,0.0,0.0,0.0,0.0,0.0,0.0,0.0,0.0,0.0,0.0,0.0,0.0,0.0,-1.5022,-1.4782,-1.433,0.0,0.0,0.0,0.0,0.0,0.0,0.0,0.0,0.0,0.0,0.0,0.0,0.0,0.0,0.0,0.0,0.0,0.0,0.0,0.0,0.0,0.0,0.0,0.0,0.0,0.0,0.0,0.0,0.0,0.0,0.0,0.0,0.0,0.0,0.0,0.0,0.0,0.0,0.0,0.0,0.0,0.0,0.0,0.0,0.0,0.0,0.0,0.0,0.0,0.0,0.0,0.0,0.0,0.0,0.0,0.0,0.0,0.0,0.0,0.0,0.0,0.0,0.0,0.0,0.0,0.0,0.0,0.0,0.0,0.0,0.0,0.0,0.0,0.0,0.0,0.0,0.0,0.0,0.0,0.0,0.0,0.0,0.0,0.0,0.0,0.0,0.0,0.0,0.0,0.0,0.0,0.0,0.0,0.0,0.0,0.0,0.0,0.0,0.0,0.0,0.0,0.0,0.0,0.0,0.0,0.0,0.0,0.0,0.0,0.0,-1.5011,-1.5027,-1.5011,0.0,-1.2753,0.0,0.0,0.0,0.0,0.0,0.0,0.0,0.0,0.0,0.0,0.0,0.0,0.0,0.0,0.0,0.0,0.0,0.0,0.0,0.0,0.0,0.0,0.0,0.0,0.0,0.0,0.0,0.0,0.0,0.0,0.0,0.0,0.0,0.0,0.0,0.0,0.0,0.0,0.0,0.0,0.0,0.0,0.0,0.0,0.0,0.0,0.0,0.0,0.0,0.0,0.0,0.0,0.0,0.0,0.0,0.0,0.0,0.0,0.0,0.0,0.0,0.0,0.0,0.0,0.0,0.0,0.0,0.0,0.0,0.0,0.0,0.0,0.0,0.0,0.0,0.0,0.0,0.0,0.0,0.0,0.0,0.0,0.0,0.0,0.0,0.0,0.0,0.0,0.0,0.0,0.0,0.0,0.0,0.0,0.0,0.0,0.0,0.0,0.0,0.0,0.0,0.0,0.0,0.0,0.0,0.0,0.0,0.0,0.0,0.0,-1.5008,-1.5057,-1.4995,-1.4136,0.0,0.0,0.0,0.0,0.0,0.0,0.0,0.0,0.0,0.0,0.0,0.0,0.0,0.0,0.0,0.0,0.0,0.0,0.0,0.0,0.0,0.0,0.0,0.0,0.0,0.0,0.0,0.0,0.0,0.0,0.0,0.0,0.0,0.0,0.0,0.0,0.0,0.0,0.0,0.0,0.0,0.0,0.0,0.0,0.0,0.0,0.0,0.0,0.0,0.0,0.0,0.0,0.0,0.0,0.0,0.0,0.0,0.0,0.0,0.0,0.0,0.0,0.0,0.0,0.0,0.0,0.0,0.0,0.0,0.0,0.0,0.0,0.0,0.0,0.0,0.0,0.0,0.0,0.0,0.0,0.0,0.0,0.0,0.0,0.0,0.0,0.0,0.0,0.0,0.0,0.0,0.0,0.0,0.0,0.0,0.0,0.0,0.0,0.0,0.0,0.0,0.0,0.0,0.0,0.0,0.0,0.0,0.0,0.0,0.0,-1.4555,-1.5023,-1.5076,-1.4979,-1.4112,-1.2463,0.0,0.0,0.0,0.0,0.0,0.0,0.0,0.0,0.0,0.0,0.0,0.0,0.0,0.0,0.0,0.0,0.0,0.0,0.0,0.0,0.0,0.0,0.0,0.0,0.0,0.0,0.0,0.0,0.0,0.0,0.0,0.0,0.0,0.0,0.0,0.0,0.0,0.0,0.0,0.0,0.0,0.0,0.0,0.0,0.0,0.0,0.0,0.0,0.0,0.0,0.0,0.0,0.0,0.0,0.0,0.0,0.0,0.0,0.0,0.0,0.0,0.0,0.0,0.0,0.0,0.0,0.0,0.0,0.0,0.0,0.0,0.0,0.0,0.0,0.0,0.0,0.0,0.0,0.0,0.0,0.0,0.0,0.0,0.0,0.0,0.0,0.0,0.0,0.0,0.0,0.0,0.0,0.0,0.0,0.0,0.0,0.0,0.0,0.0,0.0,0.0,0.0,0.0,0.0,0.0,0.0,0.0,0.0,-1.3664,-1.4555,-1.5008,-1.5008,-1.4925,-1.4093,0.0,0.0,0.0,0.0,0.0,0.0,0.0,0.0,0.0,0.0,0.0,0.0,0.0,0.0,0.0,0.0,0.0,0.0,0.0,0.0,0.0,0.0,0.0,0.0,0.0,0.0,0.0,0.0,0.0,0.0,0.0,0.0,0.0,0.0,0.0,0.0,0.0,0.0,0.0,0.0,0.0,0.0,0.0,0.0,0.0,0.0,0.0,0.0,0.0,0.0,0.0,0.0,0.0,0.0,0.0,0.0,0.0,0.0,0.0,0.0,0.0,0.0,0.0,0.0,0.0,0.0,0.0,0.0,0.0,0.0,0.0,0.0,0.0,0.0,0.0,0.0,0.0,0.0,0.0,0.0,0.0,0.0,0.0,0.0,0.0,0.0,0.0,0.0,0.0,0.0,0.0,0.0,0.0,0.0,0.0,0.0,0.0,0.0,0.0,0.0,0.0,0.0,0.0,0.0,0.0,0.0,0.0,0.0,0.0,-1.2903,-1.4263,-1.5008,-1.4989,-1.4944,-1.4112,0.0,0.0,0.0,0.0,0.0,0.0,0.0,0.0,0.0,0.0,0.0,0.0,0.0,0.0,0.0,0.0,0.0,0.0,0.0,0.0,0.0,0.0,0.0,0.0,0.0,0.0,0.0,0.0,0.0,0.0,0.0,0.0,0.0,0.0,0.0,0.0,0.0,0.0,0.0,0.0,0.0,0.0,0.0,0.0,0.0,0.0,0.0,0.0,0.0,0.0,0.0,0.0,0.0,0.0,0.0,0.0,0.0,0.0,0.0,0.0,0.0,0.0,0.0,0.0,0.0,0.0,0.0,0.0,0.0,0.0,0.0,0.0,0.0,0.0,0.0,0.0,0.0,0.0,0.0,0.0,0.0,0.0,0.0,0.0,0.0,0.0,0.0,0.0,0.0,0.0,0.0,0.0,0.0,0.0,0.0,0.0,0.0,0.0,0.0,0.0,0.0,0.0,0.0,0.0,0.0,0.0,0.0,0.0,0.0,-1.363,-1.4794,-1.5399,-1.5437,-1.5361,-1.4413,0.0,0.0,0.0,0.0,0.0,0.0,0.0,0.0,0.0,0.0,0.0,0.0,0.0,0.0,0.0,0.0,0.0,0.0,0.0,0.0,0.0,0.0,0.0,0.0,0.0,0.0,0.0,0.0,0.0,0.0,0.0,0.0,0.0,0.0,0.0,0.0,0.0,0.0,0.0,0.0,0.0,0.0,0.0,0.0,0.0,0.0,0.0,0.0,0.0,0.0,0.0,0.0,0.0,0.0,0.0,0.0,0.0,0.0,0.0,0.0,0.0,0.0,0.0,0.0,0.0,0.0,0.0,0.0,0.0,0.0,0.0,0.0,0.0,0.0,0.0,0.0,0.0,0.0,0.0,0.0,0.0,0.0,0.0,0.0,0.0,0.0,0.0,0.0,0.0,0.0,0.0,0.0,0.0,0.0,0.0,0.0,0.0,0.0,0.0,0.0,0.0,0.0,0.0,0.0,0.0,0.0,0.0,0.0,-1.3601,-1.6033,-1.6229,-1.6314,-1.6314,-1.6214,-1.5008,0.0,0.0,0.0,0.0,0.0,0.0,0.0,0.0,0.0,0.0,0.0,0.0,0.0,0.0,0.0,0.0,0.0,0.0,0.0,0.0,0.0,0.0,0.0,0.0,0.0,0.0,0.0,0.0,0.0,0.0,0.0,0.0,0.0,0.0,0.0,0.0,0.0,0.0,0.0,0.0,0.0,0.0,0.0,0.0,0.0,0.0,0.0,0.0,0.0,0.0,0.0,0.0,0.0,0.0,0.0,0.0,0.0,0.0,0.0,0.0,0.0,0.0,0.0,0.0,0.0,0.0,0.0,0.0,0.0,0.0,0.0,0.0,0.0,0.0,0.0,0.0,0.0,0.0,0.0,0.0,0.0,0.0,0.0,0.0,0.0,0.0,0.0,0.0,0.0,0.0,0.0,0.0,0.0,0.0,0.0,0.0,0.0,0.0,0.0,0.0,0.0,0.0,0.0,0.0,0.0,0.0,0.0,0.0,0.0,-1.6176,-1.6772,-1.7085,-1.7094,-1.647,-1.549,0.0,0.0,0.0,0.0,0.0,0.0,0.0,0.0,0.0,0.0,0.0,0.0,0.0,0.0,0.0,0.0,0.0,0.0,0.0,0.0,0.0,0.0,0.0,0.0,0.0,0.0,0.0,0.0,0.0,0.0,0.0,0.0,0.0,0.0,0.0,0.0,0.0,0.0,0.0,0.0,0.0,0.0,0.0,0.0,0.0,0.0,0.0,0.0,0.0,0.0,0.0,0.0,0.0,0.0,0.0,0.0,0.0,0.0,0.0,0.0,0.0,0.0,0.0,0.0,0.0,0.0,0.0,0.0,0.0,0.0,0.0,0.0,0.0,0.0,0.0,0.0,0.0,0.0,0.0,0.0,0.0,0.0,0.0,0.0,0.0,0.0,0.0,0.0,0.0,0.0,0.0,0.0,0.0,0.0,0.0,0.0,0.0,0.0,0.0,0.0,0.0,0.0,0.0,0.0,0.0,0.0,0.0,0.0,0.0,-1.7911,-1.8165,-1.8329,-1.8399,-1.7788,-1.6605,-1.4829,0.0,0.0,0.0,0.0,0.0,0.0,0.0,0.0,0.0,0.0,0.0,0.0,0.0,0.0,0.0,0.0,0.0,0.0,0.0,0.0,0.0,0.0,0.0,0.0,0.0,0.0,0.0,0.0,0.0,0.0,0.0,0.0,0.0,0.0,0.0,0.0,0.0,0.0,0.0,0.0,0.0,0.0,0.0,0.0,0.0,0.0,0.0,0.0,0.0,0.0,0.0,0.0,0.0,0.0,0.0,0.0,0.0,0.0,0.0,0.0,0.0,0.0,0.0,0.0,0.0,0.0,0.0,0.0,0.0,0.0,0.0,0.0,0.0,0.0,0.0,0.0,0.0,0.0,0.0,0.0,0.0,0.0,0.0,0.0,0.0,0.0,0.0,0.0,0.0,0.0,0.0,0.0,0.0,0.0,0.0,0.0,0.0,0.0,0.0,0.0,0.0,0.0,0.0,0.0,0.0,0.0,0.0,0.0,-2.0953,-2.0375,-2.0088,-2.0106,-1.9932,-1.8296,0.0,0.0,0.0,0.0,0.0,0.0,0.0,0.0,0.0,0.0,0.0,0.0,0.0,0.0,0.0,0.0,0.0,0.0,0.0,0.0,0.0,0.0,0.0,0.0,0.0,0.0,0.0,0.0,0.0,0.0,0.0,0.0,0.0,0.0,0.0,0.0,0.0,0.0,0.0,0.0,0.0,0.0,0.0,0.0,0.0,0.0,0.0,0.0,0.0,0.0,0.0,0.0,0.0,0.0,0.0,0.0,0.0,0.0,0.0,0.0,0.0,0.0,0.0,0.0,0.0,0.0,0.0,0.0,0.0,0.0,0.0,0.0,0.0,0.0,0.0,0.0,0.0,0.0,0.0,0.0,0.0,0.0,0.0,0.0,0.0,0.0,0.0,0.0,0.0,0.0,0.0,0.0,0.0,0.0,0.0,0.0,0.0,0.0,0.0,0.0,0.0,0.0,0.0,0.0,0.0,0.0,0.0,0.0,0.0,-2.3106,-2.3208,-2.2964,-2.2468,-2.1232,-1.9545,0.0,0.0,0.0,0.0,0.0,0.0,0.0,0.0,0.0,0.0,0.0,0.0,0.0,0.0,0.0,0.0,0.0,0.0,0.0,0.0,0.0,0.0,0.0,0.0,0.0,0.0,0.0,0.0,0.0,0.0,0.0,0.0,0.0,0.0,0.0,0.0,0.0,0.0,0.0,0.0,0.0,0.0,0.0,0.0,0.0,0.0,0.0,0.0,0.0,0.0,0.0,0.0,0.0,0.0,0.0,0.0,0.0,0.0,0.0,0.0,0.0,0.0,0.0,0.0,0.0,0.0,0.0,0.0,0.0,0.0,0.0,0.0,0.0,0.0,0.0,0.0,0.0,0.0,0.0,0.0,0.0,0.0,0.0,0.0,0.0,0.0,0.0,0.0,0.0,0.0,0.0,0.0,0.0,0.0,0.0,0.0,0.0,0.0,0.0,0.0,0.0,0.0,0.0,0.0,0.0,0.0,0.0,0.0,-2.146,-2.4419,-2.5368,-2.5652,-2.5264,-2.3017,-2.0667,0.0,0.0,0.0,0.0,0.0,0.0,0.0,0.0,0.0,0.0,0.0,0.0,0.0,0.0,0.0,0.0,0.0,0.0,0.0,0.0,0.0,0.0,0.0,0.0,0.0,0.0,0.0,0.0,0.0,0.0,0.0,0.0,0.0,0.0,0.0,0.0,0.0,0.0,0.0,0.0,0.0,0.0,0.0,0.0,0.0,0.0,0.0,0.0,0.0,0.0,0.0,0.0,0.0,0.0,0.0,0.0,0.0,0.0,0.0,0.0,0.0,0.0,0.0,0.0,0.0,0.0,0.0,0.0,0.0,0.0,0.0,0.0,0.0,0.0,0.0,0.0,0.0,0.0,0.0,0.0,0.0,0.0,0.0,0.0,0.0,0.0,0.0,0.0,0.0,0.0,0.0,0.0,0.0,0.0,0.0,0.0,0.0,0.0,0.0,0.0,0.0,0.0,0.0,0.0,0.0,0.0,0.0,0.0,-2.262,-2.5172,-2.6867,-2.7798,-2.7793,-2.4985,-2.1828,0.0,0.0,0.0,0.0,0.0,0.0,0.0,0.0,0.0,0.0,0.0,0.0,0.0,0.0,0.0,0.0,0.0,0.0,0.0,0.0,0.0,0.0,0.0,0.0,0.0,0.0,0.0,0.0,0.0,0.0,0.0,0.0,0.0,0.0,0.0,0.0,0.0,0.0,0.0,0.0,0.0,0.0,0.0,0.0,0.0,0.0,0.0,0.0,0.0,0.0,0.0,0.0,0.0,0.0,0.0,0.0,0.0,0.0,0.0,0.0,0.0,0.0,0.0,0.0,0.0,0.0,0.0,0.0,0.0,0.0,0.0,0.0,0.0,0.0,0.0,0.0,0.0,0.0,0.0,0.0,0.0,0.0,0.0,0.0,0.0,0.0,0.0,0.0,0.0,0.0,0.0,0.0,0.0,0.0,0.0,0.0,0.0,0.0,0.0,0.0,0.0,0.0,0.0,0.0,0.0,0.0,0.0,0.0,-2.3522,-2.6572,-2.7266,-2.7851,-2.839,-2.6121,-2.3271,0.0,0.0,0.0,0.0,0.0,0.0,0.0,0.0,0.0,0.0,0.0,0.0,0.0,0.0,0.0,0.0,0.0,0.0,0.0,0.0,0.0,0.0,0.0,0.0,0.0,0.0,0.0,0.0,0.0,0.0,0.0,0.0,0.0,0.0,0.0,0.0,0.0,0.0,0.0,0.0,0.0,0.0,0.0,0.0,0.0,0.0,0.0,0.0,-0.9108,0.0,0.0,0.0,0.0,0.0,0.0,0.0,0.0,0.0,0.0,0.0,0.0,0.0,0.0,0.0,0.0,0.0,0.0,0.0,0.0,0.0,0.0,0.0,0.0,0.0,0.0,0.0,0.0,0.0,0.0,0.0,0.0,0.0,0.0,0.0,0.0,0.0,0.0,0.0,0.0,0.0,0.0,0.0,0.0,0.0,0.0,0.0,0.0,0.0,0.0,0.0,0.0,0.0,0.0,0.0,0.0,0.0,0.0,0.0,-2.4003,-2.681,-2.7965,-2.8637,-2.8856,-2.7133,-2.4447,0.0,0.0,0.0,0.0,0.0,0.0,0.0,0.0,0.0,0.0,0.0,0.0,0.0,0.0,0.0,0.0,0.0,0.0,0.0,0.0,0.0,0.0,0.0,0.0,0.0,0.0,0.0,0.0,0.0,0.0,0.0,0.0,0.0,0.0,0.0,0.0,0.0,0.0,0.0,0.0,0.0,0.0,0.0,0.0,0.0,0.0,0.0,0.0,0.0,0.0,0.0,0.0,0.0,0.0,0.0,0.0,0.0,0.0,0.0,0.0,0.0,0.0,0.0,0.0,0.0,0.0,0.0,0.0,0.0,0.0,0.0,0.0,0.0,0.0,0.0,0.0,0.0,0.0,0.0,0.0,0.0,0.0,0.0,0.0,0.0,0.0,0.0,0.0,0.0,0.0,0.0,0.0,0.0,0.0,0.0,0.0,0.0,0.0,0.0,0.0,0.0,0.0,0.0,0.0,0.0,0.0,0.0,-2.1422,-2.4322,-2.6926,-2.8645,-2.949,-2.9372,-2.7879,-2.5243,-2.1423,0.0,0.0,0.0,0.0,0.0,0.0,0.0,0.0,0.0,0.0,0.0,0.0,0.0,0.0,0.0,0.0,0.0,0.0,0.0,0.0,0.0,0.0,0.0,0.0,0.0,0.0,0.0,0.0,0.0,0.0,0.0,0.0,0.0,0.0,0.0,0.0,0.0,0.0,-0.7861,-0.8618,0.0,0.0,0.0,0.0,0.0,0.0,0.0,0.0,-0.9626,0.0,0.0,0.0,0.0,0.0,0.0,0.0,0.0,0.0,0.0,0.0,0.0,0.0,0.0,0.0,0.0,0.0,0.0,0.0,0.0,0.0,0.0,0.0,0.0,0.0,0.0,0.0,0.0,0.0,0.0,0.0,0.0,0.0,0.0,0.0,0.0,0.0,0.0,0.0,0.0,0.0,0.0,0.0,0.0,0.0,0.0,0.0,0.0,0.0,0.0,0.0,0.0,0.0,0.0,0.0,0.0,-1.8841,-2.1512,-2.4632,-2.8185,-2.8858,-2.9402,-2.9796,-2.7904,-2.5208,-2.1773,0.0,0.0,0.0,0.0,0.0,0.0,0.0,0.0,0.0,0.0,0.0,0.0,0.0,0.0,0.0,0.0,0.0,0.0,0.0,0.0,0.0,0.0,0.0,0.0,0.0,0.0,0.0,0.0,0.0,0.0,0.0,0.0,0.0,0.0,0.0,0.0,0.0,0.0,0.0,-1.0289,-1.1005,0.0,0.0,0.0,0.0,0.0,0.0,0.0,0.0,-1.099,0.0,0.0,0.0,0.0,0.0,0.0,0.0,0.0,0.0,0.0,0.0,0.0,0.0,0.0,0.0,0.0,0.0,0.0,0.0,0.0,0.0,0.0,0.0,0.0,0.0,0.0,0.0,0.0,0.0,0.0,0.0,0.0,0.0,0.0,0.0,0.0,0.0,0.0,0.0,0.0,0.0,0.0,0.0,0.0,0.0,0.0,0.0,0.0,0.0,0.0,0.0,0.0,0.0,0.0,0.0,-1.879,-2.2007,-2.5167,-2.8247,-2.9458,-2.9924,-2.9706,-2.8067,-2.5387,0.0,0.0,0.0,0.0,0.0,0.0,0.0,0.0,0.0,0.0,0.0,0.0,0.0,0.0,0.0,0.0,0.0,0.0,0.0,0.0,0.0,0.0,0.0,0.0,0.0,0.0,0.0,0.0,0.0,0.0,0.0,0.0,0.0,0.0,0.0,0.0,0.0,0.0,0.0,0.0,-1.0544,-1.1291,-1.2273,0.0,0.0,0.0,0.0,0.0,0.0,-1.2406,-1.1783,0.0,0.0,0.0,0.0,0.0,0.0,0.0,0.0,0.0,0.0,0.0,0.0,0.0,0.0,0.0,0.0,0.0,0.0,0.0,0.0,0.0,0.0,0.0,0.0,0.0,0.0,0.0,0.0,0.0,0.0,0.0,0.0,0.0,0.0,0.0,0.0,0.0,0.0,0.0,0.0,0.0,0.0,0.0,0.0,0.0,0.0,0.0,0.0,0.0,0.0,0.0,0.0,0.0,0.0,0.0,-1.8949,-2.2513,-2.5593,-2.8168,-2.9868,-3.0317,-2.9386,-2.8071,-2.5367,0.0,0.0,0.0,0.0,0.0,0.0,0.0,0.0,0.0,0.0,0.0,0.0,0.0,0.0,0.0,0.0,0.0,0.0,0.0,0.0,0.0,0.0,0.0,0.0,0.0,0.0,0.0,0.0,0.0,0.0,0.0,0.0,0.0,0.0,0.0,0.0,0.0,0.0,0.0,0.0,0.0,-1.1588,-1.2807,-1.3172,0.0,0.0,0.0,0.0,-1.3457,-1.3097,0.0,0.0,0.0,0.0,0.0,0.0,0.0,0.0,0.0,0.0,0.0,0.0,0.0,0.0,0.0,0.0,0.0,0.0,0.0,0.0,0.0,0.0,0.0,0.0,0.0,0.0,0.0,0.0,0.0,0.0,0.0,0.0,0.0,0.0,0.0,0.0,0.0,0.0,0.0,0.0,0.0,0.0,0.0,0.0,0.0,0.0,0.0,0.0,0.0,0.0,0.0,0.0,0.0,0.0,0.0,0.0,-2.0062,-2.2585,-2.5427,-2.8485,-2.9597,-2.9743,-2.8996,-2.7674,-2.4751,0.0,0.0,0.0,0.0,0.0,0.0,0.0,0.0,0.0,0.0,0.0,0.0,0.0,0.0,0.0,0.0,0.0,0.0,0.0,0.0,0.0,0.0,0.0,0.0,0.0,0.0,0.0,0.0,0.0,0.0,0.0,0.0,0.0,0.0,0.0,0.0,0.0,0.0,0.0,0.0,0.0,-1.3042,-1.3844,-1.4803,-1.55,0.0,0.0,-1.5499,-1.5329,-1.4099,0.0,0.0,0.0,0.0,0.0,0.0,0.0,0.0,0.0,0.0,0.0,0.0,0.0,0.0,0.0,0.0,0.0,0.0,0.0,0.0,0.0,0.0,0.0,0.0,0.0,0.0,0.0,0.0,0.0,0.0,0.0,0.0,0.0,0.0,0.0,0.0,0.0,0.0,0.0,0.0,0.0,0.0,0.0,0.0,0.0,0.0,0.0,0.0,0.0,0.0,0.0,0.0,0.0,0.0,0.0,-1.7502,-2.0136,-2.319,-2.5914,-2.8235,-2.9609,-2.9721,-2.8607,-2.7259,-2.4543,0.0,0.0,0.0,0.0,0.0,0.0,0.0,0.0,0.0,0.0,0.0,0.0,0.0,0.0,0.0,0.0,0.0,0.0,0.0,0.0,0.0,0.0,0.0,0.0,0.0,0.0,0.0,0.0,0.0,0.0,0.0,0.0,0.0,0.0,0.0,0.0,0.0,0.0,0.0,0.0,0.0,0.0,-1.5092,-1.5964,0.0,0.0,0.0,-1.67,-1.6291,0.0,0.0,0.0,0.0,0.0,0.0,0.0,0.0,0.0,0.0,0.0,0.0,0.0,0.0,0.0,0.0,0.0,0.0,0.0,0.0,0.0,0.0,0.0,0.0,0.0,0.0,0.0,0.0,0.0,0.0,0.0,0.0,0.0,0.0,0.0,0.0,0.0,0.0,0.0,0.0,0.0,0.0,0.0,0.0,0.0,0.0,0.0,0.0,0.0,0.0,0.0,0.0,0.0,0.0,0.0,0.0,0.0,-2.0131,-2.3551,-2.6131,-2.7818,-2.9419,-2.9551,-2.8184,-2.6842,0.0,0.0,0.0,0.0,0.0,0.0,0.0,0.0,0.0,0.0,0.0,0.0,0.0,0.0,0.0,0.0,0.0,0.0,0.0,0.0,0.0,0.0,0.0,0.0,0.0,0.0,0.0,-0.3966,0.0,0.0,0.0,0.0,0.0,0.0,0.0,0.0,0.0,0.0,0.0,0.0,0.0,0.0,-1.4393,-1.6025,-1.6888,-1.7581,0.0,0.0,-1.7688,-1.7231,-1.63,-1.5223,0.0,0.0,0.0,0.0,0.0,0.0,0.0,0.0,0.0,0.0,0.0,0.0,0.0,0.0,0.0,0.0,0.0,0.0,0.0,0.0,0.0,0.0,0.0,0.0,0.0,0.0,0.0,0.0,0.0,0.0,0.0,0.0,0.0,0.0,0.0,0.0,0.0,0.0,0.0,0.0,0.0,0.0,0.0,0.0,0.0,0.0,0.0,0.0,0.0,0.0,0.0,0.0,0.0,0.0,-1.756,-2.0449,-2.3286,-2.5629,-2.7426,-2.8838,-2.8973,-2.7778,-2.6351,-2.3883,0.0,0.0,0.0,0.0,0.0,0.0,0.0,0.0,0.0,0.0,0.0,0.0,0.0,0.0,0.0,0.0,0.0,0.0,0.0,0.0,0.0,0.0,0.0,0.0,0.0,0.0,0.0,0.0,0.0,0.0,0.0,0.0,0.0,0.0,0.0,0.0,0.0,0.0,0.0,0.0,0.0,-1.5073,-1.6207,-1.7656,-1.8786,0.0,-1.8934,-1.8549,-1.8419,-1.6676,-1.5277,-1.5015,0.0,0.0,0.0,0.0,0.0,0.0,0.0,0.0,0.0,0.0,0.0,0.0,0.0,0.0,0.0,0.0,0.0,0.0,0.0,0.0,0.0,0.0,0.0,0.0,0.0,0.0,0.0,0.0,0.0,0.0,0.0,0.0,0.0,0.0,0.0,0.0,0.0,0.0,0.0,0.0,0.0,0.0,0.0,0.0,0.0,0.0,0.0,0.0,0.0,0.0,0.0,0.0,0.0,-1.7319,-2.0189,-2.3049,-2.53,-2.6918,-2.8379,-2.8516,-2.729,-2.6333,-2.435,0.0,0.0,0.0,0.0,0.0,0.0,0.0,0.0,0.0,0.0,0.0,0.0,0.0,0.0,0.0,0.0,0.0,0.0,0.0,0.0,0.0,0.0,0.0,0.0,0.0,0.0,0.0,0.0,-0.5507,-0.5867,-0.5929,0.0,0.0,0.0,0.0,0.0,0.0,0.0,0.0,0.0,0.0,-1.6057,-1.7502,-1.8466,0.0,0.0,-1.9596,-1.9249,-1.8823,-1.7691,-1.6496,-1.53,-1.3917,0.0,0.0,0.0,0.0,0.0,0.0,0.0,0.0,0.0,0.0,0.0,0.0,0.0,0.0,0.0,0.0,0.0,0.0,0.0,0.0,0.0,0.0,0.0,0.0,0.0,0.0,0.0,0.0,0.0,0.0,0.0,0.0,0.0,0.0,0.0,0.0,0.0,0.0,0.0,0.0,0.0,0.0,0.0,0.0,0.0,0.0,0.0,0.0,0.0,0.0,0.0,0.0,-1.7119,-1.9925,-2.2751,-2.4937,-2.6541,-2.7938,-2.8171,-2.7133,-2.6255,-2.4523,0.0,0.0,0.0,0.0,0.0,0.0,0.0,0.0,0.0,0.0,0.0,0.0,0.0,0.0,0.0,0.0,0.0,0.0,0.0,0.0,0.0,0.0,0.0,0.0,0.0,0.0,0.0,0.0,-0.5767,-0.5974,-0.5904,0.0,0.0,0.0,0.0,0.0,0.0,0.0,0.0,0.0,0.0,-1.6796,-1.8422,-1.9214,-1.9831,-2.0392,-2.0155,-1.9782,-1.9137,-1.834,-1.7286,-1.5756,0.0,0.0,0.0,0.0,0.0,0.0,0.0,0.0,0.0,0.0,0.0,0.0,0.0,0.0,0.0,0.0,0.0,0.0,0.0,0.0,0.0,0.0,0.0,0.0,0.0,0.0,0.0,-1.1304,0.0,0.0,-1.0105,0.0,0.0,0.0,0.0,0.0,0.0,0.0,0.0,0.0,0.0,0.0,0.0,0.0,0.0,0.0,0.0,0.0,0.0,0.0,0.0,0.0,0.0,-1.6946,-1.9792,-2.2404,-2.4563,-2.6153,-2.7546,-2.7931,-2.7303,-2.6026,-2.4307,-2.2103,0.0,0.0,0.0,0.0,0.0,0.0,0.0,0.0,0.0,0.0,0.0,0.0,0.0,0.0,0.0,0.0,0.0,0.0,0.0,0.0,0.0,0.0,0.0,0.0,0.0,0.0,-0.6212,-0.6412,-0.6339,0.0,0.0,0.0,0.0,0.0,0.0,0.0,0.0,0.0,-1.339,-1.5303,-1.7163,-1.8667,-1.9734,-2.0515,-2.1095,-2.0586,-1.9996,-1.9463,-1.835,-1.7247,0.0,0.0,0.0,0.0,0.0,0.0,0.0,0.0,0.0,0.0,0.0,0.0,0.0,0.0,0.0,0.0,0.0,0.0,0.0,0.0,0.0,0.0,0.0,0.0,0.0,0.0,0.0,-1.2647,-1.2179,0.0,0.0,0.0,0.0,0.0,0.0,0.0,0.0,0.0,0.0,0.0,-1.8117,-1.7002,0.0,0.0,0.0,0.0,0.0,0.0,0.0,0.0,0.0,0.0,0.0,0.0,-1.7228,-1.9626,-2.2323,-2.4416,-2.5894,-2.7339,-2.7783,-2.7113,-2.626,-2.4313,-2.1273,0.0,0.0,0.0,0.0,0.0,0.0,0.0,0.0,0.0,0.0,0.0,0.0,0.0,0.0,0.0,0.0,0.0,0.0,0.0,0.0,0.0,0.0,0.0,0.0,0.0,-0.6128,0.0,0.0,0.0,0.0,0.0,0.0,0.0,0.0,0.0,0.0,-1.1525,-1.3275,-1.4665,-1.6266,-1.7786,-1.9056,-1.9855,-2.0472,0.0,0.0,0.0,0.0,0.0,0.0,0.0,0.0,0.0,0.0,0.0,0.0,0.0,-1.2752,-1.2019,-1.0483,-0.9864,-0.951,-0.9426,0.0,0.0,0.0,0.0,0.0,0.0,0.0,0.0,0.0,0.0,0.0,0.0,0.0,0.0,-1.4898,-1.4153,-1.3844,0.0,0.0,0.0,0.0,0.0,0.0,0.0,0.0,-1.7507,-1.871,-2.011,-1.9387,-1.8887,-1.8675,-1.8079,-1.6417,0.0,0.0,0.0,0.0,0.0,0.0,0.0,0.0,-1.7578,-1.9515,-2.2426,-2.4552,-2.5953,-2.7206,-2.7644,-2.7206,-2.6089,-2.4219,-2.1386,-1.9379,-1.7264,0.0,0.0,0.0,0.0,0.0,0.0,0.0,0.0,0.0,0.0,0.0,0.0,0.0,0.0,0.0,0.0,0.0,0.0,0.0,0.0,0.0,0.0,0.0,-0.6787,0.0,0.0,0.0,0.0,0.0,0.0,0.0,0.0,0.0,-1.0893,-1.2512,-1.4205,-1.5769,-1.714,-1.8373,-1.9411,0.0,0.0,0.0,0.0,0.0,0.0,0.0,-1.9449,-1.8276,-1.8176,-1.7882,-1.6808,-1.6214,-1.5645,-1.4943,0.0,0.0,-1.26,-1.2043,-1.1817,-1.1713,-1.1511,-1.1449,-1.1839,-1.1664,-1.1495,0.0,0.0,0.0,0.0,-1.6628,0.0,0.0,0.0,-1.8248,-1.8046,0.0,-1.6477,0.0,0.0,0.0,0.0,-1.5697,-1.5764,0.0,0.0,-2.0086,-2.081,-2.1998,-2.1903,-2.1744,-2.1499,-2.0415,-1.9452,-1.8512,-1.556,0.0,0.0,0.0,0.0,0.0,0.0,-1.7977,-1.9421,-2.2629,-2.4954,-2.624,-2.7135,-2.756,-2.7535,-2.5704,-2.4,-2.2545,-2.0581,-1.8517,-1.6366,-1.487,0.0,0.0,0.0,0.0,0.0,0.0,0.0,0.0,0.0,0.0,0.0,0.0,0.0,0.0,0.0,0.0,0.0,0.0,0.0,0.0,-0.7286,0.0,0.0,0.0,0.0,0.0,0.0,0.0,0.0,0.0,-1.1858,-1.2206,-1.3499,-1.5022,-1.6605,0.0,0.0,0.0,0.0,-2.0702,-2.0801,-2.0596,-2.03,-1.9835,-2.0028,-1.9976,-1.9392,0.0,0.0,-1.8291,-1.7821,-1.7338,-1.6553,-1.6448,-1.5947,-1.459,-1.4509,-1.4649,-1.4684,-1.437,-1.4173,-1.4131,-1.3765,-1.3549,-2.271,0.0,0.0,0.0,0.0,-1.9611,-2.0065,-2.0053,-2.1304,-2.1003,-1.9656,-1.9399,0.0,0.0,0.0,0.0,0.0,0.0,-2.0094,-2.2378,-2.2429,-2.2832,-2.3558,-2.3481,-2.329,-2.2981,-2.2469,-2.1716,-2.0702,-1.9541,-1.7468,-1.4584,0.0,0.0,0.0,0.0,-1.8809,-1.9522,-2.2643,-2.4923,-2.6287,-2.7135,-2.735,-2.6886,-2.6251,-2.501,-2.3156,-2.1896,-2.0262,-1.8143,-1.6188,0.0,0.0,0.0,0.0,0.0,0.0,0.0,0.0,0.0,0.0,0.0,0.0,0.0,0.0,0.0,0.0,0.0,0.0,0.0,-0.8054,-0.8572,-0.8869,0.0,0.0,0.0,0.0,0.0,0.0,0.0,0.0,0.0,-1.4357,-1.513,-1.5934,0.0,0.0,-1.9306,-2.0112,-2.0675,-2.1163,-2.1655,-2.1564,0.0,-2.124,-2.1215,-2.1163,-2.1209,-2.1071,-2.0726,-2.0198,-1.9609,-1.908,-1.8546,-1.8473,-1.8223,-1.7674,-1.6655,-1.6028,-1.6135,-1.5984,-1.5782,-1.5922,-1.5686,-1.547,-2.6691,-2.5023,-2.23,-2.1079,-2.1116,-2.2162,-2.2571,-2.2558,-2.3612,-2.3355,-2.2124,-2.207,-2.1277,-2.0022,-1.99,0.0,0.0,0.0,-2.2564,-2.4695,-2.4695,-2.519,-2.5983,-2.5914,-2.5706,-2.5389,-2.4491,-2.3702,-2.3033,-2.1991,-2.039,-1.8248,0.0,-1.7261,-1.751,-1.8877,-1.9711,-2.0142,-2.3113,-2.542,-2.6778,-2.7323,-2.738,-2.6991,-2.6385,-2.5408,-2.4146,-2.2732,-2.1137,-1.928,-1.7585,-1.5694,0.0,0.0,0.0,0.0,0.0,0.0,0.0,0.0,0.0,0.0,0.0,-0.483,-0.5223,0.0,0.0,0.0,-0.7817,-0.8704,-0.9335,-0.9647,0.0,0.0,0.0,0.0,0.0,0.0,0.0,-1.252,-1.3625,-1.4676,-1.5595,-1.643,-1.7168,-1.7811,-1.8721,-1.9706,-2.0631,0.0,-2.138,-2.1804,-2.1945,-2.1996,-2.2006,-2.2254,-2.2524,-2.2692,-2.238,-2.2033,-2.1481,-2.0835,-2.0273,-1.9915,-1.9669,-1.9459,-1.9466,-1.846,-1.7697,-1.7792,-1.7498,-1.7332,-1.7449,-1.7245,-1.6988,-3.062,-3.0157,-2.63,-2.4545,-2.4345,-2.4918,-2.5141,-2.5129,-2.5667,-2.5429,-2.469,-2.4594,-2.4051,-2.3172,-2.2966,0.0,-2.3896,-2.3808,-2.4913,-2.6894,-2.6911,-2.757,-2.8757,-2.859,-2.84,-2.8174,-2.6383,-2.5461,-2.5281,-2.3475,-2.2424,-2.2139,-1.9974,-1.9102,-1.9583,-2.0233,-2.0699,-2.1051,-2.3834,-2.6008,-2.7472,-2.7542,-2.755,-2.752,-2.6113,-2.5349,-2.5165,-2.3228,-2.1427,-2.0024,-1.8979,-1.7306,-1.485,0.0,0.0,0.0,0.0,0.0,0.0,0.0,0.0,0.0,0.0,0.0,0.0,0.0,0.0,0.0,-0.9426,0.0,-1.0646,-1.0686,0.0,0.0,0.0,-1.1295,-1.2025,-1.2421,-1.2978,-1.3831,0.0,0.0,-1.6213,-1.7416,-1.8504,-1.923,-1.9533,-2.0041,-2.1167,-2.1398,-2.1431,-2.1762,-2.2193,-2.2499,-2.2608,-2.3177,-2.3697,-2.3801,-2.351,-2.3053,-2.2469,-2.1704,-2.1202,-2.08,-2.0292,-1.9971,-2.0158,-1.986,-1.9675,-1.9281,-1.9058,-1.8816,-1.8617,-1.8365,-1.8191,-3.139,-3.1223,-3.0099,-2.8839,-2.7682,-2.8214,-2.8425,-2.8398,-2.8963,-2.8805,-2.8028,-2.783,-2.7233,-2.6311,-2.6191,-2.653,-2.7156,-2.7091,-2.7572,-2.8507,-2.8541,-2.8621,-2.8794,-2.8716,-2.8565,-2.8301,-2.7643,-2.7146,-2.6814,-2.5538,-2.4539,-2.381,-2.247,-2.1491,-2.0956,-2.1521,-2.1662,-2.1322,-2.354,-2.5403,-2.6781,-2.6864,-2.6811,-2.6811,-2.5827,-2.5032,-2.4543,-2.3641,-2.2529,-2.1154,-1.9726,-1.8149,-1.643,-1.4654,0.0,0.0,0.0,0.0,0.0,0.0,0.0,0.0,0.0,-0.7339,-0.7659,0.0,-0.9081,0.0,-1.0673,-1.1588,-1.2224,-1.2246,0.0,0.0,-1.2733,-1.3119,-1.3629,-1.4327,-1.4845,-1.5034,-1.6145,-1.6883,-1.7121,-1.8021,-1.8947,-1.9687,-2.0032,-2.0529,-2.1229,-2.186,-2.2349,-2.2854,-2.3372,-2.3718,-2.3906,-2.4274,-2.4444,-2.4349,-2.4148,-2.3795,-2.3443,-2.2746,-2.2051,-2.1973,-2.1253,-2.0766,-2.0748,-2.0416,-2.0129,-2.0043,-1.9847,-1.9667,-1.9577,-1.9208,-1.8928,-3.2693,-3.2612,-3.2389,-3.1772,-3.0917,-3.0405,-3.0132,-3.0084,-3.0398,-3.019,-2.9722,-2.9528,-2.9127,-2.8603,-2.8395,-2.8506,-2.8818,-2.8733,-2.904,-2.9687,-2.9668,-2.9765,-2.9922,-2.9825,-2.9688,-2.9397,-2.8843,-2.8339,-2.7959,-2.691,-2.5879,-2.4989,-2.4311,-2.3459,-2.2506,-2.2497,-2.2473,-2.2405,-2.3926,-2.5211,-2.6108,-2.6153,-2.6105,-2.6027,-2.5227,-2.4631,-2.42,-2.3522,-2.2626,-2.1536,-2.0422,-1.9042,-1.7422,-1.5928,-1.4424,0.0,0.0,0.0,0.0,0.0,0.0,0.0,0.0,0.0,0.0,0.0,-1.0754,-1.1596,-1.2325,-1.2998,-1.3507,-1.3667,-1.3793,-1.4007,-1.441,-1.4743,-1.5102,-1.5863,-1.6412,-1.6412,-1.7185,-1.7726,-1.7877,-1.8495,-1.9117,-1.9601,-2.0033,-2.0676,-2.1546,-2.2105,-2.265,-2.3349,-2.3908,-2.4384,-2.474,-2.4884,-2.489,-2.4671,-2.4374,-2.411,-2.3841,-2.3057,-2.2441,-2.2353,-2.1731,-2.1105,-2.0997,-2.0736,-2.0473,-2.0292,-2.0201,-2.0019,-1.9936,-1.9654,-1.9471,-3.3972,-3.3868,-3.3698,-3.3605,-3.3486,-3.189,-3.1189,-3.1103,-3.0957,-3.085,-3.0724,-3.0543,-3.0434,-3.0352,-3.0055,-2.9868,-2.9834,-2.9747,-2.9983,-3.0583,-3.06,-3.0851,-3.1317,-3.1252,-3.1072,-3.074,-2.988,-2.928,-2.8929,-2.7907,-2.6915,-2.6041,-2.5663,-2.5019,-2.4018,-2.3333,-2.3188,-2.361,-2.4522,-2.5167,-2.5465,-2.548,-2.5433,-2.5263,-2.4576,-2.4099,-2.3946,-2.3086,-2.2267,-2.1605,-2.0996,-1.9925,-1.8261,-1.7128,-1.5997,0.0,-1.3924,0.0,0.0,0.0,0.0,0.0,0.0,0.0,0.0,-1.1416,-1.2599,-1.3807,-1.4097,-1.4359,-1.4668,-1.4951,-1.5177,-1.5482,-1.5882,-1.6215,-1.6523,-1.7156,-1.7568,-1.7578,-1.7935,-1.8267,-1.8406,-1.875,-1.9086,-1.9373,-1.985,-2.0596,-2.1729,-2.2247,-2.2659,-2.3265,-2.4051,-2.4566,-2.4946,-2.5073,-2.4999,-2.4775,-2.4348,-2.4024,-2.3754,-2.2969,-2.2441,-2.2362,-2.183,-2.1383,-2.1096,-2.0835,-2.0654,-2.0382,-2.0292,-2.0201,-2.0027,-1.9928,-1.9745,-3.3972,-3.3868,-3.3753,-3.3643,-3.3569,-3.3182,-3.2958,-3.2811,-3.2703,-3.2563,-3.2438,-3.2311,-3.2183,-3.1949,-3.1881,-3.176,-3.1602,-3.1584,-3.1565,-3.1631,-3.1576,-3.1517,-3.1542,-3.1291,-3.1151,-3.1072,-3.0542,-3.0145,-2.9891,-2.8775,-2.8072,-2.764,-2.671,-2.5826,-2.5124,0.0,0.0,0.0,-2.4507,-2.4942,-2.4761,-2.4761,-2.473,-2.4639,-2.3911,0.0,-2.3123,-2.2795,-2.236,-2.1909,-2.1125,0.0,0.0,0.0,0.0,0.0,0.0,0.0,0.0,0.0,0.0,0.0,-1.3243,-1.2741,-1.1774,-1.3002,-1.4202,-1.4961,-1.5274,-1.5587,-1.5866,-1.6083,-1.6299,-1.6591,-1.6917,-1.7321,-1.7724,-1.7733,-1.7723,-1.7926,-1.8254,-1.8492,-1.8614,-1.9012,-1.934,-1.9506,-1.9668,-2.0174,-2.1192,-2.1863,-2.2563,-2.3318,-2.4,-2.447,-2.4659,-2.4529,-2.4454,-2.4282,-2.3927,-2.358,-2.3309,-2.2979,-2.2549,-2.2283,-2.1919,-2.1571,-2.1311,-2.0934,-2.0654,-2.0382,-2.0292,-2.0292,-2.0201,-2.0019,-1.9837,-3.3972,-3.3895,-3.3753,-3.3671,0.0,-3.3549,-3.3452,-3.3393,-3.3244,-3.3122,-3.3011,-3.2884,-3.2755,-3.2641,-3.2507,-3.2405,-3.2301,-3.2232,-3.2126,-3.2055,-3.2001,-3.1893,-3.1691,-3.1576,-3.1385,-3.119,-3.0895,-3.0609,-3.0342,-2.9615,-2.8897,-2.8299,-2.7598,-2.6787,-2.5916,-2.5515,-2.4732,-2.361,-2.4058,-2.4252,-2.4118,-2.4118,-2.4045,-2.3926,-2.3511,0.0,0.0,0.0,0.0,0.0,0.0,0.0,0.0,-1.905,-1.8274,-1.7591,-1.6983,-1.642,-1.5913,-1.5695,-1.5393,-1.49,-1.4999,-1.473,-1.3729,-1.4636,-1.5419,-1.5945,-1.6215,-1.6436,-1.6769,-1.6915,-1.7116,-1.7468,-1.7862,-1.8183,-1.8394,-1.8492,-1.8515,-1.8705,-1.8793,-1.8912,-1.8999,-1.9164,-1.9292,-1.9469,-1.9469,-1.978,-2.0602,-2.139,-2.2237,-2.3313,-2.3755,-2.3993,-2.4166,-2.409,-2.4024,-2.3927,-2.358,-2.3309,-2.3135,-2.2706,-2.2362,-2.2195,-2.1919,-2.1651,-2.1401,-2.1114,-2.0727,-2.0564,-2.0382,-2.0292,-2.0292,-2.0201,-2.0027,-3.3947,-3.3895,-3.3762,-3.3698,-3.3698,-3.3577,-3.352,-3.3491,-3.3382,0.0,0.0,-3.3011,-3.2948,-3.2884,-3.269,-3.2574,-3.2541,-3.2438,-3.2353,-3.2284,-3.2249,-3.2126,-3.1893,-3.1837,-3.1651,-3.1308,-3.1112,-3.0895,-3.0551,-3.0231,-2.9621,-2.8785,-2.843,-2.7727,-2.6639,-2.6153,-2.5289,-2.4058,-2.3954,-2.3954,-2.3954,-2.391,-2.3822,-2.3659,-2.3614,-2.3449,-2.308,-2.2865,-2.2507,-2.2125,-2.1686,-2.1126,-2.0283,-1.9848,-1.9246,-1.8375,-1.7989,-1.7522,-1.6996,-1.6893,-1.6643,-1.6088,-1.6326,-1.6245,-1.5674,-1.6045,-1.6445,-1.6816,-1.69,-1.711,-1.7449,-1.758,-1.777,-1.8192,-1.8577,-1.8815,-1.8834,-1.9091,-1.9256,-1.9292,-1.9274,-1.9292,-1.9274,-1.9283,-1.9292,-1.9292,-1.9301,-1.9439,-2.0114,-2.1002,-2.2013,-2.3046,-2.3299,-2.3406,-2.3493,-2.3484,-2.358,-2.3493,-2.3222,-2.296,-2.2872,-2.252,-2.2176,-2.2008,-2.183,-2.1651,-2.1392,-2.1195,-2.0916,-2.0744,-2.0473,-2.0292,-2.0292,-2.0201,-2.0027,-3.3972,-3.3913,-3.3815,-3.3753,-3.3698,-3.3689,-3.3643,-3.3577,-3.3364,-3.331,-3.3262,-3.3135,-3.3042,-3.2997,-3.2948,-3.287,-3.274,-3.274,-3.2657,-3.2539,-3.2489,-3.2422,-3.2302,-3.202,-3.1839,-3.1688,-3.1329,-3.1055,-3.0764,-3.0418,-3.0031,-2.962,-2.9265,-2.8525,-2.7303,-2.6626,-2.6061,-2.5484,-2.5377,-2.5315,-2.533,-2.5222,-2.5082,-2.4926,-2.4784,-2.4636,-2.4261,-2.407,-2.3722,-2.3176,-2.2879,-2.2459,-2.1822,-2.146,-2.1037,-2.0433,-2.0061,-1.9608,-1.9033,-1.8644,-1.7974,-1.7093,-1.7169,-1.7012,-1.6611,-1.6953,-1.7217,-1.7305,-1.7322,-1.7555,-1.7953,-1.7998,-1.8174,-1.8595,-1.8981,-1.9219,-1.9191,-1.9256,-1.9292,-1.9292,-1.9292,-1.9292,-1.9292,-1.9292,-1.9292,-1.9292,-1.9292,-1.935,-1.9679,-2.0773,-2.1854,-2.229,-2.2511,-2.253,-2.2696,-2.2608,-2.2706,-2.2608,-2.2618,-2.2441,-2.2362,-2.2264,-2.2176,-2.183,-2.1731,-2.1651,-2.1383,-2.1186,-2.0997,-2.0744,-2.0473,-2.0292,-2.0292,-2.011,-1.9845,-3.3972,-3.3947,-3.3842,-3.378,-3.3753,-3.3726,-3.3643,-3.3605,-3.3509,-3.3452,-3.3452,-3.3364,-3.3268,-3.3214,-3.3183,-3.3091,-3.2948,-3.2948,-3.2916,-3.2802,-3.2755,-3.2623,-3.2457,-3.2267,-3.2037,-3.18,-3.1483,-3.1252,-3.0998,-3.0617,-3.0267,-3.0054,-2.956,-2.8948,-2.8326,-2.7752,-2.7363,-2.7222,-2.6225,-2.5661,-2.5615,-2.5458,-2.5349,-2.5206,-2.5077,-2.4863,-2.4533,-2.424,-2.3858,-2.3319,-2.3017,-2.2644,-2.2008,-2.1746,-2.1369,-2.0848,-2.0401,-1.9983,-1.9454,-1.8877,-1.8396,-1.7926,-1.7807,-1.7646,-1.7441,-1.7607,-1.7734,-1.7725,-1.7629,-1.7865,-1.8341,-1.8303,-1.8432,-1.8971,-1.9201,-1.9292,-1.9292,-1.9292,-1.9292,-1.9292,-1.9292,-1.9292,-1.9292,-1.9292,-1.9292,-1.9292,-1.9292,-1.927,-1.9335,-2.0081,-2.1043,-2.1776,-2.1926,-2.203,-2.2287,-2.2441,-2.2441,-2.2441,-2.2353,-2.2185,-2.2097,-2.2097,-2.1919,-2.1741,-2.1731,-2.1651,-2.1553,-2.1374,-2.1105,-2.0916,-2.0645,-2.0464,-2.0292,-2.0019,-1.9662,-3.3998,-3.3998,-3.386,-3.3807,-3.3788,-3.3753,-3.3698,-3.3643,-3.3661,-3.3661,-3.3615,-3.3549,-3.3509,-3.3452,-3.3364,-3.3274,-3.3196,-3.3147,-3.3104,-3.3011,-3.2948,-3.282,-3.259,-3.2473,-3.2232,-3.1893,-3.1671,-3.1445,-3.1173,-3.0855,-3.0551,-3.0267,-2.9722,-2.935,-2.9137,-2.8763,-2.8493,-2.8334,-2.702,-2.6253,-2.6096,-2.589,-2.576,-2.5648,-2.5531,-2.5235,-2.4897,-2.4614,-2.4173,-2.3647,-2.3366,-2.2931,-2.2352,-2.2027,-2.1617,-2.1144,-2.0688,-2.0167,-1.9565,-1.8987,-1.8582,-1.8519,-1.8212,-1.8076,-1.8008,-1.8008,-1.8008,-1.8008,-1.7774,-1.7954,-1.8379,-1.833,-1.848,-1.8935,-1.9127,-1.9146,-1.9164,-1.9246,-1.9292,-1.9292,-1.9292,-1.9292,-1.9292,-1.9292,-1.9292,-1.9292,-1.9292,-1.9252,-1.9309,-1.9579,-2.0182,-2.0987,-2.1276,-2.1481,-2.203,-2.2095,-2.2142,-2.2217,-2.2087,-2.2008,-2.2008,-2.183,-2.1741,-2.1731,-2.1731,-2.1651,-2.1651,-2.1472,-2.1195,-2.0997,-2.0736,-2.0473,-2.0119,-1.9754,-1.9387,-3.3998,-3.3972,-3.3842,-3.3807,-3.3807,-3.3807,-3.378,-3.378,-3.378,-3.3762,-3.3753,-3.3661,-3.3577,-3.3577,-3.3509,-3.3452,-3.3364,-3.3322,-3.3214,-3.3104,-3.3011,-3.2948,-3.2838,-3.259,-3.2405,-3.2144,-3.191,-3.1596,-3.1295,-3.1173,-3.0855,-3.0351,-2.9924,-2.9589,-2.9305,-2.9121,-2.8811,-2.8411,-2.8128,-2.7856,-2.761,-2.7259,-2.7041,-2.7004,-2.6732,-2.6486,-2.6083,-2.5887,-2.5438,-2.4898,-2.452,-2.4089,-2.3508,-2.3081,-2.2735,-2.2238,-2.177,-2.1095,-2.0094,-1.952,-1.9023,-1.8549,-1.8337,-1.8202,-1.8008,-1.8008,-1.8008,-1.8008,-1.7862,-1.7868,-1.8067,-1.8018,-1.8026,-1.8275,-1.8586,-1.877,-1.8806,-1.9091,-1.9292,-1.9292,-1.9228,-1.9292,-1.9256,-1.9274,-1.9292,-1.9292,-1.9292,-1.9311,-1.9295,-1.9332,-1.9558,-2.0099,-2.0421,-2.0789,-2.1139,-2.125,-2.1369,-2.1682,-2.1704,-2.164,-2.1594,-2.1667,-2.1722,-2.1621,-2.1731,-2.1731,-2.1553,-2.1365,-2.1096,-2.0907,-2.0645,-2.0201,-1.9762,-1.9296,-1.892,-3.3998,-3.3991,-3.3842,-3.3807,-3.3807,-3.3807,-3.3807,-3.3807,-3.3807,-3.3807,-3.3807,-3.3753,-3.3716,-3.3643,-3.3615,-3.3549,-3.3452,-3.3441,-3.3364,-3.3274,-3.3117,-3.3011,-3.2948,-3.269,-3.2456,-3.2214,-3.1965,-3.1709,-3.1406,-3.1151,-3.0814,-3.041,-3.0172,-2.9913,-2.9589,-2.9335,-2.9013,-2.87,-2.8429,-2.8201,-2.7905,-2.7437,-2.7167,-2.7181,-2.6937,-2.6621,-2.634,-2.6056,-2.5619,-2.5061,-2.4721,-2.4332,-2.3616,-2.339,-2.303,-2.2604,-2.18,-2.1031,-2.0172,-1.9594,-1.9085,-1.8539,-1.8337,-1.8212,-1.8008,-1.8008,-1.8008,-1.8008,-1.793,-1.7967,-1.8071,-1.8005,-1.804,-1.8119,-1.8275,-1.8366,-1.8366,-1.8513,-1.8595,-1.8614,-1.8806,-1.8953,-1.899,-1.9164,-1.9283,-1.9292,-1.9283,-1.9246,-1.9283,-1.9292,-1.9375,-1.954,-1.9714,-2.0063,-2.0594,-2.0759,-2.0851,-2.097,-2.1016,-2.1016,-2.1099,-2.1502,-2.1667,-2.141,-2.145,-2.1587,-2.1482,-2.1383,-2.1203,-2.0889,-2.0365,-1.9845,-1.9204,-1.8928,-1.858,-3.3998,-3.3972,-3.386,-3.3807,-3.3807,-3.3807,-3.3807,-3.3834,-3.3807,-3.3807,-3.3834,-3.3807,-3.378,-3.3726,-3.3698,-3.3633,-3.352,-3.3509,-3.347,-3.3364,-3.3196,-3.3055,-3.2965,-3.2737,-3.2472,-3.2197,-3.2037,-3.1819,-3.1479,-3.1112,-3.0814,-3.0609,-3.0401,-3.013,-2.9853,-2.956,-2.9259,-2.8967,-2.8621,-2.8314,-2.8054,-2.759,-2.7284,-2.7181,-2.6922,-2.6621,-2.6326,-2.6056,-2.5619,-2.5005,-2.4721,-2.4319,-2.3628,-2.3463,-2.3103,-2.2494,-2.1675,-2.0892,-2.0172,-1.966,-1.9152,-1.8549,-1.8405,-1.8279,-1.8076,-1.8008,-1.8008,-1.8008,-1.8008,-1.8017,-1.791,-1.7915,-1.7915,-1.7834,-1.7871,-1.7944,-1.7944,-1.8027,-1.8146,-1.8155,-1.8403,-1.855,-1.8586,-1.877,-1.8916,-1.8926,-1.8944,-1.8971,-1.8981,-1.8944,-1.8953,-1.899,-1.9054,-1.9494,-2.0182,-2.0356,-2.0374,-2.0512,-2.0576,-2.0594,-2.0521,-2.1099,-2.1374,-2.1007,-2.1186,-2.1171,-2.0905,-2.0889,-2.0722,-2.026,-1.9723,-1.9175,-1.8528,-1.8328,-1.7788,-3.3998,-3.3972,-3.3842,-3.3807,-3.3807,-3.3807,-3.3842,-3.3895,-3.3815,-3.3842,-3.3868,-3.3834,-3.3807,-3.3807,-3.3726,-3.3671,-3.3605,-3.352,-3.3422,-3.3292,-3.3183,-3.3024,-3.2916,-3.2705,-3.2472,-3.2214,-3.2091,-3.1873,-3.1517,-3.1134,-3.0935,-3.0871,-3.0609,-3.03,-3.0017,-2.9814,-2.9502,-2.9121,-2.8763,-2.8477,-2.8186,-2.7775,-2.7473,-2.7181,-2.6922,-2.6674,-2.634,-2.6056,-2.5605,-2.5005,-2.4721,-2.4274,-2.3675,-2.3463,-2.2982,-2.2049,-2.1474,-2.0892,-2.0172,-1.9791,-1.9274,-1.8617,-1.8482,-1.8347,-1.8076,-1.8008,-1.8008,-1.8008,-1.8008,-1.791,-1.7665,-1.7574,-1.7417,-1.7125,-1.733,-1.7495,-1.7532,-1.7807,-1.8082,-1.8073,-1.81,-1.8099,-1.8099,-1.8164,-1.819,-1.8199,-1.8154,-1.8181,-1.8227,-1.8247,-1.8265,-1.8339,-1.8568,-1.9017,-1.9751,-1.9952,-2.0118,-2.0218,-2.0255,-2.042,-2.0503,-2.0558,-2.0549,-2.0464,-2.0219,-2.0153,-2.0162,-1.9951,-1.9506,-1.9098,-1.86,-1.8057,-1.7718,-1.7017,-1.6426,-3.4049,-3.3921,-3.3895,-3.3868,-3.3887,-3.3913,-3.3947,-3.3972,-3.3947,-3.3947,-3.3947,-3.3895,-3.3868,-3.386,-3.3807,-3.3698,-3.3605,-3.352,-3.3422,-3.331,-3.3219,-3.306,-3.2866,-3.2636,-3.2403,-3.2197,-3.2108,-3.191,-3.15,-3.1151,-3.0975,-3.0935,-3.0749,-3.0526,-3.0316,-3.0017,-2.971,-2.9335,-2.8967,-2.859,-2.8235,-2.7875,-2.7524,-2.7218,-2.7026,-2.6727,-2.634,-2.6056,-2.5619,-2.5005,-2.4734,-2.4319,-2.3688,-2.315,-2.2678,-2.2123,-2.1549,-2.0892,-2.0183,-1.9791,-1.9274,-1.8617,-1.8482,-1.8327,-1.8076,-1.8008,-1.8008,-1.7998,-1.7998,-1.7872,-1.7657,-1.7529,-1.7392,-1.7204,-1.7097,-1.7138,-1.7138,-1.7257,-1.7348,-1.7376,-1.7487,-1.7605,-1.7721,-1.7755,-1.7764,-1.7764,-1.7821,-1.7859,-1.7877,-1.7961,-1.8073,-1.8119,-1.8247,-1.843,-1.8669,-1.9265,-1.9586,-1.965,-1.9714,-1.9714,-1.976,-1.9752,-1.9761,-1.9833,-1.954,-1.9327,-1.9433,-1.9195,-1.8683,-1.8194,-1.7676,-1.7179,-1.6896,-1.6235,-1.5644,-3.4074,-3.3965,-3.3921,-3.3939,-3.3947,-3.3998,-3.4067,-3.4049,-3.4049,-3.4049,-3.4049,-3.3972,-3.3921,-3.3895,-3.3815,-3.3707,-3.3605,-3.3549,-3.3404,-3.3262,-3.3219,-3.3046,-3.2802,-3.2619,-3.2385,-3.2161,-3.2001,-3.18,-3.1517,-3.123,-3.1078,-3.0975,-3.0855,-3.0651,-3.0468,-3.0189,-2.9842,-2.9531,-2.9152,-2.8685,-2.8268,-2.7989,-2.764,-2.7284,-2.7093,-2.6817,-2.634,-2.6056,-2.5619,-2.5061,-2.4734,-2.4319,-2.3628,-2.3042,-2.2567,-2.2197,-2.1561,-2.0812,-2.0028,-1.9555,-1.8982,-1.8203,-1.8051,-1.7919,-1.7598,-1.7598,-1.7598,-1.7607,-1.7754,-1.7735,-1.762,-1.7571,-1.7451,-1.7235,-1.7038,-1.6908,-1.6908,-1.6917,-1.6848,-1.6833,-1.6874,-1.7009,-1.716,-1.714,-1.7204,-1.7149,-1.7286,-1.7278,-1.7351,-1.7506,-1.7652,-1.767,-1.7752,-1.7834,-1.7952,-1.8379,-1.8738,-1.882,-1.9104,-1.9058,-1.9076,-1.9043,-1.9073,-1.9147,-1.902,-1.8745,-1.8545,-1.8322,-1.7957,-1.7352,-1.6831,-1.6282,-1.5864,-1.5409,-1.4856,-3.4074,-3.4016,-3.3998,-3.3998,-3.4023,-3.4099,-3.4148,-3.4179,-3.4148,-3.4148,-3.4197,-3.4074,-3.3972,-3.3895,-3.3842,-3.3726,-3.3633,-3.3587,-3.3433,-3.3135,-3.317,-3.2965,-3.2639,-3.2535,-3.2351,-3.2108,-3.1783,-3.1596,-3.1517,-3.1368,-3.1196,-3.1015,-3.0935,-3.0773,-3.051,-3.0231,-2.9886,-2.9621,-2.9198,-2.8748,-2.8381,-2.8152,-2.7755,-2.7269,-2.7137,-2.6834,-2.6283,-2.6042,-2.5619,-2.5048,-2.4681,-2.4247,-2.3487,-2.288,-2.2482,-2.1992,-2.1467,-2.0585,-1.9566,-1.9082,-1.8396,-1.759,-1.7239,-1.7183,-1.6968,-1.6801,-1.6801,-1.6934,-1.7168,-1.7373,-1.7432,-1.7494,-1.7472,-1.7235,-1.7038,-1.6978,-1.6908,-1.6908,-1.683,-1.6621,-1.6465,-1.6281,-1.6298,-1.6334,-1.6307,-1.6298,-1.6351,-1.644,-1.6466,-1.6678,-1.6684,-1.6747,-1.7062,-1.7279,-1.7352,-1.7523,-1.775,-1.8015,-1.8379,-1.8561,-1.8497,-1.8473,-1.8494,-1.8514,-1.8056,-1.7789,-1.7379,-1.7139,-1.673,-1.6237,-1.5726,-1.5318,-1.481,-1.4321,-1.403,-3.4124,-3.4074,-3.4124,-3.413,-3.4148,-3.4269,-3.4316,-3.4358,-3.4316,-3.4298,-3.4316,-3.4197,-3.4099,-3.4023,-3.3921,-3.3807,-3.3671,-3.3633,-3.3433,-3.3147,-3.3152,-3.2948,-3.2654,-3.2484,-3.2316,-3.2108,-3.1856,-3.1671,-3.1559,-3.1389,-3.1257,-3.1196,-3.1055,-3.0895,-3.0733,-3.0459,-3.0103,-2.9782,-2.938,-2.8982,-2.8573,-2.8284,-2.7925,-2.7479,-2.684,-2.6301,-2.5854,-2.587,-2.5605,-2.4978,-2.4345,-2.3497,-2.2495,-2.1823,-2.1372,-2.0961,-2.0414,-1.9814,-1.9072,-1.8588,-1.8051,-1.7367,-1.7211,-1.7044,-1.6728,-1.6636,-1.6636,-1.6646,-1.6865,-1.6934,-1.6938,-1.6986,-1.711,-1.7354,-1.7245,-1.7038,-1.6899,-1.6751,-1.6473,-1.614,-1.6,-1.5859,-1.563,-1.5559,-1.563,-1.563,-1.578,-1.5929,-1.6008,-1.6211,-1.6421,-1.6438,-1.6652,-1.6785,-1.6848,-1.6857,-1.7009,-1.7306,-1.7638,-1.7916,-1.7939,-1.7947,-1.7967,-1.7752,-1.7303,-1.6793,-1.6393,-1.6016,-1.5594,-1.5063,-1.467,-1.4167,-1.3709,-1.3371,-1.3168,-3.4269,-3.4221,-3.4245,-3.4293,-3.4316,-3.4409,-3.4495,-3.4517,-3.4498,-3.4514,-3.445,-3.434,-3.4221,-3.4124,-3.4042,-3.3887,-3.3753,-3.3671,-3.353,-3.3238,-3.3117,-3.2961,-3.2705,-3.2504,-3.2351,-3.2179,-3.1982,-3.1783,-3.1671,-3.1504,-3.1372,-3.1257,-3.1134,-3.1015,-3.0871,-3.0626,-3.0258,-2.9897,-2.956,-2.9041,-2.8373,-2.8011,-2.7585,-2.6861,-2.6292,-2.5756,-2.5358,-2.5374,-2.5031,-2.4395,-2.3579,-2.2659,-2.1827,-2.1325,-2.086,-2.0459,-1.9913,-1.9256,-1.8566,-1.8115,-1.7599,-1.6901,-1.6749,-1.6546,-1.6292,-1.6179,-1.625,-1.624,-1.6387,-1.6484,-1.648,-1.6619,-1.6778,-1.6949,-1.7067,-1.701,-1.676,-1.6482,-1.6202,-1.5867,-1.5718,-1.5434,-1.5213,-1.5196,-1.5133,-1.5133,-1.5355,-1.5647,-1.5726,-1.5938,-1.607,-1.6202,-1.6386,-1.6404,-1.6298,-1.6237,-1.6237,-1.6572,-1.689,-1.7184,-1.727,-1.7459,-1.7541,-1.7311,-1.6885,-1.6081,-1.5599,-1.5265,-1.4889,-1.4301,-1.3682,-1.3398,-1.3067,-1.2808,-1.2575,-3.4454,-3.4409,-3.4409,-3.4431,-3.4498,-3.458,-3.4645,-3.4687,-3.4706,-3.4666,-3.4602,-3.4473,-3.434,-3.4221,-3.4148,-3.3998,-3.3842,-3.3807,-3.3698,-3.3473,-3.3268,-3.3055,-3.2834,-3.2608,-3.2439,-3.2336,-3.2108,-3.1912,-3.1837,-3.1671,-3.1504,-3.1351,-3.1252,-3.1112,-3.0912,-3.0651,-3.0359,-3.0017,-2.9629,-2.886,-2.7842,-2.7504,-2.6887,-2.5843,-2.5615,-2.5304,-2.4888,-2.4453,-2.3955,-2.333,-2.2537,-2.1973,-2.1674,-2.1213,-2.0665,-2.0346,-1.9866,-1.8998,-1.8126,-1.7632,-1.7026,-1.6163,-1.6065,-1.573,-1.5606,-1.5596,-1.5596,-1.5586,-1.584,-1.6025,-1.6103,-1.6249,-1.631,-1.6241,-1.6587,-1.6633,-1.6533,-1.607,-1.5797,-1.5655,-1.5355,-1.5062,-1.4864,-1.4919,-1.4919,-1.4927,-1.4999,-1.5213,-1.5497,-1.5647,-1.5859,-1.6,-1.614,-1.6132,-1.607,-1.607,-1.6,-1.6095,-1.6393,-1.6506,-1.6637,-1.6789,-1.6704,-1.6497,-1.6178,-1.541,-1.4751,-1.4362,-1.3964,-1.339,-1.305,-1.2798,-1.2463,-1.2139,-1.1952,-3.4604,-3.4561,-3.4583,-3.4626,-3.4666,-3.4708,-3.4749,-3.4749,-3.4768,-3.4768,-3.4727,-3.4604,-3.4476,-3.4409,-3.4245,-3.4124,-3.4023,-3.3921,-3.3834,-3.368,-3.3577,-3.3238,-3.2948,-3.2773,-3.2626,-3.2473,-3.2336,-3.2196,-3.2018,-3.1837,-3.1634,-3.1462,-3.1329,-3.1157,-3.0975,-3.0773,-3.0485,-3.0064,-2.9335,-2.8682,-2.7955,-2.7261,-2.6698,-2.6153,-2.5379,-2.4881,-2.444,-2.3472,-2.2804,-2.2471,-2.1878,-2.1197,-2.0639,-2.0179,-1.9787,-1.934,-1.8829,-1.8227,-1.7599,-1.7148,-1.6618,-1.5992,-1.5823,-1.572,-1.542,-1.541,-1.541,-1.543,-1.5537,-1.5537,-1.5505,-1.5702,-1.577,-1.5753,-1.5987,-1.6133,-1.5974,-1.5788,-1.5434,-1.4999,-1.4784,-1.4569,-1.4418,-1.4425,-1.4489,-1.4569,-1.4713,-1.4919,-1.5213,-1.5434,-1.5647,-1.5797,-1.5938,-1.5867,-1.5867,-1.5867,-1.5867,-1.5876,-1.5953,-1.5988,-1.5985,-1.599,-1.5646,-1.5259,-1.512,-1.4492,-1.3866,-1.3326,-1.292,-1.2659,-1.2253,-1.1992,-1.1752,-1.1456,-1.1372,-3.4769,-3.467,-3.473,-3.4751,-3.4791,-3.4849,-3.4888,-3.4927,-3.4907,-3.4868,-3.4849,-3.4747,-3.4623,-3.4539,-3.4386,-3.4269,-3.4173,-3.4074,-3.3998,-3.3913,-3.3753,-3.3444,-3.3152,-3.2965,-3.282,-3.2657,-3.2523,-3.2405,-3.2232,-3.2018,-3.1837,-3.1651,-3.1445,-3.1291,-3.1095,-3.0895,-3.0468,-2.9881,-2.9163,-2.8462,-2.7439,-2.6814,-2.6166,-2.5632,-2.4884,-2.4413,-2.3866,-2.297,-2.232,-2.1956,-2.1475,-2.0887,-2.0233,-1.972,-1.9316,-1.8893,-1.8223,-1.7571,-1.7027,-1.6459,-1.5894,-1.5452,-1.5295,-1.5127,-1.4919,-1.4827,-1.4846,-1.4993,-1.5042,-1.5023,-1.5098,-1.5138,-1.5072,-1.5043,-1.5136,-1.5233,-1.5411,-1.5113,-1.4852,-1.4577,-1.4353,-1.4209,-1.3985,-1.4057,-1.4129,-1.4274,-1.4425,-1.4776,-1.5133,-1.5275,-1.5505,-1.5726,-1.5805,-1.5797,-1.5797,-1.5797,-1.5797,-1.5735,-1.5655,-1.5655,-1.5505,-1.5426,-1.5095,-1.4689,-1.4145,-1.3695,-1.3105,-1.2673,-1.2365,-1.2039,-1.1571,-1.126,-1.1111,-1.0893,-1.086,-3.4889,-3.4812,-3.4812,-3.487,-3.4927,-3.4964,-3.5039,-3.5075,-3.502,-3.4964,-3.4908,-3.4849,-3.4749,-3.4626,-3.4561,-3.445,-3.4316,-3.4269,-3.4173,-3.4074,-3.3895,-3.3643,-3.3393,-3.3214,-3.3073,-3.2916,-3.2737,-3.2557,-3.2405,-3.2232,-3.2018,-3.1768,-3.1511,-3.1287,-3.0925,-3.0729,-3.0156,-2.94,-2.8845,-2.7973,-2.6865,-2.6213,-2.5677,-2.4983,-2.44,-2.3876,-2.3317,-2.2686,-2.2147,-2.168,-2.1191,-2.0614,-2.0178,-1.9648,-1.9175,-1.8674,-1.7809,-1.7103,-1.6521,-1.5754,-1.5091,-1.4783,-1.456,-1.431,-1.4238,-1.4189,-1.4241,-1.4521,-1.4401,-1.4497,-1.4552,-1.4477,-1.4321,-1.418,-1.4061,-1.4191,-1.448,-1.4304,-1.4057,-1.4244,-1.4076,-1.3875,-1.3848,-1.392,-1.4065,-1.4129,-1.4346,-1.4633,-1.4991,-1.5204,-1.5505,-1.5735,-1.5805,-1.5805,-1.5797,-1.5726,-1.5726,-1.5655,-1.5434,-1.5363,-1.5213,-1.507,-1.4784,-1.4353,-1.3775,-1.3171,-1.2645,-1.2211,-1.1929,-1.1558,-1.1186,-1.0962,-1.0812,-1.0594,-1.0436,-3.5035,-3.5057,-3.502,-3.5038,-3.5057,-3.5075,-3.5092,-3.5092,-3.5092,-3.5075,-3.502,-3.4927,-3.487,-3.4831,-3.4689,-3.4604,-3.4517,-3.445,-3.434,-3.4173,-3.4005,-3.3868,-3.3643,-3.3462,-3.3322,-3.317,-3.2948,-3.2787,-3.2639,-3.2386,-3.2179,-3.1825,-3.1108,-3.0702,-3.0374,-2.98,-2.9173,-2.8638,-2.8053,-2.7427,-2.6675,-2.6002,-2.5431,-2.4792,-2.4011,-2.3371,-2.281,-2.2049,-2.1339,-2.0836,-2.0452,-1.9972,-1.9283,-1.8715,-1.8302,-1.782,-1.7213,-1.6531,-1.5975,-1.5455,-1.4987,-1.457,-1.435,-1.432,-1.4043,-1.3932,-1.3936,-1.4016,-1.3971,-1.3874,-1.3756,-1.3473,-1.3351,-1.328,-1.3139,-1.301,-1.3219,-1.3388,-1.3431,-1.3352,-1.3323,-1.3263,-1.3273,-1.3484,-1.3715,-1.3962,-1.4243,-1.4474,-1.4791,-1.5026,-1.5196,-1.5418,-1.5496,-1.5401,-1.5475,-1.5438,-1.5363,-1.5234,-1.4996,-1.468,-1.4609,-1.4435,-1.4103,-1.3742,-1.3339,-1.2806,-1.2204,-1.1761,-1.1335,-1.1111,-1.0887,-1.0663,-1.0443,-1.0218,-0.9992,-3.5193,-3.5196,-3.5196,-3.5196,-3.5196,-3.5193,-3.5174,-3.5193,-3.5196,-3.5179,-3.5145,-3.5037,-3.4982,-3.4927,-3.4831,-3.4751,-3.4689,-3.4583,-3.445,-3.4269,-3.413,-3.4023,-3.3887,-3.3671,-3.352,-3.3316,-3.3214,-3.3042,-3.2749,-3.2252,-3.1807,-3.1481,-3.0595,-3.0073,-2.9807,-2.9183,-2.8659,-2.8159,-2.7607,-2.7019,-2.6438,-2.5902,-2.5185,-2.4562,-2.3787,-2.3139,-2.2385,-2.1713,-2.0968,-2.0287,-1.9773,-1.9386,-1.8845,-1.8354,-1.7894,-1.74,-1.6653,-1.6033,-1.5493,-1.4861,-1.4254,-1.3993,-1.3759,-1.3555,-1.3401,-1.3298,-1.3256,-1.3265,-1.3224,-1.3111,-1.2995,-1.2823,-1.2697,-1.2488,-1.2394,-1.2255,-1.2173,-1.2444,-1.2676,-1.268,-1.2713,-1.2716,-1.2839,-1.3048,-1.3216,-1.3476,-1.3592,-1.3808,-1.4183,-1.4416,-1.4594,-1.479,-1.4908,-1.5001,-1.5063,-1.5064,-1.4991,-1.4688,-1.4356,-1.3869,-1.354,-1.3431,-1.3308,-1.3035,-1.2837,-1.2372,-1.1848,-1.1335,-1.0962,-1.0738,-1.0513,-1.0368,-1.0067,-0.9765,-0.9533,-3.5304,-3.5324,-3.5324,-3.5304,-3.5304,-3.5315,-3.5311,-3.5315,-3.5324,-3.5273,-3.5168,-3.5062,-3.4785,-3.4791,-3.449,-3.4472,-3.4338,-3.4158,-3.3818,-3.3728,-3.3613,-3.3499,-3.3389,-3.3261,-3.3113,-3.3117,-3.3067,-3.2925,-3.2545,-3.188,-3.1264,-3.0878,-2.9951,-2.942,-2.9196,-2.8745,-2.8161,-2.7549,-2.7234,-2.6853,-2.6231,-2.5709,-2.4906,-2.401,-2.3331,-2.2716,-2.1919,-2.1276,-2.0582,-1.9695,-1.9085,-1.8816,-1.8569,-1.8206,-1.7706,-1.7123,-1.6232,-1.5584,-1.4978,-1.4201,-1.3597,-1.3218,-1.2929,-1.2763,-1.2694,-1.2553,-1.2535,-1.247,-1.2495,-1.2324,-1.2401,-1.2231,-1.1964,-1.1768,-1.1791,-1.1616,-1.1391,-1.1571,-1.1746,-1.2105,-1.2198,-1.2316,-1.2387,-1.255,-1.2795,-1.2998,-1.3057,-1.3251,-1.3627,-1.3858,-1.4089,-1.4229,-1.4438,-1.4261,-1.4304,-1.4117,-1.4081,-1.3862,-1.3482,-1.3064,-1.2508,-1.2403,-1.234,-1.2541,-1.233,-1.1838,-1.1446,-1.0962,-1.0588,-1.0438,-1.0062,-0.976,-0.9533,-0.9231,-0.9074,-3.5438,-3.5364,-3.5383,-3.5397,-3.5364,-3.5397,-3.5378,-3.5383,-3.5355,-3.5383,-3.5234,-3.4527,-3.4194,-3.4012,-3.3296,-3.2949,-3.3014,-3.2919,-3.2722,-3.262,-3.253,-3.2437,-3.24,-3.2317,-3.204,-3.1905,-3.2083,-3.2288,-3.2054,-3.1255,-3.064,-3.0278,-2.9411,-2.8821,-2.8403,-2.7792,-2.7352,-2.7063,-2.6823,-2.653,-2.6054,-2.5332,-2.4495,-2.3497,-2.273,-2.2034,-2.1435,-2.0561,-1.9745,-1.907,-1.8565,-1.8113,-1.7655,-1.7127,-1.6603,-1.6197,-1.5683,-1.5095,-1.4595,-1.3989,-1.3515,-1.317,-1.29,-1.2627,-1.248,-1.2274,-1.214,-1.1917,-1.171,-1.1473,-1.1207,-1.1296,-1.1166,-1.1052,-1.0961,-1.0947,-1.0754,-1.071,-1.0894,-1.1389,-1.1638,-1.1911,-1.1983,-1.2107,-1.2432,-1.2608,-1.2747,-1.296,-1.3362,-1.3541,-1.3703,-1.39,-1.3965,-1.3707,-1.3403,-1.3112,-1.2922,-1.2669,-1.2336,-1.2081,-1.1634,-1.1427,-1.1388,-1.1249,-1.1338,-1.1124,-1.0765,-1.041,-1.0112,-0.9818,-0.944,-0.913,-0.8878,-0.8618,-0.8376,-3.5562,-3.5507,-3.5507,-3.5507,-3.5495,-3.5514,-3.5514,-3.5444,-3.5033,-3.4822,-3.4532,-3.3862,-3.3437,-3.3298,-3.2955,-3.2561,-3.2368,-3.2316,-3.2202,-3.2103,-3.2,-3.1871,-3.1745,-3.1672,-3.1592,-3.1427,-3.1331,-3.1347,-3.1428,-3.0584,-3.0034,-2.9615,-2.8805,-2.8159,-2.7907,-2.7457,-2.699,-2.6808,-2.6624,-2.6302,-2.5729,-2.4794,-2.3814,-2.2943,-2.2253,-2.1629,-2.0876,-2.0259,-1.9588,-1.9014,-1.8204,-1.7577,-1.6904,-1.6209,-1.5682,-1.5624,-1.5299,-1.4858,-1.4408,-1.3952,-1.3563,-1.3218,-1.289,-1.2627,-1.2382,-1.2126,-1.1792,-1.1501,-1.1217,-1.0871,-1.0648,-1.0509,-1.0377,-1.0234,-1.0243,-1.0239,-1.015,-1.003,-1.0328,-1.0677,-1.0912,-1.122,-1.1503,-1.1754,-1.2129,-1.2288,-1.2417,-1.2667,-1.2988,-1.2924,-1.2924,-1.2835,-1.2794,-1.2445,-1.2153,-1.1973,-1.1674,-1.1411,-1.1175,-1.0866,-1.0545,-1.0129,-0.9832,-0.9582,-0.9735,-1.0024,-0.9884,-0.9486,-0.9311,-0.9129,-0.867,-0.8318,-0.8193,-0.8027,-0.7748,-3.5699,-3.563,-3.563,-3.5639,-3.562,-3.5445,-3.5358,-3.522,-3.4425,-3.4044,-3.387,-3.3102,-3.266,-3.2557,-3.2292,-3.2038,-3.1965,-3.1855,-3.1656,-3.1525,-3.1427,-3.1397,-3.1368,-3.1255,-3.0997,-3.0688,-3.0362,-3.0271,-3.0584,-2.9899,-2.9413,-2.904,-2.8227,-2.7748,-2.7574,-2.7407,-2.7135,-2.6785,-2.6538,-2.6016,-2.4929,-2.4034,-2.3129,-2.2264,-2.1858,-2.1129,-2.0356,-1.9611,-1.9071,-1.8455,-1.7678,-1.6907,-1.6384,-1.5351,-1.4946,-1.5277,-1.5019,-1.4575,-1.4102,-1.3704,-1.3196,-1.2795,-1.2606,-1.2301,-1.1985,-1.1595,-1.127,-1.0896,-1.0565,-1.0234,-0.9938,-0.9771,-0.9613,-0.9563,-0.958,-0.9674,-0.961,-0.9618,-0.9651,-0.9983,-1.0179,-1.0439,-1.0751,-1.1055,-1.1363,-1.1485,-1.1608,-1.1615,-1.1859,-1.1737,-1.163,-1.145,-1.1288,-1.1022,-1.0815,-1.0692,-1.0394,-1.014,-0.9892,-0.9573,-0.9179,-0.8799,-0.8466,-0.8327,-0.8331,-0.859,-0.8523,-0.8569,-0.846,-0.8203,-0.7686,-0.7499,-0.7406,-0.709,-0.6737,-3.5772,-3.5776,-3.5752,-3.5782,-3.5607,-3.4919,-3.462,-3.4505,-3.3702,-3.3306,-3.317,-3.2355,-3.1896,-3.1691,-3.0956,-3.0586,-3.0513,-3.0535,-3.0476,-3.0447,-3.032,-3.0227,-3.0019,-2.9692,-2.9869,-2.9839,-2.9507,-2.9627,-2.9862,-2.9268,-2.8771,-2.8515,-2.8324,-2.7904,-2.7531,-2.7335,-2.6964,-2.6275,-2.587,-2.4972,-2.366,-2.3121,-2.2435,-2.1675,-2.0857,-2.0162,-1.9609,-1.8881,-1.8182,-1.7499,-1.6853,-1.6205,-1.5713,-1.5133,-1.4553,-1.4289,-1.3888,-1.3496,-1.3108,-1.2881,-1.2619,-1.2287,-1.189,-1.1535,-1.1268,-1.0828,-1.0356,-0.9766,-0.9581,-0.9392,-0.9137,-0.8831,-0.8796,-0.8855,-0.8933,-0.9006,-0.9033,-0.9061,-0.9172,-0.9167,-0.9398,-0.9722,-1.0022,-1.0336,-1.0588,-1.0704,-1.0777,-1.0813,-1.0806,-1.071,-1.037,-1.0107,-0.9938,-0.9718,-0.9412,-0.9308,-0.9116,-0.8842,-0.8538,-0.8291,-0.7981,-0.7614,-0.7423,-0.7288,-0.7268,-0.7265,-0.7301,-0.7353,-0.7504,-0.7306,-0.6806,-0.6651,-0.661,-0.627,-0.5765,-3.4714,-3.5073,-3.4568,-3.4387,-3.4322,-3.3958,-3.3808,-3.3638,-3.2916,-3.2496,-3.2258,-3.1525,-3.1071,-3.086,-3.0439,-3.0305,-3.0204,-3.0037,-3.0003,-2.9848,-2.9767,-2.9717,-2.9739,-2.955,-2.9433,-2.9202,-2.9228,-2.9285,-2.9292,-2.9034,-2.8637,-2.8466,-2.8228,-2.7824,-2.7264,-2.7029,-2.637,-2.5545,-2.4743,-2.3961,-2.3073,-2.2189,-2.1457,-2.0996,-2.0043,-1.9425,-1.8919,-1.8391,-1.7732,-1.7098,-1.6374,-1.564,-1.5039,-1.4281,-1.3508,-1.3136,-1.2754,-1.2647,-1.2782,-1.2605,-1.2235,-1.1966,-1.163,-1.1338,-1.0812,-1.0256,-0.9802,-0.9506,-0.9237,-0.8928,-0.858,-0.8388,-0.8357,-0.8359,-0.8401,-0.8393,-0.8459,-0.8502,-0.857,-0.8552,-0.8602,-0.8856,-0.9227,-0.9612,-0.9862,-0.9989,-1.0059,-1.0022,-0.9911,-0.9694,-0.9277,-0.8788,-0.8616,-0.8446,-0.8111,-0.787,-0.7721,-0.7447,-0.713,-0.6911,-0.6795,-0.6554,-0.6387,-0.6065,-0.5796,-0.5876,-0.6059,-0.6222,-0.6384,-0.6143,-0.5888,-0.5734,-0.5574,-0.5249,-0.4703,-3.3435,-3.3916,-3.3509,-3.3321,-3.3307,-3.3103,-3.3009,-3.2894,-3.2065,-3.1689,-3.1479,-3.0917,-3.0481,-3.0171,-3.004,-2.9798,-2.9532,-2.9582,-2.9499,-2.9395,-2.9317,-2.9141,-2.9039,-2.9063,-2.9064,-2.8816,-2.8831,-2.8711,-2.8452,-2.8274,-2.8088,-2.8293,-2.772,-2.7281,-2.6739,-2.6355,-2.5817,-2.4729,-2.3762,-2.3054,-2.2442,-2.1461,-2.0742,-2.0082,-1.9394,-1.8687,-1.8307,-1.7699,-1.7178,-1.6471,-1.5726,-1.4992,-1.4462,-1.3652,-1.2961,-1.2591,-1.2224,-1.2085,-1.2218,-1.2178,-1.1996,-1.1662,-1.1283,-1.07,-1.0231,-0.9783,-0.9383,-0.9056,-0.8715,-0.846,-0.8232,-0.7937,-0.7893,-0.7874,-0.7903,-0.7849,-0.7855,-0.8024,-0.8091,-0.8052,-0.8042,-0.7895,-0.8296,-0.8877,-0.916,-0.9282,-0.9341,-0.9266,-0.8953,-0.8561,-0.8069,-0.7499,-0.7269,-0.7076,-0.6747,-0.6525,-0.63,-0.6113,-0.5811,-0.5675,-0.5654,-0.5601,-0.5498,-0.5088,-0.4581,-0.4507,-0.4595,-0.4922,-0.5254,-0.5042,-0.4891,-0.4672,-0.4439,-0.4056,-0.3744,-3.2218,-3.2334,-3.3062,-3.3297,-3.3227,-3.2524,-3.2182,-3.2123,-3.1271,-3.0925,-3.0826,-3.0613,-3.0067,-2.9534,-2.9245,-2.8856,-2.8069,-2.7915,-2.8084,-2.8019,-2.7761,-2.7884,-2.802,-2.8242,-2.8233,-2.7751,-2.7998,-2.7829,-2.7247,-2.7122,-2.7204,-2.7404,-2.6959,-2.6339,-2.5854,-2.5525,-2.4839,-2.3863,-2.2956,-2.2143,-2.1562,-2.086,-2.0362,-1.9454,-1.8659,-1.7978,-1.7559,-1.678,-1.6084,-1.5478,-1.497,-1.4496,-1.3999,-1.3251,-1.2692,-1.2342,-1.1823,-1.1608,-1.1464,-1.1484,-1.1152,-1.0713,-1.0331,-1.0003,-0.9588,-0.9187,-0.8766,-0.848,-0.8225,-0.7859,-0.756,-0.7298,-0.7379,-0.7428,-0.7477,-0.7445,-0.7518,-0.7722,-0.7742,-0.7611,-0.7418,-0.7205,-0.7093,-0.7566,-0.8012,-0.8178,-0.7967,-0.7894,-0.7473,-0.7117,-0.6683,-0.6211,-0.6014,-0.5739,-0.5419,-0.5186,-0.5026,-0.4855,-0.4633,-0.4598,-0.4558,-0.4562,-0.4518,-0.4114,-0.3636,-0.344,-0.3227,-0.3559,-0.3797,-0.389,-0.3823,-0.367,-0.3319,-0.2883,-0.2563,-3.1252,-3.1285,-3.1647,-3.1796,-3.1772,-3.1436,-3.1311,-3.1262,-3.0938,-3.047,-3.0015,-2.9874,-2.9375,-2.8741,-2.8534,-2.8318,-2.7874,-2.7834,-2.772,-2.7719,-2.7657,-2.754,-2.7628,-2.7574,-2.7686,-2.7309,-2.7451,-2.7419,-2.6953,-2.632,-2.6051,-2.6109,-2.6063,-2.5796,-2.5356,-2.4526,-2.3611,-2.2824,-2.2134,-2.1412,-2.049,-1.9805,-1.9316,-1.8749,-1.7785,-1.7199,-1.6768,-1.6205,-1.558,-1.5031,-1.4599,-1.4146,-1.3657,-1.2943,-1.2418,-1.2031,-1.1423,-1.0943,-1.074,-1.085,-1.0975,-1.0448,-1.0039,-0.9558,-0.9169,-0.8941,-0.8651,-0.8299,-0.7874,-0.7534,-0.7405,-0.7125,-0.7042,-0.7095,-0.7061,-0.7032,-0.7058,-0.7193,-0.7154,-0.6893,-0.657,-0.628,-0.6158,-0.6164,-0.6585,-0.699,-0.6743,-0.6502,-0.61,-0.5747,-0.5405,-0.51,-0.4835,-0.4516,-0.4155,-0.3938,-0.3727,-0.358,-0.3432,-0.3408,-0.3403,-0.3626,-0.3517,-0.3095,-0.2687,-0.2413,-0.2251,-0.2198,-0.2486,-0.2956,-0.2951,-0.2791,-0.2315,-0.1763,-0.1384,-3.0646,-3.067,-3.074,-3.0788,-3.0799,-3.0801,-3.0799,-3.0796,-3.0808,-3.03,-2.9487,-2.9192,-2.8557,-2.7932,-2.7731,-2.7435,-2.7166,-2.7034,-2.7046,-2.6956,-2.6845,-2.6921,-2.6855,-2.6744,-2.6612,-2.6666,-2.6814,-2.6681,-2.6112,-2.5612,-2.5393,-2.5279,-2.5152,-2.4769,-2.4496,-2.3494,-2.2429,-2.1662,-2.1201,-2.066,-1.9647,-1.9094,-1.8444,-1.8025,-1.7249,-1.6786,-1.634,-1.5798,-1.5196,-1.4629,-1.4123,-1.3655,-1.3114,-1.2532,-1.1967,-1.1411,-1.0891,-1.0253,-1.0189,-1.0193,-1.0421,-0.9869,-0.9526,-0.9196,-0.8944,-0.8596,-0.8177,-0.7945,-0.7581,-0.7306,-0.7118,-0.6754,-0.6526,-0.6505,-0.6591,-0.6536,-0.6368,-0.6392,-0.6255,-0.6104,-0.5739,-0.5402,-0.5296,-0.5208,-0.5288,-0.5691,-0.5634,-0.5411,-0.5077,-0.47,-0.4278,-0.3979,-0.3742,-0.3363,-0.2983,-0.2782,-0.2567,-0.2362,-0.2207,-0.213,-0.2207,-0.2464,-0.2383,-0.1883,-0.1562,-0.1358,-0.1148,-0.0988,-0.1545,-0.2224,-0.1955,-0.1488,-0.1126,-0.0572,-0.0065,-3.0539,-3.0613,-3.0656,-3.073,-3.0777,-3.0793,-3.0779,-3.0644,-3.0585,-3.0084,-2.9182,-2.8528,-2.7749,-2.707,-2.6923,-2.6584,-2.6049,-2.586,-2.5797,-2.5848,-2.5918,-2.5572,-2.551,-2.5566,-2.5704,-2.5374,-2.5665,-2.5748,-2.5054,-2.4963,-2.4771,-2.4242,-2.3842,-2.3452,-2.3668,-2.2761,-2.1715,-2.0818,-2.0547,-1.9846,-1.9063,-1.8633,-1.8063,-1.7501,-1.7004,-1.6623,-1.6049,-1.5376,-1.4726,-1.4099,-1.3317,-1.2745,-1.2221,-1.1761,-1.1314,-1.0982,-1.0559,-1.0228,-1.0037,-0.962,-0.9311,-0.9174,-0.8972,-0.8621,-0.8228,-0.7872,-0.7622,-0.7491,-0.7026,-0.6633,-0.6375,-0.6164,-0.6053,-0.5964,-0.6021,-0.5941,-0.5734,-0.5558,-0.5427,-0.5271,-0.4909,-0.4552,-0.4439,-0.434,-0.4239,-0.4321,-0.4473,-0.4321,-0.4025,-0.3535,-0.3118,-0.2769,-0.2525,-0.2186,-0.1844,-0.158,-0.1351,-0.1152,-0.0996,-0.0933,-0.108,-0.1352,-0.1159,-0.0654,-0.0,0.0558,0.0462,0.0313,-0.0055,-0.0286,-0.0299,-0.0,0.0307,0.0618,0.1128,-3.0398,-3.0469,-3.053,-3.0579,-3.0607,-3.0696,-3.044,-2.9888,-2.9354,-2.8651,-2.7938,-2.7485,-2.693,-2.6347,-2.6139,-2.5948,-2.5649,-2.5565,-2.555,-2.5478,-2.5464,-2.5421,-2.5331,-2.5283,-2.522,-2.5191,-2.5342,-2.5327,-2.4922,-2.4674,-2.4214,-2.3657,-2.2732,-2.2228,-2.211,-2.1598,-2.1001,-2.017,-1.9742,-1.9201,-1.8268,-1.7973,-1.765,-1.7166,-1.6783,-1.6302,-1.565,-1.4883,-1.4212,-1.354,-1.2706,-1.2191,-1.1725,-1.1291,-1.0775,-1.0403,-0.9932,-0.9336,-0.8912,-0.8501,-0.8499,-0.8532,-0.8474,-0.8112,-0.7912,-0.7638,-0.7352,-0.699,-0.6572,-0.6333,-0.6203,-0.5869,-0.5664,-0.5482,-0.5423,-0.5192,-0.5026,-0.4802,-0.464,-0.4377,-0.4047,-0.3784,-0.3604,-0.2967,-0.2747,-0.2712,-0.2789,-0.3115,-0.2938,-0.2368,-0.1844,-0.1474,-0.1198,-0.0925,-0.0653,-0.0332,-0.0143,-0.0047,0.0141,0.0277,0.0046,-0.0237,-0.0,0.0482,0.1526,0.2461,0.1964,0.1625,0.183,0.1797,0.1646,0.1587,0.1843,0.2035,0.2238,-3.0215,-3.0305,-3.0344,-3.0218,-3.0028,-3.0179,-2.979,-2.8987,-2.8186,-2.7476,-2.7051,-2.6718,-2.6266,-2.5831,-2.5687,-2.5698,-2.5642,-2.5632,-2.56,-2.5546,-2.5549,-2.5479,-2.5441,-2.5376,-2.5322,-2.5234,-2.5111,-2.4979,-2.4493,-2.4444,-2.3658,-2.2559,-2.1782,-2.1161,-2.0844,-2.0512,-2.0243,-1.9492,-1.8978,-1.8601,-1.7963,-1.7582,-1.7214,-1.68,-1.6351,-1.5842,-1.5026,-1.4287,-1.363,-1.2901,-1.2264,-1.1695,-1.1221,-1.0749,-1.0196,-0.9773,-0.9254,-0.8633,-0.8181,-0.7773,-0.7809,-0.7835,-0.7783,-0.7567,-0.7298,-0.6913,-0.6643,-0.6351,-0.6117,-0.5823,-0.5541,-0.5198,-0.4995,-0.4779,-0.4619,-0.4404,-0.422,-0.4047,-0.3906,-0.3635,-0.3164,-0.2909,-0.2423,-0.1762,-0.116,-0.1115,-0.1113,-0.1425,-0.165,-0.1116,-0.0536,-0.0224,0.009,0.0271,0.0635,0.1043,0.1133,0.112,0.1295,0.1474,0.1302,0.1054,0.1335,0.1663,0.2575,0.3155,0.308,0.2983,0.3079,0.3262,0.3329,0.3335,0.3377,0.3367,0.3397,-2.9969,-3.0075,-3.0061,-2.9679,-2.9179,-2.924,-2.8818,-2.808,-2.7231,-2.6861,-2.6859,-2.6047,-2.5759,-2.5723,-2.5683,-2.57,-2.5693,-2.5689,-2.5654,-2.5613,-2.5617,-2.5556,-2.5531,-2.5485,-2.5298,-2.526,-2.5063,-2.453,-2.3938,-2.3479,-2.2527,-2.1502,-2.0956,-2.0317,-1.9943,-1.9758,-1.9502,-1.8933,-1.8534,-1.825,-1.7873,-1.7438,-1.6915,-1.6401,-1.5815,-1.5137,-1.4285,-1.3443,-1.2775,-1.207,-1.1325,-1.0683,-1.0199,-0.9866,-0.9552,-0.9162,-0.8712,-0.8251,-0.7792,-0.7403,-0.7005,-0.689,-0.6707,-0.654,-0.634,-0.6084,-0.5816,-0.5503,-0.5189,-0.4865,-0.453,-0.429,-0.4046,-0.3908,-0.3747,-0.3576,-0.344,-0.3286,-0.3193,-0.2834,-0.2199,-0.1689,-0.0914,-0.0213,0.0436,0.0831,0.0876,0.0797,0.0532,0.0356,0.0847,0.1027,0.1295,0.1472,0.183,0.223,0.2364,0.2317,0.2448,0.2578,0.245,0.2408,0.2565,0.2934,0.3541,0.3902,0.4011,0.408,0.4175,0.4405,0.4642,0.4456,0.4334,0.4428,0.4485,-2.9716,-2.9712,-2.9223,-2.9292,-2.9475,-2.8149,-2.7382,-2.7032,-2.6267,-2.5936,-2.5972,-2.5756,-2.5632,-2.562,-2.5631,-2.5657,-2.5681,-2.5703,-2.5702,-2.5675,-2.5664,-2.5619,-2.555,-2.542,-2.5123,-2.4716,-2.4386,-2.4002,-2.3112,-2.2515,-2.1916,-2.1136,-2.0439,-1.9824,-1.9549,-1.9419,-1.9057,-1.871,-1.8426,-1.8128,-1.7723,-1.721,-1.6608,-1.602,-1.5291,-1.4528,-1.3612,-1.3022,-1.2367,-1.1565,-1.0949,-1.0411,-1.0122,-0.9802,-0.9432,-0.8866,-0.8382,-0.7945,-0.7481,-0.7008,-0.6535,-0.6006,-0.5727,-0.5634,-0.5515,-0.5295,-0.4973,-0.468,-0.4387,-0.4065,-0.3811,-0.3523,-0.3229,-0.3,-0.2842,-0.2655,-0.2442,-0.2143,-0.1992,-0.1367,-0.0786,-0.0115,0.0679,0.1284,0.1911,0.2527,0.2859,0.2811,0.2571,0.2308,0.218,0.2359,0.2495,0.2667,0.289,0.3249,0.3426,0.3558,0.3683,0.3851,0.3851,0.3854,0.3865,0.4216,0.4822,0.5053,0.5106,0.5227,0.5395,0.558,0.5756,0.5503,0.5298,0.5487,0.5625,-2.9377,-2.9344,-2.8651,-2.8399,-2.8042,-2.6655,-2.5951,-2.588,-2.5556,-2.5466,-2.5505,-2.5565,-2.5566,-2.5561,-2.5582,-2.5616,-2.5645,-2.5644,-2.5655,-2.5662,-2.5625,-2.5365,-2.5252,-2.4937,-2.4401,-2.3971,-2.3572,-2.3237,-2.2335,-2.144,-2.0795,-2.0655,-2.0063,-1.9807,-1.9569,-1.942,-1.9202,-1.8861,-1.8529,-1.8133,-1.7563,-1.6944,-1.6361,-1.5515,-1.4713,-1.3946,-1.312,-1.2643,-1.2029,-1.1359,-1.0825,-1.0386,-1.0021,-0.954,-0.8976,-0.8382,-0.7964,-0.7472,-0.6969,-0.6457,-0.5944,-0.5345,-0.4732,-0.437,-0.4375,-0.4253,-0.413,-0.3936,-0.3644,-0.3384,-0.3097,-0.2838,-0.2471,-0.2137,-0.1907,-0.1673,-0.1305,-0.0904,-0.0376,0.0246,0.0902,0.156,0.22,0.2774,0.3324,0.3874,0.4371,0.459,0.4188,0.3716,0.3588,0.3591,0.3727,0.3862,0.4085,0.4343,0.4557,0.4769,0.4942,0.5067,0.5201,0.5288,0.5245,0.5631,0.6192,0.6295,0.6343,0.6471,0.6631,0.6793,0.6925,0.6886,0.6747,0.6705,0.6884,-2.903,-2.9034,-2.8188,-2.6971,-2.5683,-2.4982,-2.4753,-2.479,-2.508,-2.5283,-2.5365,-2.5449,-2.5459,-2.546,-2.5492,-2.5535,-2.5532,-2.5561,-2.5586,-2.5537,-2.5297,-2.5016,-2.4531,-2.396,-2.3458,-2.3082,-2.2762,-2.244,-2.1574,-2.0863,-2.0423,-2.0133,-2.006,-1.9909,-1.9731,-1.958,-1.9313,-1.8833,-1.8483,-1.8071,-1.7315,-1.6703,-1.5976,-1.4742,-1.4043,-1.3459,-1.2736,-1.2205,-1.1768,-1.137,-1.0944,-1.0485,-0.9751,-0.905,-0.84,-0.782,-0.7365,-0.6794,-0.6259,-0.5681,-0.5073,-0.4402,-0.3723,-0.3098,-0.2899,-0.3171,-0.3147,-0.2845,-0.2518,-0.2222,-0.1932,-0.1565,-0.1233,-0.0898,-0.0631,-0.0366,-0.0033,0.053,0.1335,0.1914,0.2353,0.2993,0.3349,0.3906,0.4558,0.5127,0.5629,0.602,0.5998,0.5406,0.5105,0.4981,0.4986,0.5115,0.5293,0.5508,0.576,0.5973,0.6186,0.6434,0.6632,0.6645,0.6622,0.7155,0.7687,0.7612,0.766,0.775,0.7841,0.7908,0.8057,0.8265,0.8213,0.8044,0.8058,-2.8626,-2.8512,-2.6854,-2.5505,-2.4505,-2.4302,-2.4317,-2.4425,-2.4598,-2.4885,-2.5141,-2.5244,-2.5284,-2.5274,-2.5346,-2.5379,-2.5383,-2.5427,-2.5473,-2.5143,-2.4845,-2.4411,-2.4005,-2.314,-2.2519,-2.2204,-2.1961,-2.1669,-2.0954,-2.0502,-2.0316,-2.0263,-2.0188,-2.0056,-1.9906,-1.976,-1.9295,-1.8729,-1.8151,-1.7792,-1.724,-1.6063,-1.5037,-1.4435,-1.3953,-1.3386,-1.2801,-1.2423,-1.2056,-1.1681,-1.1118,-1.036,-0.9357,-0.8507,-0.7839,-0.7286,-0.6614,-0.5891,-0.5266,-0.465,-0.3975,-0.322,-0.2475,-0.1751,-0.1522,-0.1925,-0.1961,-0.1592,-0.1295,-0.0998,-0.0665,-0.0299,0.0133,0.0432,0.0697,0.0994,0.1324,0.2148,0.3041,0.3462,0.386,0.4229,0.4576,0.5082,0.5734,0.6304,0.6807,0.7237,0.7599,0.7335,0.6787,0.6584,0.6259,0.6355,0.6531,0.6735,0.7016,0.7224,0.748,0.7728,0.8016,0.8098,0.8139,0.8723,0.9142,0.8964,0.8884,0.9022,0.9079,0.9088,0.9122,0.9304,0.946,0.9418,0.9369,-2.821,-2.8031,-2.6368,-2.4892,-2.3883,-2.3846,-2.3945,-2.404,-2.4211,-2.4403,-2.4689,-2.4891,-2.5037,-2.5065,-2.5122,-2.5154,-2.5186,-2.5264,-2.5018,-2.4648,-2.4219,-2.3625,-2.3026,-2.2335,-2.175,-2.1354,-2.1229,-2.0917,-2.0481,-2.0428,-2.0389,-2.034,-2.0284,-2.0211,-2.0038,-1.9684,-1.9135,-1.8507,-1.775,-1.7207,-1.687,-1.5814,-1.4879,-1.4414,-1.391,-1.3443,-1.3142,-1.2771,-1.2408,-1.1758,-1.1001,-0.9843,-0.8765,-0.7751,-0.713,-0.6449,-0.5636,-0.4589,-0.3976,-0.3272,-0.2567,-0.1779,-0.0987,-0.0198,0.0558,0.0296,0.0164,0.046,0.0395,0.0626,0.0956,0.1321,0.2049,0.2511,0.2563,0.2719,0.3167,0.3812,0.4374,0.4708,0.5093,0.5477,0.59,0.6376,0.6987,0.7588,0.8086,0.849,0.8832,0.9036,0.8577,0.8204,0.7911,0.768,0.7777,0.8024,0.8302,0.8513,0.8715,0.8996,0.9235,0.9451,0.9746,1.0128,1.0321,1.0167,1.0128,1.0176,1.0254,1.0244,1.0273,1.0332,1.0477,1.063,1.0648,-2.7601,-2.7335,-2.5994,-2.463,-2.3454,-2.345,-2.3522,-2.3588,-2.3777,-2.3919,-2.4041,-2.4402,-2.4644,-2.4828,-2.4902,-2.4929,-2.4867,-2.4736,-2.4424,-2.4092,-2.3675,-2.291,-2.2165,-2.1504,-2.1022,-2.0745,-2.0617,-2.0597,-2.0453,-2.0425,-2.041,-2.0387,-2.0369,-2.0318,-1.9949,-1.9411,-1.8731,-1.7945,-1.7159,-1.6347,-1.5913,-1.5584,-1.4928,-1.4394,-1.4034,-1.387,-1.3582,-1.326,-1.2865,-1.1968,-1.0915,-0.9414,-0.7963,-0.6745,-0.5665,-0.4903,-0.3547,-0.2684,-0.2112,-0.143,-0.0785,-0.0066,0.0691,0.1476,0.2258,0.2608,0.2508,0.2562,0.2466,0.2382,0.2712,0.3107,0.3837,0.437,0.4374,0.444,0.4946,0.5418,0.5708,0.6029,0.634,0.6747,0.7127,0.7608,0.8213,0.881,0.9352,0.9746,1.0068,1.0118,0.9963,0.9759,0.9584,0.9376,0.9124,0.9244,0.9473,0.97,0.9904,1.0196,1.0408,1.0542,1.0847,1.126,1.1383,1.1159,1.1196,1.1271,1.1319,1.1319,1.133,1.1266,1.1254,1.1429,1.1676,-2.644,-2.5322,-2.4434,-2.3578,-2.2868,-2.2865,-2.2855,-2.2923,-2.3093,-2.3236,-2.3351,-2.3574,-2.3908,-2.4385,-2.4491,-2.4482,-2.4317,-2.4129,-2.3916,-2.3636,-2.259,-2.1886,-2.1353,-2.0862,-2.0501,-2.0353,-2.0305,-2.0346,-2.0308,-2.032,-2.0328,-2.0311,-2.0378,-2.0058,-1.9349,-1.8839,-1.8335,-1.7431,-1.6726,-1.6043,-1.5445,-1.5141,-1.4897,-1.4582,-1.4467,-1.4306,-1.4113,-1.3886,-1.3534,-1.2704,-1.11,-0.9231,-0.7185,-0.5291,-0.3756,-0.2138,-0.0847,-0.0,0.0698,0.0959,0.1578,0.1972,0.2748,0.3447,0.4207,0.4944,0.5046,0.5419,0.5215,0.4624,0.4803,0.5025,0.5595,0.5846,0.5952,0.6237,0.6639,0.6884,0.7135,0.7357,0.7569,0.7856,0.8107,0.8645,0.9294,0.9874,1.0419,1.0854,1.1142,1.1217,1.126,1.1175,1.1052,1.0712,1.0321,1.0417,1.0608,1.0847,1.1073,1.126,1.1446,1.1568,1.1861,1.2092,1.2187,1.2043,1.2126,1.2234,1.2234,1.2234,1.2234,1.221,1.2173,1.2182,1.2392]},{"header":{"parameterUnit":"m.s-1","parameterCategory":1,"la1":31.0,"la2":29.5877,"lo1":-88.7671,"lo2":-86.6584,"dx":0.0162,"dy":0.0185,"nx":115,"ny":88,"refTime":"2022-12-08T18:00:00:Z","depth":0,"parameterNumber":3,"parameterNumberName":"V-component_of_WINDS"},"data":[0.0,0.0,0.0,0.0,0.0,0.0,0.0,0.0,0.0,0.0,0.0,0.0,0.0,0.0,0.0,0.0,0.0,0.0,0.0,0.0,0.0,0.0,0.0,0.0,0.0,0.0,0.0,0.0,0.0,0.0,0.0,0.0,0.0,0.0,0.0,0.0,0.0,0.0,0.0,0.0,0.0,0.0,0.0,0.0,0.0,0.0,0.0,0.0,0.0,0.0,0.0,0.0,0.0,0.0,0.0,0.0,0.0,0.0,0.0,0.0,0.0,0.0,0.0,0.0,0.0,0.0,0.0,0.0,0.0,0.0,0.0,0.0,0.0,0.0,0.0,0.0,0.0,0.0,0.0,0.0,0.0,0.0,0.0,0.0,0.0,0.0,0.0,0.0,0.0,0.0,0.0,0.0,0.0,0.0,0.0,0.0,0.0,0.0,0.0,0.0,0.0,0.0,0.0,0.0,0.0,0.0,0.0,0.0,0.0,0.0,0.0,0.0,0.0,0.0,0.0,0.0,0.0,0.0,0.0,0.0,0.0,0.0,0.0,0.0,0.0,0.0,0.0,0.0,0.0,0.0,0.0,0.0,0.0,0.0,0.0,0.0,0.0,0.0,0.0,0.0,0.0,0.0,0.0,0.0,0.0,0.0,0.0,0.0,0.0,0.0,0.0,0.0,0.0,0.0,0.0,0.0,0.0,0.0,0.0,0.0,0.0,0.0,0.0,0.0,0.0,0.0,0.0,0.0,0.0,0.0,0.0,0.0,0.0,0.0,0.0,0.0,0.0,0.0,0.0,0.0,0.0,0.0,0.0,0.0,0.0,0.0,0.0,0.0,0.0,0.0,0.0,0.0,0.0,0.0,0.0,0.0,0.0,0.0,0.0,0.0,0.0,0.0,0.0,0.0,0.0,0.0,0.0,0.0,0.0,0.0,0.0,0.0,0.0,0.0,0.0,0.0,0.0,0.0,0.0,0.0,0.0,0.0,0.0,0.0,0.0,0.0,0.0,0.0,0.0,0.0,0.0,0.0,0.0,0.0,0.0,0.0,0.0,0.0,0.0,0.0,0.0,0.0,0.0,0.0,0.0,0.0,0.0,0.0,0.0,0.0,0.0,0.0,0.0,0.0,0.0,0.0,0.0,0.0,0.0,0.0,0.0,0.0,0.0,0.0,0.0,0.0,0.0,0.0,0.0,0.0,0.0,0.0,0.0,0.0,0.0,0.0,0.0,0.0,0.0,0.0,0.0,0.0,0.0,0.0,0.0,0.0,0.0,0.0,0.0,0.0,0.0,0.0,0.0,0.0,0.0,0.0,0.0,0.0,0.0,0.0,0.0,0.0,0.0,0.0,0.0,0.0,0.0,0.0,0.0,0.0,0.0,0.0,0.0,0.0,0.0,0.0,0.0,0.0,0.0,0.0,0.0,0.0,0.0,0.0,0.0,0.0,0.0,0.0,0.0,0.0,0.0,0.0,0.0,0.0,0.0,0.0,0.0,0.0,0.0,0.0,0.0,0.0,0.0,0.0,0.0,0.0,0.0,0.0,0.0,0.0,0.0,0.0,0.0,0.0,0.0,0.0,0.0,0.0,0.0,0.0,0.0,0.0,0.0,0.0,0.0,0.0,0.0,0.0,0.0,0.0,0.0,0.0,0.0,0.0,0.0,0.0,0.0,0.0,0.0,0.0,0.0,0.0,0.0,0.0,0.0,0.0,0.0,0.0,0.0,0.0,0.0,0.0,0.0,0.0,0.0,0.0,0.0,0.0,0.0,0.0,0.0,0.0,0.0,0.0,0.0,0.0,0.0,0.0,0.0,0.0,0.0,0.0,0.0,0.0,0.0,0.0,0.0,0.0,0.0,0.0,0.0,0.0,0.0,0.0,0.0,0.0,0.0,0.0,0.0,0.0,0.0,0.0,0.0,0.0,0.0,0.0,0.0,0.0,0.0,0.0,0.0,0.0,0.0,0.0,0.0,0.0,0.0,0.0,0.0,0.0,0.0,0.0,0.0,0.0,0.0,0.0,0.0,0.0,0.0,0.0,0.0,0.0,0.0,0.0,0.0,0.0,0.0,0.0,0.0,0.0,0.0,0.0,0.0,0.0,0.0,0.0,0.0,0.0,0.0,0.0,0.0,0.0,0.0,0.0,0.0,0.0,0.0,0.0,0.0,0.0,0.0,0.0,0.0,0.0,0.0,0.0,0.0,0.0,0.0,0.0,0.0,0.0,0.0,0.0,0.0,0.0,0.0,0.0,0.0,0.0,0.0,0.0,0.0,0.0,0.0,0.0,0.0,0.0,0.0,0.0,0.0,0.0,0.0,0.0,0.0,0.0,0.0,0.0,0.0,0.0,0.0,0.0,0.0,0.0,0.0,0.0,0.0,0.0,0.0,0.0,0.0,0.0,0.0,0.0,0.0,0.0,0.0,0.0,0.0,0.0,0.0,0.0,0.0,0.0,0.0,0.0,0.0,0.0,0.0,0.0,0.0,0.0,0.0,0.0,0.0,0.0,0.0,0.0,0.0,0.0,0.0,0.0,0.0,0.0,0.0,0.0,0.0,0.0,0.0,0.0,0.0,0.0,0.0,0.0,0.0,0.0,0.0,0.0,0.0,0.0,0.0,0.0,0.0,0.0,0.0,0.0,0.0,0.0,0.0,0.0,0.0,0.0,0.0,0.0,0.0,0.0,0.0,0.0,0.0,0.0,0.0,0.0,0.0,0.0,0.0,0.0,0.0,0.0,0.0,0.0,0.0,0.0,0.0,0.0,0.0,0.0,0.0,0.0,0.0,0.0,0.0,0.0,0.0,0.0,0.0,0.0,0.0,0.0,0.0,0.0,0.0,0.0,0.0,0.0,0.0,0.0,0.0,0.0,0.0,0.0,0.0,0.0,0.0,0.0,0.0,0.0,0.0,0.0,0.0,0.0,0.0,0.0,0.0,0.0,0.0,0.0,0.0,0.0,0.0,0.0,0.0,0.0,0.0,0.0,0.0,0.0,0.0,0.0,0.0,0.0,0.0,0.0,0.0,0.0,0.0,0.0,0.0,0.0,0.0,0.0,0.0,0.0,0.0,0.0,0.0,0.0,0.0,0.0,0.0,0.0,0.0,0.0,0.0,0.0,0.0,0.0,0.0,0.0,0.0,0.0,0.0,0.0,0.0,0.0,0.0,0.0,0.0,0.0,0.0,0.0,0.0,0.0,0.0,0.0,0.0,0.0,0.0,0.0,0.0,0.0,0.0,0.0,0.0,0.0,0.0,0.0,0.0,0.0,0.0,0.0,0.0,0.0,0.0,0.0,0.0,0.0,0.0,0.0,0.0,0.0,0.0,0.0,0.0,0.0,0.0,0.0,0.0,0.0,0.0,0.0,0.0,0.0,0.0,0.0,0.0,0.0,0.0,0.0,0.0,0.0,0.0,0.0,0.0,0.0,0.0,0.0,0.0,0.0,0.0,0.0,0.0,0.0,0.0,0.0,0.0,0.0,0.0,0.0,0.0,0.0,0.0,0.0,0.0,0.0,0.0,0.0,0.0,0.0,0.0,0.0,0.0,0.0,0.0,0.0,0.0,0.0,0.0,0.0,0.0,0.0,0.0,0.0,0.0,0.0,0.0,0.0,0.0,0.0,0.0,0.0,0.0,0.0,0.0,0.0,0.0,0.0,0.0,0.0,0.0,0.0,0.0,0.0,0.0,0.0,0.0,0.0,0.0,0.0,0.0,0.0,0.0,0.0,0.0,0.0,0.0,0.0,0.0,0.0,0.0,0.0,0.0,0.0,0.0,0.0,0.0,0.0,0.0,0.0,0.0,0.0,0.0,0.0,0.0,0.0,0.0,0.0,0.0,0.0,0.0,0.0,0.0,0.0,0.0,0.0,0.0,0.0,0.0,0.0,0.0,0.0,0.0,0.0,0.0,0.0,0.0,0.0,0.0,0.0,0.0,0.0,0.0,0.0,0.0,0.0,0.0,0.0,0.0,0.0,0.0,0.0,0.0,0.0,0.0,0.0,0.0,0.0,0.0,0.0,0.0,0.0,0.0,0.0,0.0,0.0,0.0,0.0,0.0,0.0,0.0,0.0,0.0,0.0,0.0,0.0,0.0,0.0,0.0,0.0,0.0,0.0,0.0,0.0,0.0,0.0,0.0,0.0,0.0,0.0,0.0,0.0,0.0,0.0,0.0,0.0,0.0,0.0,0.0,0.0,0.0,0.0,0.0,0.0,0.0,0.0,0.0,0.0,0.0,0.0,0.0,0.0,0.0,0.0,-0.3858,0.0,0.0,0.0,-0.3615,0.0,0.0,0.0,0.0,0.0,0.0,0.0,0.0,0.0,0.0,0.0,0.0,0.0,0.0,0.0,0.0,0.0,0.0,0.0,0.0,0.0,0.0,0.0,0.0,0.0,0.0,0.0,0.0,0.0,0.0,0.0,0.0,0.0,0.0,0.0,0.0,0.0,0.0,0.0,0.0,0.0,0.0,0.0,0.0,0.0,0.0,0.0,0.0,0.0,0.0,0.0,0.0,0.0,0.0,0.0,0.0,0.0,0.0,0.0,0.0,0.0,0.0,0.0,0.0,0.0,0.0,0.0,0.0,0.0,0.0,0.0,0.0,0.0,0.0,0.0,0.0,0.0,0.0,0.0,0.0,0.0,0.0,0.0,0.0,0.0,0.0,0.0,0.0,0.0,0.0,0.0,0.0,0.0,0.0,0.0,0.0,0.0,0.0,0.0,0.0,0.0,0.0,0.0,0.0,0.0,0.0,0.0,0.0,0.0,0.0,-0.3733,-0.3667,-0.3639,-0.369,-0.3811,0.0,0.0,0.0,0.0,0.0,0.0,0.0,0.0,0.0,0.0,0.0,0.0,0.0,0.0,0.0,0.0,0.0,0.0,0.0,0.0,0.0,0.0,0.0,0.0,0.0,0.0,0.0,0.0,0.0,0.0,0.0,0.0,0.0,0.0,0.0,0.0,0.0,0.0,0.0,0.0,0.0,0.0,0.0,0.0,0.0,0.0,0.0,0.0,0.0,0.0,0.0,0.0,0.0,0.0,0.0,0.0,0.0,0.0,0.0,0.0,0.0,0.0,0.0,0.0,0.0,0.0,0.0,0.0,0.0,0.0,0.0,0.0,0.0,0.0,0.0,0.0,0.0,0.0,0.0,0.0,0.0,0.0,0.0,0.0,0.0,0.0,0.0,0.0,0.0,0.0,0.0,0.0,0.0,0.0,0.0,0.0,0.0,0.0,0.0,0.0,0.0,0.0,0.0,0.0,0.0,0.0,0.0,0.0,0.0,0.0,0.0,0.0,-0.3607,-0.3686,-0.3873,0.0,0.0,0.0,0.0,0.0,0.0,0.0,0.0,0.0,0.0,0.0,0.0,0.0,0.0,0.0,0.0,0.0,0.0,0.0,0.0,0.0,0.0,0.0,0.0,0.0,0.0,0.0,0.0,0.0,0.0,0.0,0.0,0.0,0.0,0.0,0.0,0.0,0.0,0.0,0.0,0.0,0.0,0.0,0.0,0.0,0.0,0.0,0.0,0.0,0.0,0.0,0.0,0.0,0.0,0.0,0.0,0.0,0.0,0.0,0.0,0.0,0.0,0.0,0.0,0.0,0.0,0.0,0.0,0.0,0.0,0.0,0.0,0.0,0.0,0.0,0.0,0.0,0.0,0.0,0.0,0.0,0.0,0.0,0.0,0.0,0.0,0.0,0.0,0.0,0.0,0.0,0.0,0.0,0.0,0.0,0.0,0.0,0.0,0.0,0.0,0.0,0.0,0.0,0.0,0.0,0.0,0.0,0.0,0.0,0.0,-0.3569,-0.3504,-0.3569,0.0,-0.3567,0.0,0.0,0.0,0.0,0.0,0.0,0.0,0.0,0.0,0.0,0.0,0.0,0.0,0.0,0.0,0.0,0.0,0.0,0.0,0.0,0.0,0.0,0.0,0.0,0.0,0.0,0.0,0.0,0.0,0.0,0.0,0.0,0.0,0.0,0.0,0.0,0.0,0.0,0.0,0.0,0.0,0.0,0.0,0.0,0.0,0.0,0.0,0.0,0.0,0.0,0.0,0.0,0.0,0.0,0.0,0.0,0.0,0.0,0.0,0.0,0.0,0.0,0.0,0.0,0.0,0.0,0.0,0.0,0.0,0.0,0.0,0.0,0.0,0.0,0.0,0.0,0.0,0.0,0.0,0.0,0.0,0.0,0.0,0.0,0.0,0.0,0.0,0.0,0.0,0.0,0.0,0.0,0.0,0.0,0.0,0.0,0.0,0.0,0.0,0.0,0.0,0.0,0.0,0.0,0.0,0.0,0.0,0.0,0.0,0.0,-0.3499,-0.3372,-0.3635,-0.3689,0.0,0.0,0.0,0.0,0.0,0.0,0.0,0.0,0.0,0.0,0.0,0.0,0.0,0.0,0.0,0.0,0.0,0.0,0.0,0.0,0.0,0.0,0.0,0.0,0.0,0.0,0.0,0.0,0.0,0.0,0.0,0.0,0.0,0.0,0.0,0.0,0.0,0.0,0.0,0.0,0.0,0.0,0.0,0.0,0.0,0.0,0.0,0.0,0.0,0.0,0.0,0.0,0.0,0.0,0.0,0.0,0.0,0.0,0.0,0.0,0.0,0.0,0.0,0.0,0.0,0.0,0.0,0.0,0.0,0.0,0.0,0.0,0.0,0.0,0.0,0.0,0.0,0.0,0.0,0.0,0.0,0.0,0.0,0.0,0.0,0.0,0.0,0.0,0.0,0.0,0.0,0.0,0.0,0.0,0.0,0.0,0.0,0.0,0.0,0.0,0.0,0.0,0.0,0.0,0.0,0.0,0.0,0.0,0.0,0.0,-0.3461,-0.3434,-0.3377,-0.37,-0.3781,-0.3515,0.0,0.0,0.0,0.0,0.0,0.0,0.0,0.0,0.0,0.0,0.0,0.0,0.0,0.0,0.0,0.0,0.0,0.0,0.0,0.0,0.0,0.0,0.0,0.0,0.0,0.0,0.0,0.0,0.0,0.0,0.0,0.0,0.0,0.0,0.0,0.0,0.0,0.0,0.0,0.0,0.0,0.0,0.0,0.0,0.0,0.0,0.0,0.0,0.0,0.0,0.0,0.0,0.0,0.0,0.0,0.0,0.0,0.0,0.0,0.0,0.0,0.0,0.0,0.0,0.0,0.0,0.0,0.0,0.0,0.0,0.0,0.0,0.0,0.0,0.0,0.0,0.0,0.0,0.0,0.0,0.0,0.0,0.0,0.0,0.0,0.0,0.0,0.0,0.0,0.0,0.0,0.0,0.0,0.0,0.0,0.0,0.0,0.0,0.0,0.0,0.0,0.0,0.0,0.0,0.0,0.0,0.0,0.0,-0.3407,-0.3461,-0.3499,-0.3499,-0.3756,-0.3776,0.0,0.0,0.0,0.0,0.0,0.0,0.0,0.0,0.0,0.0,0.0,0.0,0.0,0.0,0.0,0.0,0.0,0.0,0.0,0.0,0.0,0.0,0.0,0.0,0.0,0.0,0.0,0.0,0.0,0.0,0.0,0.0,0.0,0.0,0.0,0.0,0.0,0.0,0.0,0.0,0.0,0.0,0.0,0.0,0.0,0.0,0.0,0.0,0.0,0.0,0.0,0.0,0.0,0.0,0.0,0.0,0.0,0.0,0.0,0.0,0.0,0.0,0.0,0.0,0.0,0.0,0.0,0.0,0.0,0.0,0.0,0.0,0.0,0.0,0.0,0.0,0.0,0.0,0.0,0.0,0.0,0.0,0.0,0.0,0.0,0.0,0.0,0.0,0.0,0.0,0.0,0.0,0.0,0.0,0.0,0.0,0.0,0.0,0.0,0.0,0.0,0.0,0.0,0.0,0.0,0.0,0.0,0.0,0.0,-0.3307,-0.3424,-0.3499,-0.3495,-0.3761,-0.3781,0.0,0.0,0.0,0.0,0.0,0.0,0.0,0.0,0.0,0.0,0.0,0.0,0.0,0.0,0.0,0.0,0.0,0.0,0.0,0.0,0.0,0.0,0.0,0.0,0.0,0.0,0.0,0.0,0.0,0.0,0.0,0.0,0.0,0.0,0.0,0.0,0.0,0.0,0.0,0.0,0.0,0.0,0.0,0.0,0.0,0.0,0.0,0.0,0.0,0.0,0.0,0.0,0.0,0.0,0.0,0.0,0.0,0.0,0.0,0.0,0.0,0.0,0.0,0.0,0.0,0.0,0.0,0.0,0.0,0.0,0.0,0.0,0.0,0.0,0.0,0.0,0.0,0.0,0.0,0.0,0.0,0.0,0.0,0.0,0.0,0.0,0.0,0.0,0.0,0.0,0.0,0.0,0.0,0.0,0.0,0.0,0.0,0.0,0.0,0.0,0.0,0.0,0.0,0.0,0.0,0.0,0.0,0.0,0.0,-0.3462,-0.3552,-0.3626,-0.3635,-0.3866,-0.3862,0.0,0.0,0.0,0.0,0.0,0.0,0.0,0.0,0.0,0.0,0.0,0.0,0.0,0.0,0.0,0.0,0.0,0.0,0.0,0.0,0.0,0.0,0.0,0.0,0.0,0.0,0.0,0.0,0.0,0.0,0.0,0.0,0.0,0.0,0.0,0.0,0.0,0.0,0.0,0.0,0.0,0.0,0.0,0.0,0.0,0.0,0.0,0.0,0.0,0.0,0.0,0.0,0.0,0.0,0.0,0.0,0.0,0.0,0.0,0.0,0.0,0.0,0.0,0.0,0.0,0.0,0.0,0.0,0.0,0.0,0.0,0.0,0.0,0.0,0.0,0.0,0.0,0.0,0.0,0.0,0.0,0.0,0.0,0.0,0.0,0.0,0.0,0.0,0.0,0.0,0.0,0.0,0.0,0.0,0.0,0.0,0.0,0.0,0.0,0.0,0.0,0.0,0.0,0.0,0.0,0.0,0.0,0.0,-0.3868,-0.3997,-0.3934,-0.3917,-0.3917,-0.4156,-0.4057,0.0,0.0,0.0,0.0,0.0,0.0,0.0,0.0,0.0,0.0,0.0,0.0,0.0,0.0,0.0,0.0,0.0,0.0,0.0,0.0,0.0,0.0,0.0,0.0,0.0,0.0,0.0,0.0,0.0,0.0,0.0,0.0,0.0,0.0,0.0,0.0,0.0,0.0,0.0,0.0,0.0,0.0,0.0,0.0,0.0,0.0,0.0,0.0,0.0,0.0,0.0,0.0,0.0,0.0,0.0,0.0,0.0,0.0,0.0,0.0,0.0,0.0,0.0,0.0,0.0,0.0,0.0,0.0,0.0,0.0,0.0,0.0,0.0,0.0,0.0,0.0,0.0,0.0,0.0,0.0,0.0,0.0,0.0,0.0,0.0,0.0,0.0,0.0,0.0,0.0,0.0,0.0,0.0,0.0,0.0,0.0,0.0,0.0,0.0,0.0,0.0,0.0,0.0,0.0,0.0,0.0,0.0,0.0,0.0,-0.4146,-0.426,-0.4299,-0.4262,-0.4336,-0.4296,0.0,0.0,0.0,0.0,0.0,0.0,0.0,0.0,0.0,0.0,0.0,0.0,0.0,0.0,0.0,0.0,0.0,0.0,0.0,0.0,0.0,0.0,0.0,0.0,0.0,0.0,0.0,0.0,0.0,0.0,0.0,0.0,0.0,0.0,0.0,0.0,0.0,0.0,0.0,0.0,0.0,0.0,0.0,0.0,0.0,0.0,0.0,0.0,0.0,0.0,0.0,0.0,0.0,0.0,0.0,0.0,0.0,0.0,0.0,0.0,0.0,0.0,0.0,0.0,0.0,0.0,0.0,0.0,0.0,0.0,0.0,0.0,0.0,0.0,0.0,0.0,0.0,0.0,0.0,0.0,0.0,0.0,0.0,0.0,0.0,0.0,0.0,0.0,0.0,0.0,0.0,0.0,0.0,0.0,0.0,0.0,0.0,0.0,0.0,0.0,0.0,0.0,0.0,0.0,0.0,0.0,0.0,0.0,0.0,-0.5136,-0.4952,-0.4868,-0.4758,-0.485,-0.4801,-0.4604,0.0,0.0,0.0,0.0,0.0,0.0,0.0,0.0,0.0,0.0,0.0,0.0,0.0,0.0,0.0,0.0,0.0,0.0,0.0,0.0,0.0,0.0,0.0,0.0,0.0,0.0,0.0,0.0,0.0,0.0,0.0,0.0,0.0,0.0,0.0,0.0,0.0,0.0,0.0,0.0,0.0,0.0,0.0,0.0,0.0,0.0,0.0,0.0,0.0,0.0,0.0,0.0,0.0,0.0,0.0,0.0,0.0,0.0,0.0,0.0,0.0,0.0,0.0,0.0,0.0,0.0,0.0,0.0,0.0,0.0,0.0,0.0,0.0,0.0,0.0,0.0,0.0,0.0,0.0,0.0,0.0,0.0,0.0,0.0,0.0,0.0,0.0,0.0,0.0,0.0,0.0,0.0,0.0,0.0,0.0,0.0,0.0,0.0,0.0,0.0,0.0,0.0,0.0,0.0,0.0,0.0,0.0,0.0,-0.6808,-0.6035,-0.5618,-0.5482,-0.5668,-0.542,0.0,0.0,0.0,0.0,0.0,0.0,0.0,0.0,0.0,0.0,0.0,0.0,0.0,0.0,0.0,0.0,0.0,0.0,0.0,0.0,0.0,0.0,0.0,0.0,0.0,0.0,0.0,0.0,0.0,0.0,0.0,0.0,0.0,0.0,0.0,0.0,0.0,0.0,0.0,0.0,0.0,0.0,0.0,0.0,0.0,0.0,0.0,0.0,0.0,0.0,0.0,0.0,0.0,0.0,0.0,0.0,0.0,0.0,0.0,0.0,0.0,0.0,0.0,0.0,0.0,0.0,0.0,0.0,0.0,0.0,0.0,0.0,0.0,0.0,0.0,0.0,0.0,0.0,0.0,0.0,0.0,0.0,0.0,0.0,0.0,0.0,0.0,0.0,0.0,0.0,0.0,0.0,0.0,0.0,0.0,0.0,0.0,0.0,0.0,0.0,0.0,0.0,0.0,0.0,0.0,0.0,0.0,0.0,0.0,-0.8182,-0.7765,-0.7186,-0.6602,-0.6441,-0.6209,0.0,0.0,0.0,0.0,0.0,0.0,0.0,0.0,0.0,0.0,0.0,0.0,0.0,0.0,0.0,0.0,0.0,0.0,0.0,0.0,0.0,0.0,0.0,0.0,0.0,0.0,0.0,0.0,0.0,0.0,0.0,0.0,0.0,0.0,0.0,0.0,0.0,0.0,0.0,0.0,0.0,0.0,0.0,0.0,0.0,0.0,0.0,0.0,0.0,0.0,0.0,0.0,0.0,0.0,0.0,0.0,0.0,0.0,0.0,0.0,0.0,0.0,0.0,0.0,0.0,0.0,0.0,0.0,0.0,0.0,0.0,0.0,0.0,0.0,0.0,0.0,0.0,0.0,0.0,0.0,0.0,0.0,0.0,0.0,0.0,0.0,0.0,0.0,0.0,0.0,0.0,0.0,0.0,0.0,0.0,0.0,0.0,0.0,0.0,0.0,0.0,0.0,0.0,0.0,0.0,0.0,0.0,0.0,-0.8616,-0.9252,-0.9108,-0.877,-0.8392,-0.7534,-0.6865,0.0,0.0,0.0,0.0,0.0,0.0,0.0,0.0,0.0,0.0,0.0,0.0,0.0,0.0,0.0,0.0,0.0,0.0,0.0,0.0,0.0,0.0,0.0,0.0,0.0,0.0,0.0,0.0,0.0,0.0,0.0,0.0,0.0,0.0,0.0,0.0,0.0,0.0,0.0,0.0,0.0,0.0,0.0,0.0,0.0,0.0,0.0,0.0,0.0,0.0,0.0,0.0,0.0,0.0,0.0,0.0,0.0,0.0,0.0,0.0,0.0,0.0,0.0,0.0,0.0,0.0,0.0,0.0,0.0,0.0,0.0,0.0,0.0,0.0,0.0,0.0,0.0,0.0,0.0,0.0,0.0,0.0,0.0,0.0,0.0,0.0,0.0,0.0,0.0,0.0,0.0,0.0,0.0,0.0,0.0,0.0,0.0,0.0,0.0,0.0,0.0,0.0,0.0,0.0,0.0,0.0,0.0,0.0,-0.9543,-1.017,-1.0179,-1.0255,-1.0322,-0.8725,-0.7516,0.0,0.0,0.0,0.0,0.0,0.0,0.0,0.0,0.0,0.0,0.0,0.0,0.0,0.0,0.0,0.0,0.0,0.0,0.0,0.0,0.0,0.0,0.0,0.0,0.0,0.0,0.0,0.0,0.0,0.0,0.0,0.0,0.0,0.0,0.0,0.0,0.0,0.0,0.0,0.0,0.0,0.0,0.0,0.0,0.0,0.0,0.0,0.0,0.0,0.0,0.0,0.0,0.0,0.0,0.0,0.0,0.0,0.0,0.0,0.0,0.0,0.0,0.0,0.0,0.0,0.0,0.0,0.0,0.0,0.0,0.0,0.0,0.0,0.0,0.0,0.0,0.0,0.0,0.0,0.0,0.0,0.0,0.0,0.0,0.0,0.0,0.0,0.0,0.0,0.0,0.0,0.0,0.0,0.0,0.0,0.0,0.0,0.0,0.0,0.0,0.0,0.0,0.0,0.0,0.0,0.0,0.0,0.0,-1.0411,-1.1279,-1.0878,-1.0831,-1.1327,-0.9831,-0.8585,0.0,0.0,0.0,0.0,0.0,0.0,0.0,0.0,0.0,0.0,0.0,0.0,0.0,0.0,0.0,0.0,0.0,0.0,0.0,0.0,0.0,0.0,0.0,0.0,0.0,0.0,0.0,0.0,0.0,0.0,0.0,0.0,0.0,0.0,0.0,0.0,0.0,0.0,0.0,0.0,0.0,0.0,0.0,0.0,0.0,0.0,0.0,0.0,-0.8273,0.0,0.0,0.0,0.0,0.0,0.0,0.0,0.0,0.0,0.0,0.0,0.0,0.0,0.0,0.0,0.0,0.0,0.0,0.0,0.0,0.0,0.0,0.0,0.0,0.0,0.0,0.0,0.0,0.0,0.0,0.0,0.0,0.0,0.0,0.0,0.0,0.0,0.0,0.0,0.0,0.0,0.0,0.0,0.0,0.0,0.0,0.0,0.0,0.0,0.0,0.0,0.0,0.0,0.0,0.0,0.0,0.0,0.0,0.0,-1.1193,-1.2147,-1.1798,-1.1862,-1.2248,-1.1101,-0.9877,0.0,0.0,0.0,0.0,0.0,0.0,0.0,0.0,0.0,0.0,0.0,0.0,0.0,0.0,0.0,0.0,0.0,0.0,0.0,0.0,0.0,0.0,0.0,0.0,0.0,0.0,0.0,0.0,0.0,0.0,0.0,0.0,0.0,0.0,0.0,0.0,0.0,0.0,0.0,0.0,0.0,0.0,0.0,0.0,0.0,0.0,0.0,0.0,0.0,0.0,0.0,0.0,0.0,0.0,0.0,0.0,0.0,0.0,0.0,0.0,0.0,0.0,0.0,0.0,0.0,0.0,0.0,0.0,0.0,0.0,0.0,0.0,0.0,0.0,0.0,0.0,0.0,0.0,0.0,0.0,0.0,0.0,0.0,0.0,0.0,0.0,0.0,0.0,0.0,0.0,0.0,0.0,0.0,0.0,0.0,0.0,0.0,0.0,0.0,0.0,0.0,0.0,0.0,0.0,0.0,0.0,0.0,-1.0915,-1.1928,-1.2915,-1.2829,-1.2899,-1.3308,-1.234,-1.1107,-0.965,0.0,0.0,0.0,0.0,0.0,0.0,0.0,0.0,0.0,0.0,0.0,0.0,0.0,0.0,0.0,0.0,0.0,0.0,0.0,0.0,0.0,0.0,0.0,0.0,0.0,0.0,0.0,0.0,0.0,0.0,0.0,0.0,0.0,0.0,0.0,0.0,0.0,0.0,-0.9083,-0.9613,0.0,0.0,0.0,0.0,0.0,0.0,0.0,0.0,-0.9543,0.0,0.0,0.0,0.0,0.0,0.0,0.0,0.0,0.0,0.0,0.0,0.0,0.0,0.0,0.0,0.0,0.0,0.0,0.0,0.0,0.0,0.0,0.0,0.0,0.0,0.0,0.0,0.0,0.0,0.0,0.0,0.0,0.0,0.0,0.0,0.0,0.0,0.0,0.0,0.0,0.0,0.0,0.0,0.0,0.0,0.0,0.0,0.0,0.0,0.0,0.0,0.0,0.0,0.0,0.0,0.0,-1.0606,-1.1378,-1.2618,-1.4206,-1.3765,-1.371,-1.4292,-1.3086,-1.1889,-1.0915,0.0,0.0,0.0,0.0,0.0,0.0,0.0,0.0,0.0,0.0,0.0,0.0,0.0,0.0,0.0,0.0,0.0,0.0,0.0,0.0,0.0,0.0,0.0,0.0,0.0,0.0,0.0,0.0,0.0,0.0,0.0,0.0,0.0,0.0,0.0,0.0,0.0,0.0,0.0,-1.1629,-1.2115,0.0,0.0,0.0,0.0,0.0,0.0,0.0,0.0,-1.138,0.0,0.0,0.0,0.0,0.0,0.0,0.0,0.0,0.0,0.0,0.0,0.0,0.0,0.0,0.0,0.0,0.0,0.0,0.0,0.0,0.0,0.0,0.0,0.0,0.0,0.0,0.0,0.0,0.0,0.0,0.0,0.0,0.0,0.0,0.0,0.0,0.0,0.0,0.0,0.0,0.0,0.0,0.0,0.0,0.0,0.0,0.0,0.0,0.0,0.0,0.0,0.0,0.0,0.0,0.0,-1.1124,-1.2388,-1.3736,-1.5019,-1.4848,-1.492,-1.5136,-1.3917,-1.2727,0.0,0.0,0.0,0.0,0.0,0.0,0.0,0.0,0.0,0.0,0.0,0.0,0.0,0.0,0.0,0.0,0.0,0.0,0.0,0.0,0.0,0.0,0.0,0.0,0.0,0.0,0.0,0.0,0.0,0.0,0.0,0.0,0.0,0.0,0.0,0.0,0.0,0.0,0.0,0.0,-1.2236,-1.2932,-1.3811,0.0,0.0,0.0,0.0,0.0,0.0,-1.348,-1.2859,0.0,0.0,0.0,0.0,0.0,0.0,0.0,0.0,0.0,0.0,0.0,0.0,0.0,0.0,0.0,0.0,0.0,0.0,0.0,0.0,0.0,0.0,0.0,0.0,0.0,0.0,0.0,0.0,0.0,0.0,0.0,0.0,0.0,0.0,0.0,0.0,0.0,0.0,0.0,0.0,0.0,0.0,0.0,0.0,0.0,0.0,0.0,0.0,0.0,0.0,0.0,0.0,0.0,0.0,0.0,-1.184,-1.3461,-1.4851,-1.5856,-1.6048,-1.6035,-1.5872,-1.4769,-1.3488,0.0,0.0,0.0,0.0,0.0,0.0,0.0,0.0,0.0,0.0,0.0,0.0,0.0,0.0,0.0,0.0,0.0,0.0,0.0,0.0,0.0,0.0,0.0,0.0,0.0,0.0,0.0,0.0,0.0,0.0,0.0,0.0,0.0,0.0,0.0,0.0,0.0,0.0,0.0,0.0,0.0,-1.381,-1.4798,-1.5153,0.0,0.0,0.0,0.0,-1.5345,-1.4934,0.0,0.0,0.0,0.0,0.0,0.0,0.0,0.0,0.0,0.0,0.0,0.0,0.0,0.0,0.0,0.0,0.0,0.0,0.0,0.0,0.0,0.0,0.0,0.0,0.0,0.0,0.0,0.0,0.0,0.0,0.0,0.0,0.0,0.0,0.0,0.0,0.0,0.0,0.0,0.0,0.0,0.0,0.0,0.0,0.0,0.0,0.0,0.0,0.0,0.0,0.0,0.0,0.0,0.0,0.0,0.0,-1.3216,-1.4458,-1.5735,-1.6947,-1.7174,-1.6999,-1.6573,-1.5498,-1.4003,0.0,0.0,0.0,0.0,0.0,0.0,0.0,0.0,0.0,0.0,0.0,0.0,0.0,0.0,0.0,0.0,0.0,0.0,0.0,0.0,0.0,0.0,0.0,0.0,0.0,0.0,0.0,0.0,0.0,0.0,0.0,0.0,0.0,0.0,0.0,0.0,0.0,0.0,0.0,0.0,0.0,-1.5751,-1.6353,-1.7409,-1.8149,0.0,0.0,-1.8227,-1.8268,-1.6802,0.0,0.0,0.0,0.0,0.0,0.0,0.0,0.0,0.0,0.0,0.0,0.0,0.0,0.0,0.0,0.0,0.0,0.0,0.0,0.0,0.0,0.0,0.0,0.0,0.0,0.0,0.0,0.0,0.0,0.0,0.0,0.0,0.0,0.0,0.0,0.0,0.0,0.0,0.0,0.0,0.0,0.0,0.0,0.0,0.0,0.0,0.0,0.0,0.0,0.0,0.0,0.0,0.0,0.0,0.0,-1.2427,-1.3839,-1.5495,-1.6828,-1.7729,-1.8145,-1.8035,-1.7274,-1.6218,-1.4747,0.0,0.0,0.0,0.0,0.0,0.0,0.0,0.0,0.0,0.0,0.0,0.0,0.0,0.0,0.0,0.0,0.0,0.0,0.0,0.0,0.0,0.0,0.0,0.0,0.0,0.0,0.0,0.0,0.0,0.0,0.0,0.0,0.0,0.0,0.0,0.0,0.0,0.0,0.0,0.0,0.0,0.0,-1.8389,-1.9366,0.0,0.0,0.0,-2.0531,-2.0208,0.0,0.0,0.0,0.0,0.0,0.0,0.0,0.0,0.0,0.0,0.0,0.0,0.0,0.0,0.0,0.0,0.0,0.0,0.0,0.0,0.0,0.0,0.0,0.0,0.0,0.0,0.0,0.0,0.0,0.0,0.0,0.0,0.0,0.0,0.0,0.0,0.0,0.0,0.0,0.0,0.0,0.0,0.0,0.0,0.0,0.0,0.0,0.0,0.0,0.0,0.0,0.0,0.0,0.0,0.0,0.0,0.0,-1.4425,-1.649,-1.7876,-1.8412,-1.9105,-1.9008,-1.7955,-1.6936,0.0,0.0,0.0,0.0,0.0,0.0,0.0,0.0,0.0,0.0,0.0,0.0,0.0,0.0,0.0,0.0,0.0,0.0,0.0,0.0,0.0,0.0,0.0,0.0,0.0,0.0,0.0,-0.5853,0.0,0.0,0.0,0.0,0.0,0.0,0.0,0.0,0.0,0.0,0.0,0.0,0.0,0.0,-1.8423,-2.0146,-2.1231,-2.2103,0.0,0.0,-2.264,-2.2154,-2.1146,-1.9929,0.0,0.0,0.0,0.0,0.0,0.0,0.0,0.0,0.0,0.0,0.0,0.0,0.0,0.0,0.0,0.0,0.0,0.0,0.0,0.0,0.0,0.0,0.0,0.0,0.0,0.0,0.0,0.0,0.0,0.0,0.0,0.0,0.0,0.0,0.0,0.0,0.0,0.0,0.0,0.0,0.0,0.0,0.0,0.0,0.0,0.0,0.0,0.0,0.0,0.0,0.0,0.0,0.0,0.0,-1.3658,-1.541,-1.7389,-1.8621,-1.9026,-2.0006,-1.9913,-1.8648,-1.769,-1.611,0.0,0.0,0.0,0.0,0.0,0.0,0.0,0.0,0.0,0.0,0.0,0.0,0.0,0.0,0.0,0.0,0.0,0.0,0.0,0.0,0.0,0.0,0.0,0.0,0.0,0.0,0.0,0.0,0.0,0.0,0.0,0.0,0.0,0.0,0.0,0.0,0.0,0.0,0.0,0.0,0.0,-1.9822,-2.1217,-2.301,-2.4482,0.0,-2.4787,-2.4393,-2.4443,-2.2332,-2.0646,-2.0572,0.0,0.0,0.0,0.0,0.0,0.0,0.0,0.0,0.0,0.0,0.0,0.0,0.0,0.0,0.0,0.0,0.0,0.0,0.0,0.0,0.0,0.0,0.0,0.0,0.0,0.0,0.0,0.0,0.0,0.0,0.0,0.0,0.0,0.0,0.0,0.0,0.0,0.0,0.0,0.0,0.0,0.0,0.0,0.0,0.0,0.0,0.0,0.0,0.0,0.0,0.0,0.0,0.0,-1.3962,-1.5844,-1.7766,-1.9065,-1.9737,-2.0618,-2.0529,-1.9287,-1.8611,-1.7289,0.0,0.0,0.0,0.0,0.0,0.0,0.0,0.0,0.0,0.0,0.0,0.0,0.0,0.0,0.0,0.0,0.0,0.0,0.0,0.0,0.0,0.0,0.0,0.0,0.0,0.0,0.0,0.0,-0.8088,-0.8457,-0.839,0.0,0.0,0.0,0.0,0.0,0.0,0.0,0.0,0.0,0.0,-2.1502,-2.3226,-2.4505,0.0,0.0,-2.6123,-2.5895,-2.5554,-2.4349,-2.302,-2.1952,-2.0249,0.0,0.0,0.0,0.0,0.0,0.0,0.0,0.0,0.0,0.0,0.0,0.0,0.0,0.0,0.0,0.0,0.0,0.0,0.0,0.0,0.0,0.0,0.0,0.0,0.0,0.0,0.0,0.0,0.0,0.0,0.0,0.0,0.0,0.0,0.0,0.0,0.0,0.0,0.0,0.0,0.0,0.0,0.0,0.0,0.0,0.0,0.0,0.0,0.0,0.0,0.0,0.0,-1.4237,-1.6207,-1.8178,-1.957,-2.0274,-2.1244,-2.1228,-2.0169,-1.9517,-1.8312,0.0,0.0,0.0,0.0,0.0,0.0,0.0,0.0,0.0,0.0,0.0,0.0,0.0,0.0,0.0,0.0,0.0,0.0,0.0,0.0,0.0,0.0,0.0,0.0,0.0,0.0,0.0,0.0,-0.8549,-0.8692,-0.8431,0.0,0.0,0.0,0.0,0.0,0.0,0.0,0.0,0.0,0.0,-2.2802,-2.4782,-2.5848,-2.6679,-2.7308,-2.7363,-2.7103,-2.6461,-2.5711,-2.4686,-2.325,0.0,0.0,0.0,0.0,0.0,0.0,0.0,0.0,0.0,0.0,0.0,0.0,0.0,0.0,0.0,0.0,0.0,0.0,0.0,0.0,0.0,0.0,0.0,0.0,0.0,0.0,0.0,-0.5947,0.0,0.0,-0.5458,0.0,0.0,0.0,0.0,0.0,0.0,0.0,0.0,0.0,0.0,0.0,0.0,0.0,0.0,0.0,0.0,0.0,0.0,0.0,0.0,0.0,0.0,-1.4473,-1.6461,-1.8634,-2.0069,-2.0803,-2.1813,-2.2019,-2.1332,-2.0334,-1.9076,-1.7581,0.0,0.0,0.0,0.0,0.0,0.0,0.0,0.0,0.0,0.0,0.0,0.0,0.0,0.0,0.0,0.0,0.0,0.0,0.0,0.0,0.0,0.0,0.0,0.0,0.0,0.0,-0.9566,-0.9551,-0.9223,0.0,0.0,0.0,0.0,0.0,0.0,0.0,0.0,0.0,-1.8686,-2.1159,-2.3623,-2.5693,-2.7162,-2.8237,-2.8902,-2.8595,-2.8033,-2.7286,-2.6206,-2.5212,0.0,0.0,0.0,0.0,0.0,0.0,0.0,0.0,0.0,0.0,0.0,0.0,0.0,0.0,0.0,0.0,0.0,0.0,0.0,0.0,0.0,0.0,0.0,0.0,0.0,0.0,0.0,-0.6584,-0.634,0.0,0.0,0.0,0.0,0.0,0.0,0.0,0.0,0.0,0.0,0.0,-0.9734,-0.9965,0.0,0.0,0.0,0.0,0.0,0.0,0.0,0.0,0.0,0.0,0.0,0.0,-1.5042,-1.6688,-1.8731,-2.0216,-2.1063,-2.204,-2.2298,-2.1761,-2.0982,-1.9601,-1.7458,0.0,0.0,0.0,0.0,0.0,0.0,0.0,0.0,0.0,0.0,0.0,0.0,0.0,0.0,0.0,0.0,0.0,0.0,0.0,0.0,0.0,0.0,0.0,0.0,0.0,-0.9713,0.0,0.0,0.0,0.0,0.0,0.0,0.0,0.0,0.0,0.0,-1.6536,-1.8959,-2.0751,-2.3016,-2.5051,-2.6592,-2.7581,-2.8437,0.0,0.0,0.0,0.0,0.0,0.0,0.0,0.0,0.0,0.0,0.0,0.0,0.0,-2.476,-2.3337,-1.982,-1.9152,-1.9178,-1.9219,0.0,0.0,0.0,0.0,0.0,0.0,0.0,0.0,0.0,0.0,0.0,0.0,0.0,0.0,-0.7673,-0.7328,-0.7245,0.0,0.0,0.0,0.0,0.0,0.0,0.0,0.0,-1.0107,-1.0639,-1.1378,-1.1649,-1.1975,-1.2302,-1.2659,-1.1928,0.0,0.0,0.0,0.0,0.0,0.0,0.0,0.0,-1.562,-1.7115,-1.9154,-2.0602,-2.1299,-2.2328,-2.2687,-2.2328,-2.1411,-1.9964,-1.8025,-1.6405,-1.4941,0.0,0.0,0.0,0.0,0.0,0.0,0.0,0.0,0.0,0.0,0.0,0.0,0.0,0.0,0.0,0.0,0.0,0.0,0.0,0.0,0.0,0.0,0.0,-1.0705,0.0,0.0,0.0,0.0,0.0,0.0,0.0,0.0,0.0,-1.5999,-1.8205,-2.0572,-2.2625,-2.4479,-2.6118,-2.7466,0.0,0.0,0.0,0.0,0.0,0.0,0.0,-2.8699,-2.7744,-2.7856,-2.8069,-2.8112,-2.8369,-2.8665,-2.9015,0.0,0.0,-2.4334,-2.3763,-2.3963,-2.4015,-2.4134,-2.4552,-2.5533,-2.5893,-2.6437,0.0,0.0,0.0,0.0,-0.736,0.0,0.0,0.0,-0.9098,-0.9195,0.0,-0.8532,0.0,0.0,0.0,0.0,-0.9062,-0.9102,0.0,0.0,-1.1655,-1.2197,-1.3218,-1.3488,-1.3852,-1.423,-1.4295,-1.4198,-1.3761,-1.2377,0.0,0.0,0.0,0.0,0.0,0.0,-1.6258,-1.7718,-1.9845,-2.1125,-2.1535,-2.2568,-2.3125,-2.3002,-2.1568,-2.0318,-1.9255,-1.7734,-1.6239,-1.4866,-1.3866,0.0,0.0,0.0,0.0,0.0,0.0,0.0,0.0,0.0,0.0,0.0,0.0,0.0,0.0,0.0,0.0,0.0,0.0,0.0,0.0,-1.1661,0.0,0.0,0.0,0.0,0.0,0.0,0.0,0.0,0.0,-1.8614,-1.8528,-2.0202,-2.2167,-2.416,0.0,0.0,0.0,0.0,-2.9566,-2.9569,-2.9688,-2.9536,-2.886,-2.9415,-2.9756,-2.916,0.0,0.0,-3.1207,-3.1499,-3.1768,-3.214,-3.2282,-3.1638,-2.9586,-2.9583,-3.0036,-3.0106,-3.0127,-3.0393,-3.0477,-3.0558,-3.0975,-0.7654,0.0,0.0,0.0,0.0,-0.8629,-0.9144,-0.9404,-1.0276,-1.0357,-0.9907,-0.9938,0.0,0.0,0.0,0.0,0.0,0.0,-1.1602,-1.292,-1.2949,-1.3382,-1.4225,-1.4389,-1.4695,-1.5211,-1.5515,-1.5633,-1.5529,-1.5405,-1.4336,-1.2456,0.0,0.0,0.0,0.0,-1.7085,-1.781,-1.9858,-2.1192,-2.1477,-2.2568,-2.2949,-2.256,-2.2223,-2.1361,-1.9952,-1.9287,-1.8244,-1.6771,-1.5429,0.0,0.0,0.0,0.0,0.0,0.0,0.0,0.0,0.0,0.0,0.0,0.0,0.0,0.0,0.0,0.0,0.0,0.0,0.0,-1.3207,-1.3989,-1.4402,0.0,0.0,0.0,0.0,0.0,0.0,0.0,0.0,0.0,-2.3088,-2.3523,-2.4188,0.0,0.0,-2.8488,-2.9263,-2.9942,-3.0507,-3.0926,-3.1085,0.0,-3.0905,-3.1158,-3.1524,-3.1892,-3.2915,-3.3822,-3.4118,-3.4482,-3.4778,-3.5065,-3.5677,-3.5958,-3.5448,-3.3773,-3.2862,-3.3266,-3.3512,-3.3845,-3.434,-3.462,-3.4952,-0.8866,-0.8677,-0.8172,-0.8144,-0.8478,-0.9522,-1.0049,-1.0221,-1.1199,-1.1328,-1.091,-1.1064,-1.09,-1.0478,-1.0749,0.0,0.0,0.0,-1.3027,-1.4258,-1.4258,-1.469,-1.5535,-1.5725,-1.6063,-1.6488,-1.6675,-1.6751,-1.6811,-1.7027,-1.6438,-1.5109,0.0,-1.5271,-1.5491,-1.6775,-1.7748,-1.8376,-2.027,-2.133,-2.1492,-2.2524,-2.2975,-2.2648,-2.2337,-2.1797,-2.0898,-2.02,-1.9199,-1.79,-1.6908,-1.549,0.0,0.0,0.0,0.0,0.0,0.0,0.0,0.0,0.0,0.0,0.0,-0.7691,-0.8482,0.0,0.0,0.0,-1.2756,-1.4274,-1.5536,-1.6055,0.0,0.0,0.0,0.0,0.0,0.0,0.0,-2.1684,-2.3482,-2.5039,-2.6084,-2.6811,-2.7342,-2.7558,-2.869,-2.9772,-3.0587,0.0,-3.1401,-3.1726,-3.2079,-3.2305,-3.2321,-3.2838,-3.3551,-3.4447,-3.53,-3.5954,-3.6286,-3.6639,-3.6953,-3.7258,-3.7784,-3.8397,-3.8831,-3.7434,-3.6285,-3.6478,-3.6685,-3.6958,-3.7421,-3.7623,-3.7932,-1.0171,-1.0384,-0.9573,-0.9361,-0.9713,-1.0577,-1.0997,-1.1122,-1.1969,-1.2197,-1.1976,-1.2128,-1.2123,-1.1998,-1.2469,0.0,-1.3451,-1.3607,-1.4311,-1.5449,-1.5459,-1.5998,-1.7024,-1.7264,-1.7575,-1.7863,-1.7712,-1.7745,-1.7867,-1.769,-1.7678,-1.7848,-1.676,-1.6459,-1.6948,-1.7511,-1.8313,-1.9206,-2.081,-2.1631,-2.156,-2.2503,-2.3015,-2.299,-2.2204,-2.1746,-2.178,-2.0641,-1.9548,-1.8591,-1.8248,-1.7081,-1.498,0.0,0.0,0.0,0.0,0.0,0.0,0.0,0.0,0.0,0.0,0.0,0.0,0.0,0.0,0.0,-1.5458,0.0,-1.7983,-1.8051,0.0,0.0,0.0,-2.0067,-2.1583,-2.2525,-2.3534,-2.4825,0.0,0.0,-2.7941,-2.9863,-3.1103,-3.0775,-3.0514,-3.086,-3.2131,-3.2329,-3.2378,-3.2416,-3.2902,-3.3356,-3.3518,-3.4524,-3.5633,-3.6476,-3.7081,-3.7436,-3.7767,-3.8167,-3.8448,-3.8711,-3.898,-3.9408,-4.0211,-4.0272,-4.034,-3.9533,-3.9511,-3.967,-3.9699,-3.9838,-3.9917,-1.0579,-1.0827,-1.0955,-1.0926,-1.0834,-1.1759,-1.2212,-1.2422,-1.3123,-1.3279,-1.3144,-1.3424,-1.3578,-1.3624,-1.3853,-1.4255,-1.4821,-1.494,-1.5441,-1.6129,-1.6148,-1.6441,-1.6961,-1.7169,-1.7419,-1.7771,-1.8038,-1.8397,-1.8776,-1.8811,-1.8744,-1.8602,-1.8277,-1.8113,-1.8137,-1.8708,-1.9081,-1.9198,-2.0463,-2.1411,-2.2076,-2.2343,-2.2498,-2.2498,-2.2058,-2.1665,-2.1335,-2.138,-2.0917,-1.99,-1.9133,-1.8228,-1.7014,-1.5443,0.0,0.0,0.0,0.0,0.0,0.0,0.0,0.0,0.0,-1.1465,-1.2257,0.0,-1.4891,0.0,-1.7763,-1.9673,-2.1066,-2.1211,0.0,0.0,-2.3089,-2.379,-2.4714,-2.5979,-2.692,-2.7262,-2.9125,-3.0458,-3.0571,-3.2015,-3.3151,-3.3422,-3.269,-3.238,-3.3162,-3.3661,-3.4088,-3.4528,-3.5145,-3.5665,-3.561,-3.6328,-3.7106,-3.7494,-3.8272,-3.902,-3.921,-3.9596,-3.9987,-4.0052,-4.0395,-4.0756,-4.0941,-4.1173,-4.1271,-4.1095,-4.1147,-4.1233,-4.1276,-4.1428,-4.1535,-1.1177,-1.1469,-1.2029,-1.2117,-1.1945,-1.2439,-1.279,-1.3003,-1.3454,-1.3679,-1.3623,-1.4084,-1.4285,-1.4417,-1.4781,-1.5157,-1.5485,-1.5682,-1.6097,-1.6541,-1.6615,-1.684,-1.7275,-1.7481,-1.775,-1.8191,-1.8375,-1.8757,-1.9216,-1.9283,-1.9237,-1.9088,-1.9165,-1.9166,-1.8969,-1.913,-1.9279,-1.9477,-2.0345,-2.1154,-2.1907,-2.1945,-2.2002,-2.2034,-2.1737,-2.1412,-2.1223,-2.1366,-2.1099,-2.0348,-2.0069,-1.9378,-1.812,-1.7006,-1.5949,0.0,0.0,0.0,0.0,0.0,0.0,0.0,0.0,0.0,0.0,0.0,-1.7987,-1.9395,-2.1029,-2.2513,-2.3752,-2.4156,-2.4756,-2.5665,-2.6402,-2.7154,-2.7959,-2.9369,-3.0226,-3.0226,-3.1651,-3.2647,-3.2586,-3.3539,-3.4311,-3.4644,-3.4351,-3.4242,-3.4648,-3.5035,-3.5383,-3.5955,-3.664,-3.7192,-3.7378,-3.7775,-3.8145,-3.8356,-3.9007,-3.9537,-3.9677,-4.0138,-4.0485,-4.0534,-4.0871,-4.1198,-4.1209,-4.1363,-4.1515,-4.1604,-4.1648,-4.1736,-4.1797,-4.1909,-4.1995,-1.1781,-1.2077,-1.2599,-1.29,-1.2938,-1.2884,-1.2999,-1.3202,-1.3541,-1.3735,-1.3921,-1.4405,-1.4679,-1.4804,-1.5397,-1.5714,-1.578,-1.6067,-1.6449,-1.6778,-1.6788,-1.7101,-1.7628,-1.7862,-1.8212,-1.8654,-1.8671,-1.8924,-1.9421,-1.936,-1.9376,-1.9446,-1.9781,-1.9812,-1.9624,-1.932,-1.9371,-1.9811,-2.0395,-2.0932,-2.1368,-2.138,-2.1436,-2.1576,-2.1176,-2.1041,-2.1186,-2.1062,-2.0855,-2.0503,-2.0905,-2.0454,-1.8993,-1.8611,-1.8001,0.0,-1.6668,0.0,0.0,0.0,0.0,0.0,0.0,0.0,0.0,-1.9094,-2.1389,-2.3557,-2.454,-2.538,-2.6192,-2.6973,-2.7808,-2.8664,-2.9403,-3.0177,-3.1076,-3.2265,-3.3041,-3.3059,-3.3731,-3.4174,-3.4077,-3.4713,-3.5153,-3.513,-3.5445,-3.5853,-3.6343,-3.6304,-3.6439,-3.7051,-3.7571,-3.8192,-3.8597,-3.8794,-3.8865,-3.9077,-3.9345,-3.959,-3.9729,-4.0188,-4.0485,-4.0551,-4.084,-4.1076,-4.118,-4.1335,-4.1426,-4.156,-4.1604,-4.1648,-4.1754,-4.178,-4.1866,-1.1781,-1.2077,-1.2452,-1.2746,-1.2886,-1.3071,-1.3316,-1.3675,-1.3882,-1.4159,-1.4442,-1.4725,-1.5093,-1.5583,-1.5722,-1.5922,-1.6189,-1.6267,-1.6432,-1.6642,-1.6789,-1.7023,-1.7304,-1.7794,-1.8076,-1.8212,-1.8716,-1.9204,-1.9597,-1.9684,-1.9839,-2.0174,-2.031,-2.0177,-1.9806,0.0,0.0,0.0,-2.0382,-2.0744,-2.0869,-2.0869,-2.0936,-2.1044,-2.0603,0.0,-2.0729,-2.0888,-2.1126,-2.1343,-2.1218,0.0,0.0,0.0,0.0,0.0,0.0,0.0,0.0,0.0,0.0,0.0,-2.1296,-2.0894,-1.9402,-2.1854,-2.4231,-2.5913,-2.6859,-2.7692,-2.8476,-2.9315,-3.0176,-3.1039,-3.1817,-3.2576,-3.3335,-3.3706,-3.3865,-3.3891,-3.4513,-3.4962,-3.5007,-3.557,-3.5993,-3.5925,-3.6037,-3.6583,-3.7648,-3.7489,-3.7551,-3.8052,-3.8595,-3.897,-3.9082,-3.9255,-3.9325,-3.9432,-3.9625,-3.9833,-3.9969,-4.0205,-4.047,-4.0617,-4.0793,-4.1,-4.1157,-4.1307,-4.1426,-4.156,-4.1604,-4.1604,-4.1648,-4.1736,-4.1823,-1.1781,-1.2003,-1.2452,-1.2673,0.0,-1.3046,-1.3346,-1.3492,-1.3855,-1.4145,-1.4353,-1.4641,-1.4927,-1.5221,-1.5505,-1.5718,-1.5929,-1.5982,-1.6193,-1.6333,-1.6482,-1.6691,-1.7028,-1.7323,-1.7666,-1.8008,-1.8472,-1.8942,-1.933,-1.9695,-1.9954,-2.0093,-2.0329,-2.037,-2.0157,-2.0569,-2.0478,-1.9811,-2.0097,-2.026,-2.0238,-2.0238,-2.0355,-2.0525,-2.0348,0.0,0.0,0.0,0.0,0.0,0.0,0.0,0.0,-2.1532,-2.1302,-2.134,-2.1255,-2.1399,-2.1802,-2.2415,-2.2929,-2.3276,-2.4596,-2.4758,-2.3308,-2.4972,-2.6573,-2.7758,-2.866,-2.95,-3.0253,-3.1153,-3.2021,-3.2852,-3.3593,-3.4197,-3.4594,-3.4962,-3.5192,-3.518,-3.5531,-3.5756,-3.5732,-3.6042,-3.6284,-3.6233,-3.6233,-3.662,-3.7552,-3.7806,-3.813,-3.8992,-3.9341,-3.954,-3.9435,-3.9504,-3.959,-3.9625,-3.9833,-3.9969,-4.007,-4.0337,-4.0551,-4.0666,-4.0793,-4.0935,-4.1111,-4.1215,-4.1346,-4.1471,-4.156,-4.1604,-4.1604,-4.1648,-4.1754,-1.1855,-1.2003,-1.2372,-1.2599,-1.2599,-1.2973,-1.3119,-1.3193,-1.3572,0.0,0.0,-1.4353,-1.4497,-1.4641,-1.507,-1.5363,-1.5434,-1.5559,-1.578,-1.5921,-1.5991,-1.6281,-1.6691,-1.6839,-1.7185,-1.7803,-1.8144,-1.8472,-1.8998,-1.9539,-1.9792,-1.9876,-2.0279,-2.0517,-2.0626,-2.0897,-2.0754,-2.0097,-2.01,-2.01,-2.01,-2.0152,-2.0256,-2.0476,-2.0527,-2.0746,-2.1242,-2.1416,-2.1735,-2.2125,-2.2555,-2.2655,-2.2527,-2.2833,-2.2936,-2.2793,-2.3025,-2.3358,-2.3719,-2.4579,-2.5265,-2.5622,-2.7171,-2.7855,-2.7148,-2.7791,-2.8484,-2.9127,-3.0023,-3.0868,-3.1641,-3.2548,-3.3421,-3.4214,-3.4938,-3.5387,-3.5421,-3.5904,-3.6215,-3.6284,-3.6249,-3.6284,-3.6249,-3.6266,-3.6284,-3.6284,-3.6301,-3.6559,-3.7239,-3.7889,-3.871,-3.9716,-3.9952,-3.9935,-3.9884,-3.9867,-3.9833,-3.9884,-4.002,-4.0171,-4.0221,-4.0419,-4.0631,-4.0745,-4.084,-4.0935,-4.1093,-4.1152,-4.1272,-4.138,-4.1515,-4.1604,-4.1604,-4.1648,-4.1754,-1.1781,-1.2009,-1.2224,-1.2452,-1.2599,-1.268,-1.2746,-1.2973,-1.3564,-1.3797,-1.3863,-1.4065,-1.4281,-1.4433,-1.4497,-1.4721,-1.5007,-1.5007,-1.5141,-1.5346,-1.5497,-1.5726,-1.6017,-1.6403,-1.6751,-1.7116,-1.7725,-1.8202,-1.8576,-1.91,-1.9596,-2.0073,-2.0587,-2.0915,-2.1141,-2.0803,-2.073,-2.1101,-2.1199,-2.1242,-2.1255,-2.1352,-2.1517,-2.1668,-2.1831,-2.2085,-2.2525,-2.2643,-2.3008,-2.3585,-2.39,-2.4189,-2.4557,-2.4796,-2.5182,-2.5574,-2.5793,-2.6139,-2.656,-2.7001,-2.7545,-2.8169,-2.9147,-2.9465,-2.8772,-2.9364,-2.982,-2.9973,-3.0772,-3.1671,-3.2388,-3.3321,-3.418,-3.4973,-3.5697,-3.6146,-3.6094,-3.6215,-3.6284,-3.6284,-3.6284,-3.6284,-3.6284,-3.6284,-3.6284,-3.6284,-3.6284,-3.6585,-3.7404,-3.8459,-3.9426,-4.0212,-4.0402,-4.0436,-4.032,-4.037,-4.0337,-4.037,-4.0387,-4.0485,-4.0551,-4.0583,-4.0631,-4.084,-4.0871,-4.0935,-4.1076,-4.1134,-4.1209,-4.138,-4.1515,-4.1604,-4.1604,-4.1692,-4.1841,-1.1781,-1.1855,-1.215,-1.2378,-1.2452,-1.2526,-1.2746,-1.29,-1.32,-1.3346,-1.3346,-1.3564,-1.3695,-1.3928,-1.4,-1.4217,-1.4497,-1.4497,-1.4569,-1.4776,-1.4927,-1.5213,-1.5655,-1.6,-1.6412,-1.6908,-1.7451,-1.7862,-1.8259,-1.8854,-1.9375,-1.9704,-2.0506,-2.1032,-2.1249,-2.1391,-2.1572,-2.175,-2.1522,-2.1437,-2.1493,-2.1648,-2.1746,-2.1911,-2.2089,-2.2387,-2.2777,-2.3003,-2.3344,-2.3937,-2.4255,-2.4603,-2.5096,-2.5349,-2.5693,-2.6092,-2.6468,-2.6761,-2.7148,-2.8118,-2.9015,-2.9833,-3.0381,-3.0565,-3.0209,-3.0497,-3.0717,-3.07,-3.1159,-3.1901,-3.3089,-3.3711,-3.4484,-3.568,-3.6111,-3.6284,-3.6284,-3.6284,-3.6284,-3.6284,-3.6284,-3.6284,-3.6284,-3.6284,-3.6284,-3.6284,-3.6284,-3.6627,-3.7342,-3.7966,-3.8757,-3.9692,-3.9966,-4.0155,-4.0414,-4.0485,-4.0485,-4.0485,-4.0534,-4.0648,-4.0697,-4.0697,-4.0793,-4.0888,-4.0871,-4.0935,-4.0965,-4.1059,-4.1198,-4.1272,-4.1408,-4.1498,-4.1604,-4.1736,-4.1927,-1.1706,-1.1706,-1.2157,-1.2305,-1.2298,-1.2452,-1.2599,-1.2746,-1.2753,-1.2753,-1.282,-1.3046,-1.32,-1.3346,-1.3564,-1.3783,-1.392,-1.3985,-1.4137,-1.4353,-1.4497,-1.4784,-1.5284,-1.5576,-1.607,-1.6691,-1.7107,-1.752,-1.7998,-1.8539,-1.8998,-1.9375,-2.0237,-2.0839,-2.1169,-2.1675,-2.2061,-2.2137,-2.1783,-2.1642,-2.18,-2.2015,-2.2196,-2.2296,-2.2489,-2.2821,-2.3217,-2.346,-2.3859,-2.4381,-2.4731,-2.5135,-2.56,-2.5905,-2.6223,-2.6581,-2.6962,-2.7378,-2.7812,-2.896,-3.0028,-3.0821,-3.1072,-3.1151,-3.119,-3.119,-3.119,-3.119,-3.1257,-3.1896,-3.3157,-3.3585,-3.4215,-3.5611,-3.5973,-3.6008,-3.6042,-3.6197,-3.6284,-3.6284,-3.6284,-3.6284,-3.6284,-3.6284,-3.6284,-3.6284,-3.6284,-3.6592,-3.7092,-3.7214,-3.7757,-3.8654,-3.9186,-3.9564,-4.0155,-4.0275,-4.036,-4.0497,-4.068,-4.0745,-4.0745,-4.084,-4.0888,-4.0871,-4.0871,-4.0935,-4.0935,-4.1029,-4.1152,-4.1209,-4.1363,-4.1515,-4.171,-4.1884,-4.2055,-1.1706,-1.1781,-1.215,-1.2305,-1.2305,-1.2305,-1.2378,-1.2378,-1.2378,-1.2372,-1.2452,-1.2753,-1.2973,-1.2973,-1.32,-1.3346,-1.3564,-1.3717,-1.3928,-1.4137,-1.4353,-1.4497,-1.4792,-1.5284,-1.5718,-1.6202,-1.67,-1.7245,-1.7706,-1.7998,-1.8539,-1.9243,-1.9901,-2.0431,-2.0903,-2.1158,-2.1612,-2.2197,-2.2274,-2.2457,-2.276,-2.3179,-2.3403,-2.3475,-2.3755,-2.4058,-2.4323,-2.4673,-2.5108,-2.5671,-2.5952,-2.6404,-2.6924,-2.7265,-2.7579,-2.7957,-2.8372,-2.8902,-2.9512,-3.0058,-3.0444,-3.0871,-3.0975,-3.1055,-3.119,-3.119,-3.119,-3.119,-3.1252,-3.1742,-3.2593,-3.2843,-3.3373,-3.4369,-3.4956,-3.5301,-3.537,-3.5904,-3.6284,-3.6284,-3.6163,-3.6284,-3.6215,-3.6249,-3.6284,-3.6284,-3.6284,-3.6318,-3.6481,-3.655,-3.6784,-3.7602,-3.8205,-3.8894,-3.9549,-3.9755,-3.9979,-4.0565,-4.0819,-4.0698,-4.0612,-4.075,-4.0853,-4.0664,-4.0871,-4.0871,-4.0965,-4.1041,-4.118,-4.1255,-4.1408,-4.1648,-4.1902,-4.2097,-4.2246,-1.1706,-1.1787,-1.215,-1.2305,-1.2305,-1.2305,-1.2305,-1.2305,-1.2305,-1.2305,-1.2305,-1.2452,-1.2606,-1.2746,-1.282,-1.3046,-1.3346,-1.3426,-1.3564,-1.3783,-1.4057,-1.4353,-1.4497,-1.507,-1.5568,-1.6061,-1.6551,-1.7038,-1.7588,-1.8076,-1.8607,-1.9187,-1.9594,-1.9987,-2.0431,-2.0828,-2.1273,-2.1726,-2.2111,-2.2432,-2.28,-2.333,-2.3616,-2.3628,-2.3936,-2.4287,-2.4563,-2.4835,-2.5286,-2.5839,-2.6165,-2.6553,-2.7167,-2.7386,-2.769,-2.8039,-2.8668,-2.9213,-2.9766,-3.0172,-3.0543,-3.0855,-3.0975,-3.1072,-3.119,-3.119,-3.119,-3.119,-3.1213,-3.1596,-3.2434,-3.265,-3.3054,-3.3899,-3.4369,-3.4542,-3.4542,-3.4818,-3.4973,-3.5007,-3.537,-3.5645,-3.5714,-3.6042,-3.6266,-3.6284,-3.6266,-3.6197,-3.6266,-3.6284,-3.6439,-3.6749,-3.7077,-3.7732,-3.8732,-3.9043,-3.9215,-3.9439,-3.9526,-3.9526,-3.9681,-4.044,-4.075,-4.0267,-4.0555,-4.0814,-4.1047,-4.1076,-4.1169,-4.122,-4.1525,-4.1841,-4.2139,-4.2264,-4.2226,-1.1706,-1.1781,-1.2157,-1.2305,-1.2305,-1.2305,-1.2305,-1.2231,-1.2305,-1.2305,-1.2231,-1.2305,-1.2378,-1.2526,-1.2599,-1.2826,-1.3119,-1.32,-1.3353,-1.3564,-1.392,-1.4201,-1.4505,-1.4919,-1.5488,-1.6053,-1.6412,-1.683,-1.7539,-1.8144,-1.8607,-1.8942,-1.9274,-1.966,-2.0042,-2.0506,-2.0967,-2.1336,-2.1862,-2.2321,-2.2616,-2.315,-2.3509,-2.3628,-2.3923,-2.4287,-2.4549,-2.4835,-2.5286,-2.5893,-2.6165,-2.6539,-2.7181,-2.735,-2.7655,-2.8152,-2.8763,-2.9289,-2.9766,-3.013,-3.0501,-3.0871,-3.0935,-3.1032,-3.1151,-3.119,-3.119,-3.119,-3.119,-3.1523,-3.2144,-3.232,-3.2655,-3.3365,-3.3611,-3.3749,-3.3749,-3.3904,-3.4128,-3.4145,-3.4611,-3.4887,-3.4956,-3.5301,-3.5576,-3.5594,-3.5628,-3.568,-3.5697,-3.5628,-3.5645,-3.5714,-3.5835,-3.6663,-3.7956,-3.8284,-3.8318,-3.8577,-3.8698,-3.8732,-3.8594,-3.9681,-4.0198,-3.9508,-4.0055,-4.0239,-4.0158,-4.0342,-4.0669,-4.0858,-4.112,-4.1357,-4.1372,-4.1654,-4.1654,-1.1706,-1.1781,-1.215,-1.2305,-1.2305,-1.2305,-1.215,-1.2003,-1.2224,-1.215,-1.2077,-1.2231,-1.2305,-1.2305,-1.2526,-1.2673,-1.29,-1.3119,-1.3419,-1.379,-1.4,-1.4274,-1.4569,-1.4991,-1.5488,-1.6061,-1.6263,-1.6769,-1.747,-1.8066,-1.8405,-1.8549,-1.8942,-1.9396,-1.9868,-2.0205,-2.0658,-2.1158,-2.1675,-2.2049,-2.242,-2.2896,-2.3258,-2.3628,-2.3923,-2.4229,-2.4563,-2.4835,-2.5272,-2.5893,-2.6165,-2.6606,-2.7115,-2.735,-2.7755,-2.8477,-2.8889,-2.9289,-2.9766,-3.0044,-3.0401,-3.0831,-3.0912,-3.0992,-3.1151,-3.119,-3.119,-3.119,-3.119,-3.1336,-3.1543,-3.1705,-3.1747,-3.2038,-3.2593,-3.2904,-3.2972,-3.349,-3.4007,-3.399,-3.4042,-3.4219,-3.4219,-3.4162,-3.4392,-3.4409,-3.4323,-3.4375,-3.4461,-3.4318,-3.4352,-3.449,-3.4921,-3.5766,-3.7146,-3.7525,-3.7836,-3.8025,-3.8094,-3.8405,-3.856,-3.8663,-3.8646,-3.8691,-3.8841,-3.892,-3.8937,-3.9155,-3.9553,-3.9817,-4.0116,-4.0321,-4.0748,-4.058,-4.0655,-1.1558,-1.1929,-1.2003,-1.2077,-1.2083,-1.2009,-1.1855,-1.1781,-1.1855,-1.1855,-1.1855,-1.2003,-1.2077,-1.2157,-1.2305,-1.2599,-1.29,-1.3119,-1.3419,-1.3797,-1.4015,-1.4289,-1.4633,-1.5046,-1.5542,-1.6053,-1.6272,-1.67,-1.7461,-1.8076,-1.8337,-1.8405,-1.8751,-1.9075,-1.9407,-1.9868,-2.0324,-2.0828,-2.1336,-2.1839,-2.2359,-2.2775,-2.3198,-2.3556,-2.3806,-2.4171,-2.4563,-2.4835,-2.5286,-2.5893,-2.6179,-2.6539,-2.713,-2.759,-2.8005,-2.8444,-2.8858,-2.9289,-2.9782,-3.0044,-3.0401,-3.0831,-3.0912,-3.0958,-3.1151,-3.119,-3.119,-3.1173,-3.1173,-3.1269,-3.1368,-3.1462,-3.1538,-3.1685,-3.1987,-3.2231,-3.2231,-3.2455,-3.2628,-3.2679,-3.3062,-3.364,-3.4042,-3.4289,-3.4306,-3.4306,-3.4233,-3.4125,-3.4159,-3.4138,-3.399,-3.4076,-3.4318,-3.4663,-3.5111,-3.6232,-3.6835,-3.6956,-3.7077,-3.7077,-3.7163,-3.7344,-3.7361,-3.7897,-3.7939,-3.8136,-3.8345,-3.8923,-3.9171,-3.9465,-3.97,-3.9747,-4.0292,-4.0184,-4.0229,-1.1484,-1.1861,-1.1929,-1.1935,-1.1855,-1.1706,-1.1564,-1.1558,-1.1558,-1.1558,-1.1558,-1.1781,-1.1929,-1.2003,-1.2224,-1.2519,-1.29,-1.3046,-1.3411,-1.3863,-1.4015,-1.4369,-1.4776,-1.5037,-1.5534,-1.6123,-1.6482,-1.6908,-1.747,-1.794,-1.8124,-1.8337,-1.8539,-1.8875,-1.9131,-1.9605,-2.0129,-2.0582,-2.1083,-2.1714,-2.2285,-2.2665,-2.309,-2.3509,-2.376,-2.4041,-2.4563,-2.4835,-2.5286,-2.5839,-2.6179,-2.6539,-2.7181,-2.7705,-2.8118,-2.8411,-2.8873,-2.9178,-2.9415,-2.9685,-2.9939,-3.0145,-3.0191,-3.0269,-3.048,-3.048,-3.048,-3.0497,-3.0751,-3.0874,-3.0985,-3.1215,-3.1483,-3.1579,-3.1709,-3.18,-3.18,-3.1817,-3.1854,-3.1994,-3.2414,-3.3026,-3.3497,-3.3639,-3.3584,-3.3656,-3.3564,-3.3546,-3.3509,-3.345,-3.3373,-3.3408,-3.3563,-3.3719,-3.412,-3.4933,-3.5428,-3.5583,-3.6118,-3.6032,-3.6067,-3.6195,-3.6444,-3.6977,-3.7328,-3.7598,-3.8023,-3.8629,-3.8951,-3.9203,-3.9174,-3.9067,-3.9512,-3.9881,-3.9735,-1.1484,-1.1713,-1.1706,-1.1706,-1.1632,-1.1409,-1.126,-1.1105,-1.126,-1.126,-1.1111,-1.1484,-1.1781,-1.2003,-1.215,-1.2526,-1.2826,-1.2893,-1.3339,-1.4065,-1.408,-1.4505,-1.5133,-1.5171,-1.5604,-1.6272,-1.6899,-1.7245,-1.747,-1.7657,-1.792,-1.8269,-1.8405,-1.8674,-1.9065,-1.9539,-2.0064,-2.0453,-2.1019,-2.1663,-2.2173,-2.2494,-2.2982,-2.3497,-2.359,-2.3846,-2.4509,-2.4821,-2.5286,-2.5825,-2.6122,-2.6578,-2.7019,-2.751,-2.8012,-2.8275,-2.8748,-2.886,-2.8737,-2.8967,-2.9015,-2.8987,-2.8833,-2.9026,-2.9242,-2.9248,-2.9248,-2.933,-2.9736,-3.0091,-3.0192,-3.0764,-3.1359,-3.1579,-3.1709,-3.1763,-3.18,-3.18,-3.1819,-3.1929,-3.2141,-3.2126,-3.2161,-3.2405,-3.2528,-3.2511,-3.244,-3.2439,-3.2492,-3.2383,-3.205,-3.2171,-3.2602,-3.3017,-3.3332,-3.3661,-3.3917,-3.4241,-3.4933,-3.5278,-3.5532,-3.5677,-3.5908,-3.6336,-3.6414,-3.6675,-3.6849,-3.7392,-3.7577,-3.7792,-3.7966,-3.8153,-3.8332,-3.8559,-3.8811,-1.1335,-1.1484,-1.1335,-1.1254,-1.126,-1.0887,-1.0738,-1.0669,-1.0738,-1.0732,-1.0738,-1.1111,-1.1409,-1.1632,-1.1929,-1.2305,-1.2673,-1.2826,-1.3339,-1.3985,-1.4072,-1.4497,-1.5054,-1.5234,-1.5587,-1.6272,-1.676,-1.7107,-1.7314,-1.7579,-1.7774,-1.792,-1.8202,-1.8472,-1.8741,-1.9218,-1.9736,-2.0183,-2.0764,-2.1348,-2.1925,-2.2297,-2.2714,-2.316,-2.3127,-2.3269,-2.3794,-2.4549,-2.5272,-2.5865,-2.5767,-2.5755,-2.5992,-2.6356,-2.6749,-2.7072,-2.7462,-2.7778,-2.801,-2.8217,-2.8471,-2.8619,-2.8645,-2.879,-2.8975,-2.896,-2.896,-2.8977,-2.9211,-2.933,-2.9485,-3.0177,-3.0868,-3.147,-3.1596,-3.1709,-3.1783,-3.1839,-3.1984,-3.2196,-3.2267,-3.2336,-3.2404,-3.2438,-3.2404,-3.2404,-3.2353,-3.2301,-3.2284,-3.2161,-3.2054,-3.2089,-3.2331,-3.2416,-3.2713,-3.2906,-3.3026,-3.3422,-3.4064,-3.4601,-3.4831,-3.5223,-3.5453,-3.5605,-3.5674,-3.5809,-3.5972,-3.6184,-3.6516,-3.6591,-3.6771,-3.6906,-3.6911,-3.7243,-3.7708,-1.0887,-1.1037,-1.0962,-1.0812,-1.0738,-1.0438,-1.0218,-1.0143,-1.0137,-1.0223,-1.0368,-1.0663,-1.1037,-1.1335,-1.1639,-1.2083,-1.2452,-1.2673,-1.3039,-1.3768,-1.4057,-1.4418,-1.4991,-1.533,-1.5604,-1.6132,-1.656,-1.6899,-1.7107,-1.7373,-1.7569,-1.7774,-1.8066,-1.8269,-1.8549,-1.8952,-1.9462,-1.9977,-2.0506,-2.1003,-2.1478,-2.1885,-2.214,-2.2439,-2.2356,-2.2588,-2.3034,-2.3765,-2.4491,-2.5043,-2.5175,-2.5276,-2.5331,-2.5755,-2.6108,-2.6423,-2.6788,-2.7121,-2.7268,-2.7499,-2.7624,-2.7851,-2.7875,-2.795,-2.8076,-2.8164,-2.8146,-2.8129,-2.8383,-2.8552,-2.8689,-2.9374,-3.0114,-3.0577,-3.1271,-3.1657,-3.1856,-3.2001,-3.2144,-3.2354,-3.2405,-3.2541,-3.2623,-3.2588,-3.2639,-3.2639,-3.2557,-3.2439,-3.2422,-3.2319,-3.2232,-3.2144,-3.216,-3.2194,-3.2161,-3.2213,-3.2213,-3.2701,-3.3328,-3.3726,-3.4077,-3.4638,-3.499,-3.5104,-3.5203,-3.5492,-3.5663,-3.5744,-3.5945,-3.5846,-3.5878,-3.6318,-3.6646,-3.6676,-3.7045,-1.0288,-1.0438,-1.0438,-1.0363,-1.0137,-0.9997,-0.9771,-0.962,-0.9625,-0.9695,-0.9922,-1.0293,-1.0663,-1.1037,-1.126,-1.1706,-1.215,-1.2305,-1.2599,-1.3185,-1.3695,-1.4201,-1.4705,-1.5292,-1.5647,-1.5859,-1.6272,-1.6612,-1.6839,-1.7107,-1.7373,-1.7647,-1.7862,-1.8144,-1.8482,-1.8875,-1.9341,-1.9868,-2.0268,-2.0585,-2.0885,-2.1104,-2.1387,-2.1494,-2.1493,-2.1708,-2.2213,-2.2605,-2.3133,-2.3844,-2.4595,-2.4945,-2.5153,-2.5619,-2.5864,-2.6041,-2.6604,-2.6634,-2.6622,-2.6765,-2.6854,-2.6768,-2.6736,-2.6572,-2.6894,-2.7012,-2.7012,-2.6996,-2.7435,-2.7757,-2.7892,-2.8574,-2.9123,-2.9451,-3.0709,-3.1614,-3.193,-3.2232,-3.2388,-3.2457,-3.2557,-3.2672,-3.2805,-3.2737,-3.2737,-3.2755,-3.2722,-3.2623,-3.2489,-3.2439,-3.2336,-3.2267,-3.2196,-3.2179,-3.2232,-3.2232,-3.2267,-3.2459,-3.2878,-3.3106,-3.3368,-3.3859,-3.4249,-3.4393,-3.4695,-3.5021,-3.5177,-3.5105,-3.5224,-3.5341,-3.5614,-3.6141,-3.6196,-3.6017,-3.6244,-0.9841,-0.9992,-0.9916,-0.9765,-0.9695,-0.9544,-0.9392,-0.9392,-0.9397,-0.9397,-0.9549,-0.9841,-1.0212,-1.0438,-1.0962,-1.1335,-1.1632,-1.1929,-1.2231,-1.2592,-1.2973,-1.3768,-1.4497,-1.4935,-1.53,-1.5576,-1.5859,-1.614,-1.6491,-1.6839,-1.7176,-1.7529,-1.7725,-1.7988,-1.8337,-1.8674,-1.9142,-1.9617,-1.9693,-1.999,-2.0404,-2.0357,-2.0486,-2.0803,-2.0736,-2.0878,-2.1245,-2.1508,-2.2215,-2.3371,-2.398,-2.417,-2.4059,-2.4371,-2.4765,-2.5091,-2.5331,-2.5672,-2.5847,-2.6031,-2.6211,-2.6484,-2.6334,-2.6555,-2.6708,-2.6691,-2.6691,-2.6725,-2.6911,-2.7046,-2.7267,-2.7896,-2.8596,-2.9472,-3.0387,-3.1324,-3.2039,-3.2371,-3.2541,-3.2722,-3.282,-3.2916,-3.2961,-3.2979,-3.293,-3.2916,-3.2852,-3.2737,-3.2623,-3.2541,-3.2439,-3.2388,-3.2319,-3.2354,-3.2354,-3.2354,-3.2354,-3.2371,-3.2529,-3.2599,-3.2774,-3.2967,-3.3175,-3.329,-3.3761,-3.4141,-3.4105,-3.4047,-3.4329,-3.478,-3.4842,-3.5077,-3.487,-3.4742,-3.5262,-0.9316,-0.9533,-0.9387,-0.9311,-0.916,-0.9013,-0.8861,-0.8789,-0.8865,-0.9018,-0.9094,-0.9473,-0.9846,-1.0067,-1.0513,-1.0887,-1.1186,-1.1484,-1.1706,-1.2009,-1.2452,-1.3258,-1.4072,-1.4505,-1.4784,-1.5141,-1.5426,-1.5718,-1.607,-1.6491,-1.6839,-1.7185,-1.752,-1.7794,-1.8134,-1.8472,-1.8762,-1.9036,-1.9211,-1.9379,-1.9482,-1.9482,-1.9539,-1.9757,-1.9794,-2.0035,-2.0564,-2.0957,-2.1648,-2.2538,-2.313,-2.3402,-2.3378,-2.3711,-2.4067,-2.44,-2.4516,-2.4748,-2.5008,-2.5105,-2.519,-2.5464,-2.5581,-2.5681,-2.5711,-2.581,-2.5844,-2.6232,-2.6317,-2.6553,-2.6959,-2.745,-2.8197,-2.9051,-2.9706,-3.0554,-3.1772,-3.2044,-3.2403,-3.2741,-3.3011,-3.3073,-3.3147,-3.3117,-3.3086,-3.3024,-3.2979,-3.2802,-3.2639,-3.2573,-3.2507,-3.2422,-3.2406,-3.2388,-3.2388,-3.2388,-3.2388,-3.244,-3.2457,-3.2457,-3.2507,-3.2523,-3.2743,-3.2991,-3.3122,-3.3268,-3.3484,-3.3671,-3.3972,-3.4234,-3.4086,-3.4148,-3.4197,-3.4288,-3.4708,-0.8699,-0.8922,-0.8922,-0.8775,-0.8627,-0.8475,-0.8331,-0.8178,-0.8327,-0.8475,-0.8703,-0.9013,-0.9392,-0.9765,-0.9992,-1.0368,-1.0738,-1.0887,-1.1186,-1.1484,-1.2003,-1.2746,-1.3492,-1.3928,-1.4209,-1.4569,-1.4919,-1.5355,-1.5718,-1.607,-1.6491,-1.6802,-1.7198,-1.7522,-1.7765,-1.8101,-1.8299,-1.8371,-1.8554,-1.8603,-1.8463,-1.8612,-1.8655,-1.874,-1.8893,-1.9334,-1.9915,-2.0427,-2.0925,-2.1492,-2.2136,-2.2595,-2.2908,-2.3313,-2.3679,-2.3902,-2.385,-2.3978,-2.4265,-2.4143,-2.4034,-2.4362,-2.4473,-2.4416,-2.4661,-2.4825,-2.5043,-2.5535,-2.5715,-2.6019,-2.6524,-2.6943,-2.7511,-2.8285,-2.8671,-2.9585,-3.0702,-3.1386,-3.1946,-3.276,-3.296,-3.3087,-3.3226,-3.3196,-3.3135,-3.3086,-3.2993,-3.2866,-3.2705,-3.2606,-3.2507,-3.244,-3.2406,-3.2406,-3.2388,-3.2422,-3.2422,-3.2457,-3.2541,-3.2574,-3.2623,-3.269,-3.282,-3.3011,-3.3256,-3.3437,-3.3597,-3.3778,-3.3921,-3.4049,-3.4173,-3.4245,-3.4293,-3.4381,-3.4674,-0.8089,-0.8255,-0.8327,-0.825,-0.8255,-0.8178,-0.8102,-0.8102,-0.8102,-0.8178,-0.8327,-0.8627,-0.8856,-0.9008,-0.9539,-0.9841,-1.0143,-1.0368,-1.0663,-1.1186,-1.1626,-1.2077,-1.2746,-1.3266,-1.3717,-1.408,-1.4497,-1.4856,-1.5133,-1.5621,-1.6132,-1.6567,-1.6628,-1.6844,-1.7272,-1.7292,-1.7356,-1.7636,-1.7615,-1.7726,-1.7908,-1.7787,-1.789,-1.8178,-1.8341,-1.859,-1.8971,-1.9083,-1.9383,-2.0121,-2.1086,-2.17,-2.1796,-2.2107,-2.25,-2.2809,-2.3052,-2.3283,-2.3573,-2.3685,-2.3868,-2.4011,-2.412,-2.4433,-2.4571,-2.4499,-2.4632,-2.49,-2.4948,-2.5159,-2.5601,-2.6301,-2.6778,-2.7227,-2.7858,-2.8713,-2.969,-3.0427,-3.126,-3.2036,-3.2365,-3.2622,-3.327,-3.3164,-3.3112,-3.3093,-3.2952,-3.2894,-3.2645,-3.2409,-3.2221,-3.1964,-3.1948,-3.1929,-3.2262,-3.2366,-3.2574,-3.2484,-3.253,-3.2588,-3.262,-3.2612,-3.2629,-3.2973,-3.3433,-3.3578,-3.376,-3.3917,-3.4124,-3.4197,-3.4269,-3.434,-3.4427,-3.4495,-3.4561,-0.7561,-0.7642,-0.7642,-0.7642,-0.7642,-0.7561,-0.7557,-0.7561,-0.7642,-0.7718,-0.7872,-0.8169,-0.8399,-0.8627,-0.9008,-0.9311,-0.9539,-0.9916,-1.0368,-1.0887,-1.1254,-1.1632,-1.2083,-1.2673,-1.3119,-1.363,-1.3928,-1.4281,-1.4752,-1.5039,-1.5428,-1.5954,-1.6012,-1.6244,-1.6607,-1.6679,-1.6882,-1.692,-1.7001,-1.713,-1.7169,-1.7307,-1.739,-1.7764,-1.7925,-1.816,-1.8289,-1.8545,-1.8715,-1.9168,-1.9946,-2.0698,-2.1114,-2.149,-2.1901,-2.227,-2.23,-2.2582,-2.2862,-2.2883,-2.2922,-2.3173,-2.3358,-2.3477,-2.3566,-2.3624,-2.3915,-2.4178,-2.4356,-2.4528,-2.5097,-2.5579,-2.6033,-2.6329,-2.7041,-2.7853,-2.8505,-2.9494,-3.0603,-3.1383,-3.1664,-3.1873,-3.2182,-3.2498,-3.2303,-3.1941,-3.1828,-3.1757,-3.1484,-3.1271,-3.1296,-3.1182,-3.1255,-3.1449,-3.1938,-3.2305,-3.2705,-3.2606,-3.2434,-3.2475,-3.2487,-3.2426,-3.2329,-3.2881,-3.3441,-3.3762,-3.3928,-3.4124,-3.4245,-3.4316,-3.4386,-3.445,-3.4539,-3.4626,-3.467,-0.7022,-0.7026,-0.7026,-0.7022,-0.7022,-0.6865,-0.6784,-0.6865,-0.7026,-0.7176,-0.7395,-0.7613,-0.7871,-0.8192,-0.836,-0.8595,-0.896,-0.9553,-1.0098,-1.0392,-1.076,-1.1046,-1.1497,-1.186,-1.238,-1.3129,-1.336,-1.3807,-1.4151,-1.4445,-1.4662,-1.506,-1.5343,-1.556,-1.5935,-1.6263,-1.6341,-1.6227,-1.6526,-1.6698,-1.655,-1.6856,-1.7037,-1.7126,-1.7264,-1.7431,-1.7592,-1.7852,-1.8209,-1.8286,-1.8755,-1.957,-2.0443,-2.1129,-2.1575,-2.1916,-2.1737,-2.1848,-2.2102,-2.2077,-2.1973,-2.1998,-2.2282,-2.2445,-2.2552,-2.2764,-2.3086,-2.3453,-2.3749,-2.4058,-2.4873,-2.5217,-2.5367,-2.5674,-2.6328,-2.6874,-2.7331,-2.846,-2.9442,-3.0729,-3.0965,-3.1066,-3.1247,-3.1456,-3.1083,-3.0808,-3.0761,-3.0657,-3.0428,-3.0409,-3.0561,-3.069,-3.0787,-3.0934,-3.1386,-3.1706,-3.2192,-3.2265,-3.2151,-3.2133,-3.2165,-3.2101,-3.2146,-3.2885,-3.3423,-3.3663,-3.3963,-3.4245,-3.4363,-3.4409,-3.452,-3.4607,-3.467,-3.4752,-3.4773,-0.6089,-0.6395,-0.6398,-0.6321,-0.6395,-0.6321,-0.6318,-0.6398,-0.6553,-0.6718,-0.6769,-0.7025,-0.719,-0.7385,-0.7458,-0.7834,-0.8385,-0.9052,-0.946,-0.974,-1.0101,-1.0461,-1.0762,-1.1128,-1.1504,-1.1929,-1.2557,-1.3045,-1.3359,-1.359,-1.3963,-1.428,-1.4504,-1.4764,-1.5102,-1.5326,-1.5554,-1.5704,-1.5958,-1.6178,-1.628,-1.6216,-1.6213,-1.6225,-1.6364,-1.6454,-1.6597,-1.6724,-1.6939,-1.7552,-1.8085,-1.8675,-1.9267,-1.979,-2.0231,-2.0731,-2.1002,-2.126,-2.1536,-2.1749,-2.184,-2.2027,-2.2231,-2.2432,-2.2515,-2.2605,-2.2832,-2.3016,-2.3231,-2.3393,-2.3629,-2.4364,-2.4788,-2.5117,-2.5668,-2.6267,-2.6452,-2.7017,-2.8015,-2.9478,-2.9926,-3.0239,-3.042,-3.0539,-3.0387,-3.0251,-3.0214,-3.0166,-3.0011,-3.006,-3.0243,-3.0325,-3.0467,-3.0606,-3.0825,-3.1078,-3.139,-3.1556,-3.1519,-3.1472,-3.1536,-3.1611,-3.1937,-3.2441,-3.2927,-3.3247,-3.3631,-3.405,-3.4139,-3.3961,-3.4331,-3.4678,-3.4642,-3.4567,-3.4887,-0.5315,-0.5544,-0.5544,-0.5544,-0.5622,-0.5625,-0.5625,-0.5693,-0.5784,-0.5983,-0.6167,-0.6352,-0.6499,-0.6699,-0.7005,-0.7517,-0.807,-0.8433,-0.8931,-0.9281,-0.9631,-1.0049,-1.0315,-1.0597,-1.0955,-1.1361,-1.1792,-1.2348,-1.2777,-1.2825,-1.3215,-1.3575,-1.3739,-1.404,-1.445,-1.4676,-1.4961,-1.5245,-1.5526,-1.5648,-1.5767,-1.5644,-1.5613,-1.5548,-1.5654,-1.5787,-1.5946,-1.6259,-1.6582,-1.712,-1.7503,-1.7887,-1.8286,-1.8647,-1.9193,-2.0088,-2.0581,-2.0926,-2.1261,-2.1587,-2.1811,-2.1998,-2.2215,-2.2432,-2.2569,-2.2685,-2.2773,-2.2943,-2.3126,-2.3313,-2.3501,-2.3884,-2.4154,-2.4406,-2.5037,-2.5502,-2.5768,-2.6129,-2.7082,-2.8182,-2.8427,-2.8852,-2.958,-2.965,-2.9646,-2.9665,-2.9611,-2.9484,-2.9344,-2.9372,-2.9372,-2.9518,-2.96,-3.0044,-3.0269,-3.0592,-3.0812,-3.0931,-3.0913,-3.0899,-3.0845,-3.0943,-3.1182,-3.1586,-3.2091,-3.2534,-3.2842,-3.3081,-3.3293,-3.3485,-3.3526,-3.3675,-3.4128,-3.4428,-3.4592,-0.4462,-0.4691,-0.4691,-0.4771,-0.4768,-0.4745,-0.4812,-0.495,-0.4991,-0.5164,-0.5516,-0.5614,-0.5759,-0.6108,-0.6643,-0.7176,-0.7748,-0.7869,-0.8334,-0.8743,-0.916,-0.9599,-0.989,-1.0306,-1.0522,-1.0642,-1.0976,-1.1393,-1.2047,-1.2232,-1.2485,-1.2854,-1.3087,-1.3459,-1.3899,-1.4267,-1.4656,-1.4847,-1.5168,-1.5172,-1.5053,-1.5091,-1.5092,-1.4877,-1.5093,-1.5211,-1.5339,-1.5599,-1.6074,-1.6544,-1.6923,-1.7204,-1.757,-1.7737,-1.8457,-1.9641,-2.0205,-2.0528,-2.0809,-2.1002,-2.1118,-2.1295,-2.1725,-2.1966,-2.2073,-2.2038,-2.2359,-2.2717,-2.2787,-2.2852,-2.2855,-2.316,-2.3353,-2.3668,-2.4166,-2.4717,-2.5035,-2.5387,-2.5813,-2.6523,-2.6867,-2.7374,-2.8007,-2.8246,-2.8123,-2.8073,-2.8023,-2.8041,-2.7939,-2.799,-2.8077,-2.8341,-2.8658,-2.9284,-2.9714,-3.0194,-3.0401,-3.0528,-3.0445,-3.0362,-3.0259,-3.0189,-3.0527,-3.0808,-3.1091,-3.1506,-3.1808,-3.226,-3.2713,-3.2899,-3.2642,-3.2806,-3.3408,-3.3716,-3.3868,-0.3444,-0.3602,-0.3837,-0.3919,-0.39,-0.3901,-0.3944,-0.4084,-0.4213,-0.4385,-0.4662,-0.4836,-0.5123,-0.5517,-0.6158,-0.6501,-0.6835,-0.726,-0.7669,-0.8016,-0.8409,-0.8739,-0.8892,-0.9362,-0.9705,-0.9984,-1.0232,-1.071,-1.1314,-1.1603,-1.1844,-1.2251,-1.2685,-1.3086,-1.3502,-1.3853,-1.4187,-1.4192,-1.4562,-1.4636,-1.4357,-1.4377,-1.4293,-1.4211,-1.4135,-1.4315,-1.4643,-1.4885,-1.5189,-1.5825,-1.6204,-1.6634,-1.7073,-1.7563,-1.7971,-1.8455,-1.8855,-1.9185,-1.9617,-1.993,-2.0097,-2.0348,-2.0491,-2.0492,-2.0862,-2.1138,-2.1351,-2.1306,-2.1518,-2.1729,-2.1922,-2.1858,-2.2187,-2.2626,-2.3119,-2.3614,-2.4001,-2.4074,-2.4533,-2.4847,-2.5136,-2.5661,-2.6279,-2.6409,-2.654,-2.6493,-2.6506,-2.6597,-2.6747,-2.7017,-2.7191,-2.7581,-2.7871,-2.8424,-2.8753,-2.9299,-2.9584,-2.9851,-2.9777,-2.9644,-2.9526,-2.9441,-2.9772,-3.0067,-3.0273,-3.0554,-3.1007,-3.1537,-3.2184,-3.2289,-3.2019,-3.2331,-3.2857,-3.3023,-3.3115,-0.1895,-0.2683,-0.2872,-0.2933,-0.3003,-0.312,-0.3255,-0.3387,-0.3532,-0.3774,-0.3961,-0.415,-0.4574,-0.5164,-0.5641,-0.6028,-0.642,-0.6728,-0.7134,-0.7442,-0.7837,-0.8172,-0.8528,-0.8894,-0.921,-0.9418,-0.9779,-1.0155,-1.0661,-1.1073,-1.1498,-1.1864,-1.2274,-1.2607,-1.2932,-1.3329,-1.3509,-1.3654,-1.3857,-1.4044,-1.3932,-1.3731,-1.3538,-1.357,-1.3456,-1.3665,-1.3999,-1.4434,-1.4813,-1.5395,-1.5743,-1.5985,-1.634,-1.6647,-1.6907,-1.7197,-1.7555,-1.823,-1.913,-1.9318,-1.9485,-1.972,-1.9942,-2.0245,-2.0442,-2.0683,-2.0902,-2.1102,-2.1243,-2.129,-2.1369,-2.1571,-2.1771,-2.2063,-2.2173,-2.2447,-2.2777,-2.274,-2.2923,-2.318,-2.3474,-2.4004,-2.4679,-2.5369,-2.5692,-2.5852,-2.6034,-2.6279,-2.6508,-2.6817,-2.6944,-2.7046,-2.7326,-2.7624,-2.7826,-2.8139,-2.8322,-2.8537,-2.8597,-2.851,-2.8578,-2.8674,-2.9112,-2.9161,-2.9136,-2.9538,-3.0119,-3.0584,-3.103,-3.1238,-3.1386,-3.1712,-3.2018,-3.2232,-3.2434,-0.0365,-0.1407,-0.1756,-0.1965,-0.2183,-0.2315,-0.2525,-0.2733,-0.2805,-0.3051,-0.3378,-0.3659,-0.4148,-0.4779,-0.5094,-0.5455,-0.6008,-0.6153,-0.654,-0.6989,-0.731,-0.7604,-0.7985,-0.8334,-0.8678,-0.9086,-0.9298,-0.9537,-0.9936,-1.0431,-1.0923,-1.1359,-1.1624,-1.2004,-1.2256,-1.2571,-1.2872,-1.3149,-1.3171,-1.3311,-1.3352,-1.3087,-1.3024,-1.3042,-1.302,-1.3085,-1.3546,-1.3828,-1.435,-1.4895,-1.5121,-1.5389,-1.5782,-1.6055,-1.6294,-1.6557,-1.6902,-1.7502,-1.8286,-1.8663,-1.9012,-1.9219,-1.9444,-1.9504,-1.9864,-2.0283,-2.0471,-2.0341,-2.0532,-2.068,-2.0898,-2.0949,-2.1112,-2.1202,-2.1421,-2.1565,-2.1729,-2.1896,-2.208,-2.2426,-2.2554,-2.2296,-2.3107,-2.4225,-2.4829,-2.5159,-2.5491,-2.5809,-2.6002,-2.6154,-2.6187,-2.6153,-2.6663,-2.6877,-2.7062,-2.7177,-2.729,-2.7292,-2.7338,-2.7586,-2.779,-2.8159,-2.8617,-2.8494,-2.8125,-2.8454,-2.9013,-2.9415,-2.9794,-3.0128,-3.0449,-3.08,-3.1091,-3.134,-3.1635,0.1336,0.0776,-0.0505,-0.1236,-0.1523,-0.1491,-0.1687,-0.2035,-0.2187,-0.2366,-0.2629,-0.3218,-0.3692,-0.4151,-0.4501,-0.4829,-0.5139,-0.5426,-0.5778,-0.6084,-0.6345,-0.6759,-0.7181,-0.7567,-0.7896,-0.8089,-0.856,-0.8841,-0.9051,-0.9538,-1.0171,-1.0795,-1.096,-1.118,-1.1511,-1.1903,-1.2249,-1.2489,-1.2529,-1.2464,-1.2575,-1.2534,-1.26,-1.2574,-1.2468,-1.253,-1.3112,-1.3228,-1.3556,-1.4245,-1.4583,-1.4945,-1.5412,-1.5652,-1.5884,-1.6157,-1.6348,-1.6811,-1.7239,-1.76,-1.7674,-1.783,-1.8167,-1.8616,-1.892,-1.8836,-1.8906,-1.9272,-1.9615,-1.9575,-1.9567,-1.952,-2.0136,-2.0409,-2.0682,-2.088,-2.1083,-2.1362,-2.1562,-2.1795,-2.1697,-2.1377,-2.1353,-2.2451,-2.3269,-2.3583,-2.3985,-2.4296,-2.4634,-2.482,-2.494,-2.5143,-2.5792,-2.6155,-2.6343,-2.637,-2.6162,-2.6194,-2.6274,-2.6756,-2.7238,-2.7634,-2.774,-2.7526,-2.716,-2.752,-2.7782,-2.7978,-2.836,-2.9057,-2.9539,-2.9893,-3.0307,-3.0646,-3.0851,0.2185,0.164,0.0898,0.0139,-0.0555,-0.0755,-0.1025,-0.1297,-0.1554,-0.1864,-0.223,-0.2745,-0.3217,-0.3593,-0.382,-0.4232,-0.4665,-0.4783,-0.52,-0.5514,-0.5816,-0.6169,-0.6569,-0.6875,-0.7225,-0.7573,-0.8001,-0.8448,-0.8757,-0.8806,-0.9225,-0.9697,-1.0201,-1.0553,-1.0894,-1.1177,-1.1516,-1.1692,-1.1831,-1.193,-1.2009,-1.19,-1.1953,-1.2118,-1.2053,-1.2212,-1.2636,-1.2948,-1.3425,-1.3894,-1.4347,-1.4713,-1.5036,-1.5222,-1.5403,-1.5608,-1.5722,-1.5775,-1.6149,-1.6708,-1.7394,-1.7737,-1.8017,-1.8166,-1.8191,-1.8434,-1.8658,-1.886,-1.8893,-1.8885,-1.9166,-1.9314,-1.9614,-1.9761,-1.9939,-2.0136,-2.0354,-2.0597,-2.0776,-2.0904,-2.0681,-2.0382,-2.0461,-2.0642,-2.1372,-2.2002,-2.2406,-2.2863,-2.3377,-2.3708,-2.3888,-2.3995,-2.4588,-2.4668,-2.483,-2.4866,-2.4938,-2.5078,-2.5217,-2.5456,-2.5851,-2.6215,-2.6269,-2.6146,-2.6112,-2.6257,-2.6389,-2.6452,-2.7054,-2.8126,-2.8677,-2.8987,-2.9421,-2.9889,-3.0183,0.3086,0.2616,0.2217,0.1412,0.0336,-0.0067,-0.0336,-0.0538,-0.0874,-0.1389,-0.1933,-0.2233,-0.2561,-0.2936,-0.316,-0.349,-0.3878,-0.4101,-0.4526,-0.4814,-0.5097,-0.5416,-0.5831,-0.6236,-0.645,-0.6958,-0.731,-0.7714,-0.7983,-0.8076,-0.8373,-0.889,-0.9467,-0.9757,-1.0272,-1.0522,-1.0819,-1.0918,-1.1214,-1.1393,-1.1516,-1.1529,-1.1469,-1.1762,-1.1799,-1.2084,-1.2425,-1.2736,-1.3093,-1.3523,-1.3939,-1.4264,-1.45,-1.4673,-1.4712,-1.4804,-1.4853,-1.478,-1.5249,-1.5923,-1.6841,-1.6922,-1.7185,-1.7386,-1.7648,-1.782,-1.7737,-1.7949,-1.819,-1.8429,-1.8544,-1.843,-1.8429,-1.8499,-1.9007,-1.9253,-1.9453,-1.9671,-1.9838,-1.9967,-1.9851,-1.9986,-2.0115,-2.032,-2.0823,-2.1425,-2.1783,-2.2322,-2.2901,-2.3101,-2.3083,-2.3157,-2.3295,-2.3195,-2.305,-2.3508,-2.3925,-2.3985,-2.402,-2.3752,-2.402,-2.4466,-2.4749,-2.4616,-2.4658,-2.4865,-2.5032,-2.5156,-2.6204,-2.7488,-2.7959,-2.8398,-2.8669,-2.9135,-2.959,0.4156,0.3894,0.3357,0.2351,0.1209,0.0672,0.0403,0.0201,-0.0267,-0.0919,-0.1466,-0.162,-0.188,-0.2309,-0.2415,-0.2677,-0.3083,-0.3175,-0.3511,-0.3978,-0.4163,-0.4452,-0.4901,-0.5318,-0.5698,-0.5916,-0.6458,-0.6839,-0.7007,-0.7394,-0.7692,-0.7935,-0.8443,-0.8827,-0.9563,-0.9956,-1.0184,-1.0379,-1.0696,-1.0888,-1.1006,-1.1196,-1.1342,-1.1529,-1.1741,-1.2077,-1.2259,-1.2451,-1.2801,-1.309,-1.3144,-1.3431,-1.3753,-1.3893,-1.4035,-1.4247,-1.4467,-1.4607,-1.4881,-1.5246,-1.5573,-1.597,-1.6353,-1.6386,-1.6325,-1.6413,-1.6724,-1.7125,-1.7067,-1.7056,-1.705,-1.7169,-1.7333,-1.757,-1.8128,-1.8421,-1.8609,-1.8764,-1.8925,-1.9333,-1.969,-1.9916,-2.0022,-2.0203,-2.0604,-2.1005,-2.1273,-2.1723,-2.2256,-2.2319,-2.2184,-2.2152,-2.2161,-2.2197,-2.2189,-2.2601,-2.2909,-2.294,-2.281,-2.25,-2.2494,-2.2929,-2.3076,-2.3057,-2.3105,-2.3235,-2.355,-2.3885,-2.5078,-2.6248,-2.7381,-2.793,-2.8123,-2.8333,-2.8708,0.5087,0.4894,0.4223,0.3687,0.3082,0.2012,0.1329,0.0913,0.032,-0.025,-0.0793,-0.09,-0.1117,-0.1438,-0.1656,-0.1871,-0.2188,-0.2462,-0.2798,-0.3241,-0.3352,-0.3799,-0.4239,-0.4629,-0.4959,-0.5297,-0.5793,-0.6197,-0.6445,-0.6843,-0.7172,-0.7459,-0.7772,-0.8366,-0.8989,-0.9447,-0.9681,-0.9838,-1.0168,-1.048,-1.0547,-1.0853,-1.119,-1.1362,-1.1752,-1.1953,-1.2009,-1.216,-1.2409,-1.2571,-1.2595,-1.296,-1.3253,-1.3396,-1.3366,-1.3436,-1.3546,-1.3396,-1.3658,-1.4009,-1.4646,-1.5235,-1.569,-1.5836,-1.6133,-1.6286,-1.6417,-1.6468,-1.6472,-1.6607,-1.6927,-1.7045,-1.7176,-1.7256,-1.7601,-1.7671,-1.782,-1.7922,-1.8106,-1.8774,-1.9247,-1.9698,-1.9931,-2.0154,-2.052,-2.0603,-2.083,-2.0843,-2.1243,-2.1196,-2.1072,-2.1081,-2.1099,-2.1191,-2.1377,-2.1716,-2.1777,-2.1719,-2.1503,-2.119,-2.1308,-2.1698,-2.1875,-2.2104,-2.1822,-2.1598,-2.2453,-2.3244,-2.3914,-2.4916,-2.5983,-2.6906,-2.7203,-2.7385,-2.7663,0.6079,0.5822,0.5282,0.4854,0.4421,0.3039,0.2083,0.1456,0.0984,0.048,0.0059,-0.0117,-0.0401,-0.0676,-0.0897,-0.1122,-0.1456,-0.1624,-0.2071,-0.246,-0.2629,-0.3072,-0.3519,-0.3962,-0.4294,-0.4677,-0.5109,-0.5538,-0.5824,-0.6265,-0.6561,-0.6843,-0.7288,-0.7702,-0.8316,-0.876,-0.9225,-0.9402,-0.9775,-1.0152,-1.0371,-1.0669,-1.0966,-1.1172,-1.1449,-1.1722,-1.1634,-1.1777,-1.2006,-1.2083,-1.2264,-1.2542,-1.2682,-1.2754,-1.2704,-1.2737,-1.2855,-1.2859,-1.322,-1.3464,-1.4161,-1.4813,-1.5193,-1.5345,-1.5475,-1.5437,-1.5555,-1.5719,-1.6041,-1.6109,-1.6208,-1.6362,-1.6466,-1.653,-1.6798,-1.6876,-1.7084,-1.7186,-1.7619,-1.8275,-1.8659,-1.9175,-1.9735,-2.0138,-2.0436,-2.0419,-2.038,-2.038,-2.0402,-2.0438,-2.0481,-2.0526,-2.0547,-2.0701,-2.0772,-2.0775,-2.075,-2.0516,-2.0447,-2.0435,-2.0545,-2.0989,-2.1071,-2.1126,-2.0975,-2.1113,-2.1913,-2.2656,-2.2998,-2.3584,-2.4462,-2.5328,-2.6091,-2.6466,-2.6699,0.7195,0.6736,0.6527,0.5971,0.5145,0.3849,0.2711,0.1902,0.1725,0.1349,0.0938,0.0625,0.0337,0.0056,-0.0056,-0.0393,-0.0729,-0.0841,-0.1232,-0.1623,-0.1847,-0.2348,-0.2796,-0.3186,-0.3555,-0.3944,-0.4419,-0.4824,-0.5088,-0.5529,-0.5878,-0.6216,-0.6607,-0.7045,-0.7506,-0.8083,-0.8683,-0.9031,-0.9443,-0.9858,-1.0215,-1.053,-1.0672,-1.0855,-1.1023,-1.1099,-1.1061,-1.1082,-1.1204,-1.1256,-1.1325,-1.1456,-1.163,-1.1863,-1.2117,-1.2439,-1.2735,-1.3015,-1.3295,-1.3493,-1.3748,-1.4284,-1.422,-1.4105,-1.4324,-1.4688,-1.4859,-1.4916,-1.5069,-1.4972,-1.4933,-1.5085,-1.5233,-1.5531,-1.5912,-1.6132,-1.6361,-1.6711,-1.7226,-1.7645,-1.7912,-1.838,-1.9021,-1.9511,-1.9995,-2.0041,-2.0059,-2.0297,-2.0325,-2.0407,-2.0432,-2.0443,-2.0447,-2.0416,-2.0406,-2.0366,-2.0351,-2.0337,-2.0302,-2.0266,-2.0322,-2.0346,-2.0524,-2.0553,-2.0339,-2.0551,-2.1126,-2.1491,-2.1731,-2.2403,-2.3073,-2.4044,-2.4899,-2.5438,-2.5765,0.8102,0.7892,0.7286,0.683,0.6467,0.5344,0.4153,0.308,0.2703,0.2269,0.1816,0.1519,0.1287,0.1119,0.0839,0.0616,0.0336,0.0,-0.028,-0.0672,-0.1008,-0.1511,-0.1955,-0.2336,-0.2751,-0.3199,-0.359,-0.4017,-0.4336,-0.4734,-0.5262,-0.5713,-0.5957,-0.6298,-0.6875,-0.7454,-0.8089,-0.8725,-0.9136,-0.9588,-0.9925,-1.0188,-1.0278,-1.0403,-1.0509,-1.0507,-1.0398,-1.064,-1.0751,-1.0738,-1.1093,-1.1362,-1.1593,-1.1891,-1.2236,-1.2604,-1.2908,-1.3158,-1.3428,-1.368,-1.3934,-1.4149,-1.4264,-1.4302,-1.4368,-1.4451,-1.4545,-1.4621,-1.4691,-1.4783,-1.4871,-1.4962,-1.5028,-1.5255,-1.5523,-1.5655,-1.5868,-1.6009,-1.6521,-1.6898,-1.715,-1.7636,-1.8288,-1.896,-1.9398,-1.9525,-1.9716,-1.9999,-2.0208,-2.026,-2.0313,-2.0313,-2.0316,-2.0255,-2.0244,-2.0229,-2.02,-2.0177,-2.0115,-2.0044,-2.0044,-2.0063,-2.012,-2.005,-1.9893,-1.9896,-2.0104,-2.0395,-2.0675,-2.101,-2.167,-2.2702,-2.3652,-2.425,-2.486,0.9192,0.8901,0.8351,0.7809,0.7252,0.6522,0.5575,0.4622,0.3819,0.3183,0.285,0.2462,0.2237,0.2068,0.1789,0.1567,0.14,0.1008,0.0672,0.028,-0.0112,-0.0553,-0.1047,-0.1471,-0.1867,-0.2308,-0.2738,-0.3059,-0.3438,-0.3925,-0.4468,-0.4911,-0.5189,-0.568,-0.6264,-0.6829,-0.7419,-0.8152,-0.8788,-0.9239,-0.9486,-0.9635,-0.9782,-0.9742,-0.9831,-0.981,-0.9753,-1.0147,-1.0365,-1.05,-1.0968,-1.1384,-1.1681,-1.2102,-1.2526,-1.2908,-1.3124,-1.341,-1.3678,-1.3927,-1.4175,-1.4391,-1.4563,-1.4635,-1.4654,-1.471,-1.4765,-1.4818,-1.4893,-1.4954,-1.5056,-1.5127,-1.5171,-1.5202,-1.5252,-1.528,-1.5296,-1.5325,-1.5679,-1.6092,-1.6518,-1.6979,-1.7597,-1.8287,-1.885,-1.9043,-1.9316,-1.9687,-1.9916,-2.0049,-2.0092,-2.0111,-2.0107,-2.0101,-2.0077,-2.0003,-1.9935,-1.9865,-1.9823,-1.9771,-1.9756,-1.9734,-1.9745,-1.9638,-1.9489,-1.9518,-1.9523,-1.9481,-1.9674,-2.0011,-2.04,-2.1194,-2.2241,-2.3191,-2.381,1.0351,0.9926,0.95,0.8764,0.7914,0.74,0.6923,0.6411,0.516,0.4288,0.3904,0.3463,0.3239,0.307,0.2792,0.2571,0.2402,0.2068,0.1733,0.1227,0.0883,0.0437,-0.0054,-0.0471,-0.0922,-0.1412,-0.1791,-0.2111,-0.2506,-0.2978,-0.3509,-0.4005,-0.4447,-0.4918,-0.5518,-0.6033,-0.6603,-0.7182,-0.7941,-0.8523,-0.8823,-0.9022,-0.9085,-0.8684,-0.8818,-0.9036,-0.9085,-0.9408,-0.9919,-1.0373,-1.0849,-1.1293,-1.1882,-1.24,-1.2873,-1.321,-1.3425,-1.3701,-1.3975,-1.4241,-1.4427,-1.4625,-1.4793,-1.4896,-1.4916,-1.4921,-1.4966,-1.4986,-1.5045,-1.5091,-1.519,-1.5213,-1.5243,-1.5227,-1.5221,-1.523,-1.5215,-1.5186,-1.5254,-1.5586,-1.5743,-1.6151,-1.628,-1.6918,-1.7623,-1.8178,-1.8703,-1.9093,-1.9468,-1.9661,-1.9741,-1.9793,-1.9812,-1.9779,-1.9752,-1.9693,-1.9601,-1.9537,-1.9471,-1.9369,-1.9261,-1.9298,-1.9368,-1.9136,-1.8907,-1.8959,-1.896,-1.8945,-1.8929,-1.9091,-1.9452,-1.9831,-2.0717,-2.1806,-2.2756,1.1421,1.1231,1.0376,0.9472,0.8678,0.8249,0.8019,0.7877,0.7111,0.6032,0.5058,0.4622,0.4401,0.4229,0.3901,0.368,0.3511,0.3178,0.279,0.2366,0.1955,0.144,0.0943,0.0454,0.0,-0.0339,-0.0719,-0.1136,-0.1603,-0.2064,-0.2495,-0.2893,-0.3378,-0.3989,-0.4596,-0.511,-0.5624,-0.6131,-0.6607,-0.737,-0.7902,-0.7878,-0.7786,-0.7879,-0.8137,-0.8284,-0.8473,-0.8985,-0.9504,-1.0021,-1.0643,-1.1355,-1.2195,-1.2732,-1.3176,-1.349,-1.3789,-1.4049,-1.4274,-1.4528,-1.4707,-1.483,-1.4992,-1.5074,-1.5119,-1.5132,-1.5147,-1.5151,-1.5179,-1.5221,-1.5239,-1.5251,-1.5253,-1.5228,-1.5199,-1.5163,-1.5137,-1.5043,-1.4948,-1.4996,-1.506,-1.5123,-1.5205,-1.564,-1.6306,-1.6973,-1.7617,-1.8141,-1.869,-1.8984,-1.9166,-1.9257,-1.9406,-1.9416,-1.9378,-1.9287,-1.9146,-1.9068,-1.899,-1.889,-1.877,-1.8735,-1.8717,-1.8495,-1.8336,-1.838,-1.8419,-1.8395,-1.841,-1.8428,-1.8498,-1.8866,-1.9289,-2.0197,-2.1292,1.2413,1.2188,1.1261,1.0438,0.971,0.9273,0.9072,0.8928,0.8455,0.7753,0.6789,0.6091,0.555,0.5328,0.5054,0.4889,0.4725,0.4284,0.3851,0.3409,0.292,0.2431,0.1913,0.1464,0.1092,0.0746,0.0278,-0.0183,-0.0536,-0.0937,-0.1292,-0.169,-0.2266,-0.2841,-0.3443,-0.396,-0.4462,-0.4959,-0.5132,-0.5632,-0.6518,-0.6631,-0.682,-0.7069,-0.7203,-0.7413,-0.7897,-0.8413,-0.8973,-0.9779,-1.0623,-1.1627,-1.246,-1.3093,-1.3551,-1.391,-1.4217,-1.4445,-1.4585,-1.4759,-1.4937,-1.5032,-1.5065,-1.5096,-1.5048,-1.5056,-1.5058,-1.5052,-1.5073,-1.5104,-1.5087,-1.5099,-1.5056,-1.5006,-1.4918,-1.4851,-1.4742,-1.4608,-1.4532,-1.4489,-1.4482,-1.4362,-1.4511,-1.4841,-1.5511,-1.618,-1.6765,-1.7503,-1.8009,-1.8323,-1.8499,-1.8646,-1.8751,-1.8889,-1.8892,-1.8788,-1.8646,-1.8572,-1.8478,-1.8342,-1.8223,-1.8156,-1.8044,-1.781,-1.7698,-1.7788,-1.781,-1.7805,-1.776,-1.7743,-1.7794,-1.7896,-1.833,-1.8693,-1.951,1.3313,1.2965,1.219,1.142,1.0751,1.0379,1.0167,1.0012,0.9607,0.9302,0.8869,0.7694,0.695,0.6421,0.6209,0.61,0.5855,0.5371,0.4858,0.4411,0.3962,0.3424,0.2967,0.2593,0.2163,0.1769,0.1396,0.1079,0.0804,0.0446,0.0045,-0.04,-0.0934,-0.1465,-0.2097,-0.2642,-0.3092,-0.3488,-0.3726,-0.3774,-0.445,-0.5252,-0.5693,-0.5926,-0.6175,-0.6579,-0.7071,-0.7579,-0.8196,-0.9267,-1.0403,-1.1678,-1.262,-1.331,-1.3847,-1.4238,-1.4494,-1.4659,-1.4791,-1.4853,-1.4979,-1.5078,-1.5062,-1.4986,-1.4888,-1.4791,-1.4789,-1.472,-1.4736,-1.4829,-1.4812,-1.4775,-1.4703,-1.4635,-1.4532,-1.441,-1.4264,-1.4113,-1.404,-1.3948,-1.3831,-1.3681,-1.3839,-1.416,-1.4741,-1.5414,-1.6116,-1.6881,-1.7439,-1.7613,-1.7791,-1.7881,-1.7931,-1.8107,-1.8301,-1.8241,-1.8101,-1.7958,-1.7868,-1.7749,-1.767,-1.7545,-1.7358,-1.7093,-1.7035,-1.7183,-1.7158,-1.7109,-1.7101,-1.7101,-1.7117,-1.7183,-1.733,-1.7683,-1.7895,1.4133,1.3323,1.2787,1.2274,1.1778,1.1525,1.1458,1.1366,1.1015,1.0712,1.0458,0.9946,0.9058,0.7747,0.7605,0.7368,0.703,0.6465,0.5963,0.5457,0.4853,0.4304,0.3861,0.3491,0.3155,0.2815,0.2583,0.2408,0.2224,0.1912,0.16,0.1287,0.0712,0.0131,-0.0507,-0.1029,-0.1524,-0.1947,-0.2239,-0.2326,-0.2723,-0.353,-0.4378,-0.4738,-0.5017,-0.5349,-0.5738,-0.6219,-0.6822,-0.7938,-0.9649,-1.1248,-1.2383,-1.3261,-1.3896,-1.4097,-1.437,-1.4473,-1.4534,-1.4637,-1.4701,-1.4732,-1.4647,-1.4498,-1.4317,-1.4058,-1.396,-1.3756,-1.3856,-1.4126,-1.4148,-1.4092,-1.4023,-1.3941,-1.3854,-1.3685,-1.3538,-1.3437,-1.3349,-1.3273,-1.3176,-1.3075,-1.3037,-1.3505,-1.4108,-1.4778,-1.5447,-1.6167,-1.6914,-1.7028,-1.7093,-1.7126,-1.7182,-1.7396,-1.7609,-1.7597,-1.7482,-1.7358,-1.7215,-1.7093,-1.6969,-1.691,-1.6706,-1.6491,-1.647,-1.6575,-1.6538,-1.6459,-1.6459,-1.6459,-1.6459,-1.6501,-1.6601,-1.6691,-1.6901]}]]